Date StartTime U_cm/s V_cm/s W_cm/s Ustd_cm/s Vstd_cm/s Wstd_cm/s Uvar_(cm/s)^2 Vvar_(cm/s)^2 Wvar_(cm/s)^2 KE_(m/s)^2 TurbulentKE_(m/s)^2 HorizWindSpeed_cm/s FrictionSpeec_cm/s DragCoef SpeedOfSound_m/s SonicTemperature_C Pressure_mb 
12/25/2014  00:00:00     -124.586      143.847       -9.875       97.222      103.285       67.457     9452.174    10667.766     4550.394        3.049        1.234      190.298       53.131        0.078      331.926        0.254      858.585
12/25/2014  00:01:00      -88.193      172.659      -20.705       69.674       80.579       51.686     4854.525     6492.969     2671.447        2.602        0.701      193.879       44.812        0.053      331.940        0.276      858.596
12/25/2014  00:02:00     -156.247      107.242      -11.899      117.572      101.121       64.151    13823.254    10225.509     4115.350        3.210        1.408      189.510       64.486        0.116      331.944        0.284      858.590
12/25/2014  00:03:00     -146.680      183.366      -19.086      122.582       80.374       62.150    15026.378     6460.035     3862.584        4.042        1.267      234.815       57.978        0.061      331.938        0.273      858.567
12/25/2014  00:04:00     -132.408      167.954      -26.760      121.184      131.588       52.392    14685.530    17315.531     2744.902        4.059        1.737      213.869       59.614        0.078      331.941        0.278      858.571
12/25/2014  00:05:00     -198.194      155.040      -34.002      132.104      128.469       72.048    17451.521    16504.369     5190.849        5.180        1.957      251.631       80.166        0.101      331.913        0.232      858.584
12/25/2014  00:06:00     -236.139      255.207      -47.434      168.318      121.830       88.988    28330.962    14842.669     7918.939        8.711        2.555      347.695       98.467        0.080      331.892        0.195      858.565
12/25/2014  00:07:00     -255.081      265.044      -48.546       96.275      153.329       69.410     9268.857    23509.806     4817.720        8.763        1.880      367.852       56.786        0.024      331.898        0.206      858.548
12/25/2014  00:08:00     -153.107      200.694      -34.746       93.260      118.658       51.665     8697.462    14079.611     2669.284        4.518        1.272      252.428       51.084        0.041      331.885        0.186      858.536
12/25/2014  00:09:00      -73.706      195.382       -9.358      108.695      141.108       63.066    11814.657    19911.401     3977.381        3.969        1.785      208.822       55.768        0.071      331.911        0.229      858.537
12/25/2014  00:10:00     -164.165      175.378      -40.210       79.163       89.311       50.548     6266.721     7976.477     2555.148        3.806        0.840      240.224       50.999        0.045      331.920        0.242      858.556
12/25/2014  00:11:00     -129.053      279.199      -41.873       71.745       87.060       48.739     5147.275     7579.414     2375.519        5.573        0.755      307.582       40.135        0.017      331.873        0.165      858.572
12/25/2014  00:12:00     -172.716      219.320      -30.839      102.049      111.121       56.587    10414.007    12347.914     3202.078        5.242        1.298      279.164       53.545        0.037      331.893        0.197      858.568
12/25/2014  00:13:00     -131.692      106.857      -24.113       80.191      103.765       56.815     6430.566    10767.104     3227.934        2.488        1.021      169.591       42.089        0.062      331.867        0.159      858.553
12/25/2014  00:14:00      -85.926      158.855      -15.576       65.356      117.184       48.361     4271.354    13732.084     2338.775        2.660        1.017      180.605       58.301        0.104      331.878        0.174      858.533
12/25/2014  00:15:00     -140.132      131.863      -13.685       76.618      111.716       52.997     5870.261    12480.418     2808.709        2.918        1.058      192.418       47.376        0.061      331.882        0.180      858.516
12/25/2014  00:16:00     -176.739      195.176      -26.649      115.703      132.737       59.754    13387.145    17619.129     3570.504        5.230        1.729      263.307       69.251        0.069      331.844        0.120      858.533
12/25/2014  00:17:00     -152.541      161.167      -32.112      127.649       92.982       48.454    16294.333     8645.621     2347.821        3.878        1.364      221.909       56.400        0.065      331.899        0.209      858.528
12/25/2014  00:18:00     -160.857      225.700      -28.869      136.999      164.527       77.991    18768.744    27068.991     6082.579        6.477        2.596      277.156       80.037        0.083      331.859        0.143      858.551
12/25/2014  00:19:00     -208.553      203.272      -31.489      131.935       89.439       59.203    17406.789     7999.262     3505.004        5.735        1.446      291.228       62.886        0.047      331.800        0.046      858.573
12/25/2014  00:20:00      -54.551      105.636      -24.370       42.876       60.292       28.447     1838.336     3635.180      809.209        1.050        0.314      118.890       25.317        0.045      331.809        0.064      858.581
12/25/2014  00:21:00      -61.324       64.686        5.179       94.312       47.769       38.362     8894.665     2281.884     1471.612        1.031        0.632       89.135       46.492        0.272      331.850        0.132      858.588
12/25/2014  00:22:00      -45.266      105.250        2.313       66.972       83.353       42.207     4485.309     6947.704     1781.453        1.317        0.661      114.571       47.379        0.171      331.841        0.115      858.616
12/25/2014  00:23:00      -57.808      125.077      -20.293       68.875       52.924       37.711     4743.834     2800.980     1422.120        1.418        0.448      137.790       29.203        0.045      331.856        0.140      858.639
12/25/2014  00:24:00      -14.898      218.726       -8.074       61.416      119.777       52.081     3771.916    14346.572     2712.411        3.448        1.042      219.233       51.680        0.056      331.760       -0.019      858.657
12/25/2014  00:25:00      -86.533      244.362      -22.635      100.231      117.681       63.492    10046.242    13848.841     4031.272        4.781        1.396      259.231       56.080        0.047      331.804        0.053      858.670
12/25/2014  00:26:00      -89.140      296.972      -27.033      128.136      129.950       62.238    16418.957    16886.925     3873.562        6.702        1.859      310.061       62.989        0.041      331.795        0.036      858.663
12/25/2014  00:27:00      -60.305      317.242      -19.457      121.818      185.724       70.887    14839.694    34493.457     5024.963        7.950        2.718      322.923       80.416        0.062      331.782        0.018      858.660
12/25/2014  00:28:00      -96.980      339.608      -36.257       96.363       97.524       67.047     9285.805     9510.966     4495.326        7.467        1.165      353.184       60.161        0.029      331.806        0.055      858.656
12/25/2014  00:29:00      -70.155      194.208      -25.852       91.101       80.907       50.164     8299.422     6545.864     2516.475        3.033        0.868      206.491       49.546        0.058      331.822        0.082      858.662
12/25/2014  00:30:00      -42.566      341.829      -38.717       79.911      126.163       45.882     6385.715    15917.128     2105.133        7.228        1.220      344.470       51.733        0.023      331.782        0.016      858.666
12/25/2014  00:31:00      -33.262      259.242      -22.033       76.220       78.433       39.869     5809.481     6151.718     1589.523        4.117        0.678      261.367       34.955        0.018      331.758       -0.024      858.678
12/25/2014  00:32:00      -35.407      202.741      -20.354       68.740       92.133       55.082     4725.149     8488.581     3033.990        2.951        0.812      205.810       54.922        0.071      331.782        0.017      858.678
12/25/2014  00:33:00      -95.545      318.514      -39.963      113.423      136.061       54.574    12864.773    18512.639     2978.323        7.326        1.718      332.536       57.458        0.030      331.760       -0.019      858.672
12/25/2014  00:34:00      -84.029      208.239      -20.441      115.729      124.014       56.162    13393.297    15379.373     3154.181        4.138        1.596      224.554       53.441        0.057      331.794        0.036      858.658
12/25/2014  00:35:00      -99.567      197.643      -22.885       87.953      106.651       47.315     7735.767    11374.376     2238.672        3.542        1.067      221.306       46.903        0.045      331.782        0.015      858.654
12/25/2014  00:36:00      -87.220      231.265      -31.288      112.822      122.775       53.268    12728.884    15073.820     2837.486        4.635        1.532      247.165       61.771        0.062      331.751       -0.034      858.665
12/25/2014  00:37:00      -31.701      234.976      -17.714       63.117      103.326       49.484     3983.718    10676.186     2448.620        3.682        0.855      237.104       56.622        0.057      331.767       -0.008      858.674
12/25/2014  00:38:00      -48.207      175.474      -24.201       64.577      119.379       34.800     4170.174    14251.399     1211.051        2.666        0.982      181.975       42.170        0.054      331.829        0.095      858.680
12/25/2014  00:39:00       -8.068      248.251      -30.799       55.708      138.464       52.608     3103.435    19172.246     2767.630        4.384        1.252      248.382       64.630        0.068      331.739       -0.055      858.676
12/25/2014  00:40:00     -115.969      194.242      -41.242       80.351      100.722       35.348     6456.332    10144.961     1249.472        3.536        0.893      226.227       34.848        0.024      331.796        0.039      858.685
12/25/2014  00:41:00      -44.341      233.826      -31.101       90.401       94.868       56.825     8172.366     8999.970     3229.025        3.900        1.020      237.994       48.454        0.041      331.769       -0.006      858.691
12/25/2014  00:42:00      -81.905      197.461      -27.010       95.152      183.061       58.961     9053.926    33511.397     3476.368        4.623        2.302      213.774       82.542        0.149      331.752       -0.033      858.699
12/25/2014  00:43:00      -36.872      298.315      -41.457       56.108      107.231       44.258     3148.108    11498.425     1958.740        5.433        0.830      300.585       48.093        0.026      331.766       -0.010      858.711
12/25/2014  00:44:00     -101.649      238.466      -21.572       63.100       98.752       48.143     3981.673     9751.996     2317.749        4.185        0.803      259.226       47.739        0.034      331.783        0.018      858.705
12/25/2014  00:45:00      -59.356      215.725      -21.255       68.182       61.496       34.767     4648.793     3781.796     1208.774        3.007        0.482      223.742       34.850        0.024      331.759       -0.021      858.703
12/25/2014  00:46:00      -28.662       85.740        5.067       53.574       69.324       33.729     2870.180     4805.788     1137.617        0.850        0.441       90.404       36.440        0.162      331.711       -0.097      858.687
12/25/2014  00:47:00      -53.756      170.732      -27.927       47.501       64.254       30.603     2256.349     4128.612      936.543        2.007        0.366      178.995       24.904        0.019      331.750       -0.036      858.685
12/25/2014  00:48:00      -56.798      260.367      -25.811       65.274       96.597       50.686     4260.672     9331.021     2569.119        4.392        0.808      266.490       51.857        0.038      331.764       -0.014      858.673
12/25/2014  00:49:00      -38.026      109.939        4.678       83.458       83.238       39.892     6965.314     6928.646     1591.345        1.452        0.774      116.330       33.085        0.081      331.671       -0.165      858.658
12/25/2014  00:50:00     -131.074      102.982      -21.513       54.258       72.728       33.941     2943.894     5289.351     1151.968        1.881        0.469      166.691       23.922        0.021      331.684       -0.144      858.666
12/25/2014  00:51:00     -103.632       76.504      -14.714       72.234       41.124       32.451     5217.702     1691.194     1053.095        1.238        0.398      128.812       22.027        0.029      331.729       -0.069      858.665
12/25/2014  00:52:00     -104.869      120.299      -12.891       73.602       88.801       44.847     5417.293     7885.541     2011.295        2.047        0.766      159.591       36.421        0.052      331.738       -0.054      858.653
12/25/2014  00:53:00     -157.746       89.091      -22.333       82.807       73.310       34.359     6856.950     5374.365     1180.538        2.336        0.671      181.166       28.694        0.025      331.673       -0.162      858.636
12/25/2014  00:54:00     -161.328       12.442      -12.941      118.648       66.061       43.531    14077.297     4364.111     1894.935        2.334        1.017      161.807       50.620        0.098      331.691       -0.132      858.615
12/25/2014  00:55:00     -135.973        7.153      -18.569       75.090       52.919       28.779     5638.437     2800.415      828.236        1.407        0.463      136.161       17.303        0.016      331.659       -0.183      858.597
12/25/2014  00:56:00     -138.323       22.087      -15.953       50.350       63.445       25.425     2535.142     4025.261      646.440        1.354        0.360      140.075       19.923        0.020      331.676       -0.155      858.622
12/25/2014  00:57:00     -150.394       77.432      -15.268       83.454       74.950       43.917     6964.497     5617.527     1928.745        2.168        0.726      169.156       27.381        0.026      331.691       -0.132      858.630
12/25/2014  00:58:00     -184.568       82.959      -21.812      154.935      127.992       63.198    24004.935    16381.826     3993.989        4.289        2.219      202.355       79.164        0.153      331.671       -0.165      858.621
12/25/2014  00:59:00     -167.348       84.124      -13.267       82.268       90.233       44.823     6768.008     8142.017     2009.143        2.609        0.846      187.303       37.022        0.039      331.663       -0.179      858.654
12/25/2014  01:00:00     -205.846       75.434      -45.882       96.573       71.640       41.815     9326.422     5132.288     1748.533        3.318        0.810      219.233       42.397        0.037      331.696       -0.123      858.684
12/25/2014  01:01:00     -111.873       33.802      -17.573       49.847       52.373       27.101     2484.769     2742.915      734.486        0.996        0.298      116.868       21.174        0.033      331.750       -0.034      858.709
12/25/2014  01:02:00     -102.750        4.736       -6.751       83.368       47.558       41.906     6950.298     2261.736     1756.091        1.079        0.548      102.859       42.916        0.174      331.737       -0.057      858.728
12/25/2014  01:03:00       -8.642       78.256       -0.699       61.163       72.091       51.278     3740.890     5197.151     2629.398        0.888        0.578       78.731       45.075        0.328      331.722       -0.079      858.746
12/25/2014  01:04:00     -123.078       53.077      -17.658       76.115       42.531       34.984     5793.548     1808.869     1223.901        1.355        0.441      134.035       37.852        0.080      331.725       -0.075      858.777
12/25/2014  01:05:00      -91.984        8.676        3.087       60.509       75.305       34.830     3661.310     5670.822     1213.143        0.954        0.527       92.392       31.050        0.113      331.754       -0.028      858.797
12/25/2014  01:06:00      -62.806       91.492        4.889       61.510       83.274       50.201     3783.522     6934.519     2520.172        1.279        0.662      110.974       43.303        0.152      331.781        0.017      858.809
12/25/2014  01:07:00     -105.140       53.905       -6.391       73.269       76.699       46.403     5368.280     5882.795     2153.272        1.370        0.670      118.153       43.267        0.134      331.776        0.008      858.821
12/25/2014  01:08:00     -190.405      144.378      -46.048       73.494      101.470       45.257     5401.362    10296.139     2048.183        3.848        0.887      238.954       41.804        0.031      331.772       -0.002      858.832
12/25/2014  01:09:00     -110.951       17.690       -7.568       77.462       80.755       46.131     6000.431     6521.301     2128.099        1.366        0.732      112.353       38.485        0.117      331.755       -0.027      858.808
12/25/2014  01:10:00     -140.481       89.369      -17.223       80.566       51.099       40.084     6490.879     2611.147     1606.740        1.936        0.535      166.498       27.054        0.026      331.749       -0.036      858.813
12/25/2014  01:11:00     -134.495       76.638      -22.623       68.924       67.756       43.309     4750.488     4590.856     1875.692        1.784        0.561      154.798       33.809        0.048      331.721       -0.082      858.803
12/25/2014  01:12:00     -122.232       29.325      -13.735       73.426      119.931       40.308     5391.387    14383.554     1624.729        1.869        1.070      125.701       35.662        0.080      331.726       -0.074      858.786
12/25/2014  01:13:00     -114.965       46.278      -11.570       71.030       55.146       53.958     5045.256     3041.111     2911.427        1.324        0.550      123.930       32.655        0.069      331.765       -0.009      858.771
12/25/2014  01:14:00     -149.925      -33.268       -8.494       54.223       59.763       43.273     2940.112     3571.613     1872.539        1.602        0.419      153.572       19.876        0.017      331.755       -0.026      858.765
12/25/2014  01:15:00      -87.621       15.273       -2.463       56.595       93.928       39.441     3202.966     8822.456     1555.591        1.075        0.679       88.942       20.375        0.052      331.718       -0.086      858.762
12/25/2014  01:16:00     -148.889      149.705      -28.102      113.884       93.452       65.724    12969.536     8733.301     4319.640        3.569        1.301      211.138       70.655        0.112      331.816        0.073      858.762
12/25/2014  01:17:00     -109.670      216.502      -13.471       70.869       90.542       57.789     5022.372     8197.863     3339.517        3.782        0.828      242.695       46.121        0.036      331.820        0.080      858.733
12/25/2014  01:18:00     -107.970       18.854       -9.082       69.010       82.511       47.799     4762.396     6808.079     2284.762        1.297        0.693      109.604       40.342        0.135      331.809        0.064      858.736
12/25/2014  01:19:00     -145.196       55.608      -21.213       99.242       91.304       54.355     9848.878     8336.479     2954.454        2.288        1.057      155.481       65.659        0.178      331.773        0.004      858.727
12/25/2014  01:20:00     -101.092       88.925        9.111      105.533      154.566       60.976    11137.218    23890.570     3718.062        2.847        1.937      134.638       52.703        0.153      331.779        0.012      858.733
12/25/2014  01:21:00      -27.013       51.752      -15.704       69.894       74.720       43.047     4885.172     5583.054     1853.083        0.799        0.616       58.378       23.124        0.157      331.830        0.098      858.722
12/25/2014  01:22:00     -215.408       98.875      -33.901      113.183      100.062       50.052    12810.325    10012.327     2505.240        4.132        1.266      237.017       55.206        0.054      331.838        0.110      858.747
12/25/2014  01:23:00      -94.365       33.846       -8.667       66.449       45.610       33.985     4415.462     2080.283     1154.959        0.889        0.383      100.251       31.882        0.101      331.798        0.045      858.757
12/25/2014  01:24:00     -134.434       83.893      -30.326       75.341       77.901       46.182     5676.216     6068.587     2132.822        1.995        0.694      158.463       48.110        0.092      331.806        0.056      858.778
12/25/2014  01:25:00     -127.808       46.393      -30.804       69.668       78.616       34.771     4853.642     6180.531     1208.997        1.584        0.612      135.967       25.837        0.036      331.809        0.063      858.784
12/25/2014  01:26:00     -126.717       41.010      -22.913       70.113       65.112       33.855     4915.878     4239.522     1146.191        1.428        0.515      133.188       22.658        0.029      331.794        0.038      858.808
12/25/2014  01:27:00      -57.505       28.533      -13.583       50.482       54.318       23.084     2548.477     2950.409      532.884        0.517        0.302       64.195       17.921        0.078      331.794        0.039      858.811
12/25/2014  01:28:00     -139.022      102.941      -32.154       63.950       96.494       35.969     4089.577     9311.069     1293.741        2.282        0.735      172.986       32.545        0.035      331.767       -0.008      858.857
12/25/2014  01:29:00     -101.853       16.731       -6.481       84.585       74.991       46.379     7154.542     5623.629     2151.028        1.281        0.746      103.218       50.694        0.241      331.778        0.012      858.895
12/25/2014  01:30:00     -152.770        9.008      -25.379      161.536       97.406       49.608    26093.951     9487.971     2460.944        3.105        1.902      153.035       55.535        0.132      331.794        0.039      858.895
12/25/2014  01:31:00     -129.156       59.555      -12.697      113.682      101.941       52.803    12923.643    10391.942     2788.182        2.324        1.305      142.226       65.120        0.210      331.793        0.036      858.893
12/25/2014  01:32:00      -28.747       38.262       12.517       65.095       82.773       41.354     4237.416     6851.307     1710.171        0.762        0.640       47.858       37.210        0.605      331.817        0.075      858.918
12/25/2014  01:33:00      -79.734       93.247      -18.171       93.565       84.198       45.761     8754.420     7089.271     2094.099        1.666        0.897      122.689       37.240        0.092      331.816        0.074      858.916
12/25/2014  01:34:00      -64.446      -31.980       10.117       93.258       67.547       46.077     8697.104     4562.640     2123.118        1.033        0.769       71.944       41.029        0.325      331.795        0.040      858.912
12/25/2014  01:35:00      -85.283        2.712      -17.573       68.318       34.770       30.605     4667.413     1208.922      936.682        0.720        0.341       85.326       26.391        0.096      331.800        0.049      858.939
12/25/2014  01:36:00     -140.451       24.173      -22.850       70.234       58.626       36.975     4932.845     3437.058     1367.140        1.528        0.487      142.516       35.380        0.062      331.802        0.051      858.962
12/25/2014  01:37:00      -85.936       66.166      -23.127       38.517       51.285       22.282     1483.538     2630.184      496.498        0.845        0.231      108.457       20.278        0.035      331.835        0.106      858.987
12/25/2014  01:38:00      -67.379       32.845       -1.409       80.203       49.800       27.660     6432.453     2480.005      765.078        0.765        0.484       74.958       22.931        0.094      331.823        0.086      858.984
12/25/2014  01:39:00      -16.621      131.955       -3.778       76.496       79.730       40.729     5851.600     6356.931     1658.877        1.578        0.693      132.997       25.601        0.037      331.788        0.029      858.978
12/25/2014  01:40:00      -64.885       41.098        7.831       87.117       57.877       43.648     7589.289     3349.769     1905.182        0.940        0.642       76.806       49.586        0.417      331.804        0.055      858.975
12/25/2014  01:41:00      -88.098        4.560       13.634       54.604       56.410       33.780     2981.622     3182.140     1141.057        0.763        0.365       88.216       28.689        0.106      331.809        0.063      858.951
12/25/2014  01:42:00     -101.273       29.891        5.292       80.838       35.559       38.150     6534.801     1264.433     1455.431        1.021        0.463      105.592       51.443        0.237      331.769       -0.001      858.961
12/25/2014  01:43:00     -122.722      -59.287        2.773       71.994       65.994       32.619     5183.151     4355.249     1064.015        1.459        0.530      136.292       37.836        0.077      331.762       -0.015      858.956
12/25/2014  01:44:00     -156.701      -25.654      -12.560       68.218       61.058       31.771     4653.683     3728.055     1009.372        1.738        0.470      158.787       18.078        0.013      331.732       -0.064      858.954
12/25/2014  01:45:00     -198.381      -38.220      -19.320       68.857       50.870       36.802     4741.272     2587.764     1354.388        2.493        0.434      202.029       29.567        0.021      331.736       -0.057      858.948
12/25/2014  01:46:00     -126.330       24.545      -19.768       50.460       40.698       31.771     2546.227     1656.349     1009.399        1.108        0.261      128.692       24.288        0.036      331.743       -0.045      858.916
12/25/2014  01:47:00     -273.588       24.167      -30.702      131.313       84.195       51.627    17243.093     7088.729     2665.397        5.168        1.350      274.654       55.285        0.041      331.771       -0.002      858.949
12/25/2014  01:48:00     -216.263       65.542      -34.224      188.536      135.065       63.637    35545.738    18242.445     4049.717        5.503        2.892      225.977       74.678        0.109      331.789        0.029      858.937
12/25/2014  01:49:00     -117.321       47.999      -10.171       58.501       64.385       36.448     3422.395     4145.368     1328.453        1.253        0.445      126.760       24.279        0.037      331.758       -0.019      858.954
12/25/2014  01:50:00     -114.276      119.063      -24.379       70.110       56.980       37.124     4915.342     3246.675     1378.185        1.868        0.477      165.030       32.779        0.039      331.762       -0.016      858.935
12/25/2014  01:51:00      -96.825       83.748       -8.128       58.680       65.150       35.936     3443.344     4244.536     1291.398        1.272        0.449      128.019       30.847        0.058      331.758       -0.019      858.918
12/25/2014  01:52:00      -90.766      -26.576       -8.591       70.729       59.818       25.331     5002.554     3578.220      641.660        0.912        0.461       94.577       26.799        0.080      331.753       -0.029      858.886
12/25/2014  01:53:00      -62.573       61.552      -10.758       53.284       81.445       36.402     2839.168     6633.332     1325.081        0.931        0.540       87.772       40.356        0.211      331.730       -0.066      858.867
12/25/2014  01:54:00      -82.536       34.214       11.144       84.997       82.205       53.068     7224.486     6757.712     2816.173        1.245        0.840       89.346       50.871        0.324      331.718       -0.087      858.876
12/25/2014  01:55:00        2.068      105.754      -26.392       59.010       45.161       40.755     3482.230     2039.508     1660.979        0.953        0.359      105.775       34.579        0.107      331.774        0.008      858.910
12/25/2014  01:56:00      -22.706       62.211       -1.625       73.816       50.001       38.291     5448.794     2500.097     1466.214        0.690        0.471       66.225       21.220        0.103      331.760       -0.017      858.899
12/25/2014  01:57:00      -23.462      107.728      -14.768       25.860       33.956       26.189      668.719     1152.978      685.854        0.744        0.125      110.253        9.567        0.008      331.742       -0.047      858.913
12/25/2014  01:58:00       13.797       40.722        4.167       20.732       16.378       17.896      429.835      268.234      320.267        0.144        0.051       42.996       10.844        0.064      331.726       -0.073      858.894
12/25/2014  01:59:00      -66.456       14.557       -5.757       79.479       56.870       28.149     6316.983     3234.188      792.351        0.750        0.517       68.032       34.638        0.259      331.778        0.012      858.910
12/25/2014  02:00:00      -25.165       60.337       -0.626       44.731       33.610       30.876     2000.865     1129.611      953.350        0.418        0.204       65.374       25.797        0.156      331.755       -0.025      858.954
12/25/2014  02:01:00     -110.278      -38.499       -4.968       34.379       41.207       27.422     1181.916     1698.011      751.942        0.865        0.182      116.805       14.172        0.015      331.705       -0.107      858.969
12/25/2014  02:02:00      -85.121      -21.641       -6.291       29.021       23.303       17.064      842.230      543.035      291.181        0.471        0.084       87.829        9.736        0.012      331.686       -0.139      858.969
12/25/2014  02:03:00        1.233       37.731       32.110       27.432       47.339       52.206      752.525     2240.945     2725.493        0.409        0.286       37.752       46.345        1.507      331.721       -0.081      858.924
12/25/2014  02:04:00      -50.850      -21.895       33.659       63.452       72.829       48.861     4026.181     5304.029     2387.385        0.796        0.586       55.364       57.941        1.095      331.761       -0.015      858.912
12/25/2014  02:05:00      -23.694      -38.672       18.708       65.818       38.279       32.746     4331.991     1465.244     1072.321        0.464        0.343       45.353       38.908        0.736      331.708       -0.101      858.959
12/25/2014  02:06:00      -93.006      -59.720        2.878       72.695       49.240       26.678     5284.628     2424.591      711.690        1.032        0.421      110.529       26.536        0.058      331.660       -0.181      858.984
12/25/2014  02:07:00      -82.721      -52.821       -9.408       48.757       39.020       22.267     2377.275     1522.525      495.811        0.706        0.220       98.147       12.572        0.016      331.619       -0.250      858.988
12/25/2014  02:08:00      -19.489      -35.412        2.124       21.623       19.847       17.497      467.569      393.914      306.138        0.140        0.058       40.421       11.977        0.088      331.660       -0.181      858.991
12/25/2014  02:09:00      -28.410       27.729        4.744       31.061       30.105       15.248      964.780      906.326      232.516        0.185        0.105       39.699       14.028        0.125      331.590       -0.296      859.009
12/25/2014  02:10:00      -10.242       16.466        6.740       45.659       30.612       20.362     2084.768      937.087      414.622        0.193        0.172       19.391       24.900        1.649      331.517       -0.418      859.005
12/25/2014  02:11:00      -30.030      -47.540        9.445       59.024       36.303       27.258     3483.889     1317.884      742.988        0.440        0.277       56.231       30.758        0.299      331.619       -0.250      858.992
12/25/2014  02:12:00      -14.483       -6.544       13.181      105.760       64.536       38.485    11185.162     4164.928     1481.097        0.863        0.842       15.893       57.472       13.077      331.595       -0.290      859.002
12/25/2014  02:13:00        5.237       86.061       35.814       61.618       51.998       58.147     3796.737     2703.823     3381.118        0.930        0.494       86.220       17.289        0.040      331.613       -0.259      858.989
12/25/2014  02:14:00      -65.382       48.615       -8.004       45.688       49.836       30.660     2087.419     2483.655      940.031        0.611        0.276       81.475       28.452        0.122      331.569       -0.331      859.036
12/25/2014  02:15:00      -49.501      -49.080       -7.481       40.478       22.156       23.124     1638.458      490.900      534.732        0.379        0.133       69.707       17.617        0.064      331.673       -0.158      859.067
12/25/2014  02:16:00        0.874      -59.765       -1.478       34.589       36.406       23.187     1196.374     1325.372      537.650        0.332        0.153       59.771       17.100        0.082      331.709       -0.101      859.074
12/25/2014  02:17:00      -56.922      -56.250        3.105       58.694       32.751       24.917     3444.992     1072.651      620.847        0.578        0.257       80.026       30.724        0.147      331.720       -0.082      859.088
12/25/2014  02:18:00     -112.888      -94.526        1.551       40.492       43.294       27.475     1639.607     1874.365      754.893        1.297        0.213      147.237       14.096        0.009      331.614       -0.257      859.104
12/25/2014  02:19:00     -108.824      -12.973      -11.864       23.923       35.101       22.844      572.299     1232.052      521.834        0.724        0.116      109.594       21.199        0.037      331.597       -0.285      859.130
12/25/2014  02:20:00      -67.617      -35.835        6.379       37.019       48.528       21.576     1370.436     2355.001      465.505        0.504        0.210       76.526       20.485        0.072      331.589       -0.299      859.138
12/25/2014  02:21:00        4.918      -64.812      -10.518       51.543       45.049       21.958     2656.650     2029.409      482.146        0.475        0.258       64.999       21.916        0.114      331.707       -0.103      859.132
12/25/2014  02:22:00      -41.318      -39.177       -1.337       45.026       30.960       17.025     2027.333      958.542      289.852        0.326        0.164       56.938        9.700        0.029      331.670       -0.166      859.151
12/25/2014  02:23:00      -53.320      -15.563       -0.491       41.406       36.463       18.842     1714.439     1329.528      355.011        0.324        0.170       55.545       18.474        0.111      331.565       -0.338      859.162
12/25/2014  02:24:00      -29.192      -29.839        9.762       43.053       21.214       20.641     1853.568      450.022      426.053        0.228        0.136       41.744       24.054        0.332      331.605       -0.271      859.162
12/25/2014  02:25:00      -15.691      -34.313       12.579       36.437       36.433       21.625     1327.634     1327.385      467.624        0.235        0.156       37.731       20.844        0.305      331.628       -0.234      859.184
12/25/2014  02:26:00      -28.148      -52.358       -2.977       17.352       24.241       14.698      301.109      587.621      216.028        0.232        0.055       59.445        8.013        0.018      331.621       -0.246      859.188
12/25/2014  02:27:00      -21.670      -50.868       -0.943       25.167       24.507       17.167      633.377      600.602      294.699        0.229        0.076       55.291       13.878        0.063      331.701       -0.113      859.188
12/25/2014  02:28:00      -48.901      -56.417       -3.553       28.560       29.742       22.900      815.679      884.616      524.395        0.391        0.111       74.660       14.084        0.036      331.672       -0.163      859.174
12/25/2014  02:29:00      -32.534      -37.533       -5.480       26.690       31.681       16.123      712.340     1003.676      259.965        0.224        0.099       49.671       12.964        0.068      331.698       -0.118      859.168
12/25/2014  02:30:00      -75.182      -44.107       -7.563       37.129       29.668       16.852     1378.554      880.201      283.985        0.510        0.127       87.165        9.431        0.012      331.709       -0.101      859.162
12/25/2014  02:31:00     -129.429     -101.190       -3.200       39.796       42.582       24.740     1583.722     1813.221      612.075        1.550        0.200      164.290       19.723        0.014      331.622       -0.244      859.157
12/25/2014  02:32:00     -149.586      -98.942       -5.882       62.396       66.194       33.765     3893.263     4381.616     1140.044        2.081        0.471      179.347       29.601        0.027      331.670       -0.168      859.156
12/25/2014  02:33:00     -113.425     -145.907       -0.324       85.674       53.137       35.419     7340.009     2823.572     1254.530        2.278        0.571      184.808       38.249        0.043      331.581       -0.313      859.139
12/25/2014  02:34:00     -124.837     -137.152        6.644       99.658       71.187       45.284     9931.626     5067.598     2050.651        2.574        0.852      185.458       47.369        0.065      331.632       -0.229      859.124
12/25/2014  02:35:00     -133.965     -181.958       -6.658       68.397       65.904       44.305     4678.103     4343.291     1962.976        3.104        0.549      225.954       37.864        0.028      331.594       -0.295      859.127
12/25/2014  02:36:00      -78.553      -72.420       -9.491       48.461       87.551       35.539     2348.421     7665.113     1263.011        1.139        0.564      106.842       28.564        0.071      331.669       -0.167      859.158
12/25/2014  02:37:00      -80.406      -70.047        2.351       46.597       68.758       31.011     2171.254     4727.716      961.696        0.962        0.393      106.638       27.936        0.069      331.665       -0.172      859.185
12/25/2014  02:38:00      -25.188      -54.720        8.707       83.561       50.983       42.845     6982.472     2599.237     1835.669        0.756        0.571       60.239       45.384        0.568      331.639       -0.216      859.194
12/25/2014  02:39:00      -13.392       16.471       15.111       43.435       72.753       43.577     1886.557     5293.020     1898.940        0.488        0.454       21.228       25.616        1.456      331.589       -0.298      859.232
12/25/2014  02:40:00       36.748      107.102      -10.877       49.142       41.730       21.239     2414.923     1741.392      451.093        0.877        0.230      113.231       18.131        0.026      331.550       -0.363      859.267
12/25/2014  02:41:00       33.370       62.670      -15.504       28.298       28.019       16.356      800.765      785.059      267.528        0.357        0.093       71.001        9.969        0.020      331.574       -0.325      859.272
12/25/2014  02:42:00       84.071       44.414       -3.328       35.951       32.371       18.208     1292.481     1047.903      331.525        0.586        0.134       95.081       16.975        0.032      331.587       -0.302      859.271
12/25/2014  02:43:00       62.974      133.433      -21.849       66.996      105.055       38.338     4488.473    11036.579     1469.790        1.962        0.850      147.547       47.572        0.104      331.622       -0.245      859.269
12/25/2014  02:44:00       77.943      106.514        2.303      101.108       66.624       46.347    10222.798     4438.819     2148.052        1.711        0.840      131.986       39.303        0.089      331.550       -0.364      859.242
12/25/2014  02:45:00      106.745      107.797        4.028       91.509       53.188       38.272     8373.813     2829.012     1464.756        1.785        0.633      151.706       14.432        0.009      331.555       -0.356      859.238
12/25/2014  02:46:00       52.907       50.094        1.599       48.858       35.447       22.898     2387.062     1256.480      524.332        0.474        0.208       72.860        9.376        0.017      331.590       -0.297      859.258
12/25/2014  02:47:00       74.638       73.714       -4.638       45.793       38.681       35.680     2096.996     1496.247     1273.084        0.795        0.243      104.903       22.890        0.048      331.590       -0.297      859.269
12/25/2014  02:48:00       23.916       12.127       10.687       29.135       28.714       19.082      848.850      824.494      364.138        0.143        0.102       26.815       14.142        0.278      331.568       -0.332      859.264
12/25/2014  02:49:00       41.302       41.332       27.654       40.687       35.917       36.143     1655.399     1290.051     1306.303        0.421        0.213       58.431       28.411        0.236      331.547       -0.368      859.245
12/25/2014  02:50:00       -2.421       46.569       61.397       22.045       29.507       24.068      485.999      870.685      579.282        0.394        0.097       46.632       21.844        0.219      331.611       -0.261      859.254
12/25/2014  02:51:00       37.479       30.665       32.815       43.222       35.369       24.186     1868.119     1250.983      584.971        0.356        0.185       48.425       20.689        0.183      331.628       -0.233      859.275
12/25/2014  02:52:00        3.131        7.852       13.414        7.932       21.918       11.484       62.920      480.382      131.873        0.046        0.034        8.453       11.919        1.988      331.627       -0.235      859.292
12/25/2014  02:53:00       72.360       60.632       14.806       28.402       28.038       20.588      806.686      786.105      423.867        0.557        0.101       94.405       12.263        0.017      331.632       -0.227      859.323
12/25/2014  02:54:00       36.550       30.728       49.898       43.287       36.809       28.158     1873.787     1354.903      792.892        0.439        0.201       47.751       19.263        0.163      331.680       -0.149      859.307
12/25/2014  02:55:00       27.037       59.780       65.919       30.171       40.507       23.526      910.266     1640.786      553.458        0.588        0.155       65.610       21.888        0.111      331.765       -0.008      859.298
12/25/2014  02:56:00       58.007       45.514       10.284       27.659       20.349       15.368      765.011      414.097      236.167        0.348        0.071       73.731        8.837        0.014      331.754       -0.029      859.300
12/25/2014  02:57:00       59.427       47.148        5.264       21.221       21.232       19.071      450.317      450.794      363.712        0.352        0.063       75.859       15.304        0.041      331.757       -0.023      859.318
12/25/2014  02:58:00       28.905       14.794      -13.428       14.512       42.825       11.116      210.590     1833.988      123.573        0.170        0.108       32.471        5.217        0.026      331.724       -0.075      859.328
12/25/2014  02:59:00       35.696      -29.650        2.556       34.555       35.712       22.559     1194.019     1275.333      508.903        0.257        0.149       46.404       24.078        0.269      331.796        0.043      859.291
12/25/2014  03:00:00       49.960      -73.871       -1.791       19.162       19.436       15.816      367.184      377.742      250.158        0.448        0.050       89.179        9.889        0.012      331.827        0.094      859.259
12/25/2014  03:01:00       69.627      -15.521        5.780       37.607       26.843       23.566     1414.305      720.564      555.361        0.391        0.135       71.336       10.778        0.023      331.699       -0.114      859.266
12/25/2014  03:02:00      -13.223       56.610      -13.022       28.753       36.767       13.362      826.760     1351.798      178.555        0.295        0.118       58.134       11.515        0.039      331.717       -0.089      859.288
12/25/2014  03:03:00      -45.850        9.238       -6.670       27.356       30.155        7.792      748.354      909.309       60.708        0.197        0.086       46.771       12.154        0.068      331.714       -0.093      859.293
12/25/2014  03:04:00      -49.493       20.627       -1.665       32.861       36.611       12.239     1079.871     1340.386      149.802        0.272        0.129       53.619        7.759        0.021      331.737       -0.056      859.304
12/25/2014  03:05:00     -100.517       37.071      -16.491       47.427       23.980       17.697     2249.340      575.041      313.200        0.744        0.157      107.135       14.148        0.017      331.681       -0.147      859.338
12/25/2014  03:06:00      -88.317        1.315       -5.342       71.725       76.255       38.241     5144.531     5814.878     1462.395        1.012        0.621       88.327       38.287        0.188      331.723       -0.077      859.294
12/25/2014  03:07:00     -265.956      -39.877      -38.734       61.461       69.572       40.072     3777.464     4840.254     1605.742        4.202        0.511      268.928       28.316        0.011      331.813        0.067      859.275
12/25/2014  03:08:00     -107.805      -36.845       16.727      109.041       71.181       41.427    11890.012     5066.727     1716.219        1.596        0.934      113.927       54.106        0.226      331.781        0.017      859.227
12/25/2014  03:09:00     -138.998       45.206      -24.795       61.487       65.292       33.068     3780.660     4263.046     1093.502        1.556        0.457      146.164       23.222        0.025      331.840        0.114      859.267
12/25/2014  03:10:00     -174.068      162.254      -47.665       62.007       74.881       34.984     3844.900     5607.132     1223.884        3.478        0.534      237.962       33.104        0.019      331.824        0.086      859.263
12/25/2014  03:11:00     -122.830       83.315      -29.976       84.572       74.642       42.116     7152.425     5571.395     1773.764        1.871        0.725      148.421       48.621        0.107      331.817        0.075      859.235
12/25/2014  03:12:00      -46.223      190.241      -14.128       77.243       74.717       42.953     5966.480     5582.564     1844.998        2.596        0.670      195.775       43.997        0.051      331.831        0.097      859.222
12/25/2014  03:13:00      -21.759      135.606      -18.379       63.460       76.114       35.095     4027.141     5793.274     1231.630        1.512        0.553      137.341       40.372        0.086      331.871        0.165      859.223
12/25/2014  03:14:00      -22.834      141.077      -19.660       65.547       66.037       35.997     4296.367     4360.942     1295.792        1.538        0.498      142.913       38.589        0.073      331.894        0.202      859.203
12/25/2014  03:15:00       -1.650      132.361      -21.211       33.203       44.291       22.103     1102.444     1961.717      488.535        1.076        0.178      132.372       20.510        0.024      331.824        0.086      859.206
12/25/2014  03:16:00      -34.577      161.772      -26.855       61.076       69.975       25.226     3730.268     4896.535      636.361        1.867        0.463      165.426       26.040        0.025      331.865        0.154      859.217
12/25/2014  03:17:00      -33.474      200.327      -19.167       42.747       57.042       32.795     1827.344     3253.767     1075.510        2.389        0.308      203.105       31.987        0.025      331.810        0.061      859.213
12/25/2014  03:18:00      -24.006      208.911      -23.640       35.031       49.166       23.928     1227.181     2417.318      572.532        2.450        0.211      210.285       22.559        0.012      331.830        0.097      859.211
12/25/2014  03:19:00      -11.204      174.458      -16.247       33.671       53.668       29.165     1133.719     2880.207      850.595        1.784        0.243      174.817       24.567        0.020      331.803        0.051      859.208
12/25/2014  03:20:00      -69.896      199.568      -32.069       47.411       68.613       21.116     2247.769     4707.722      445.866        2.657        0.370      211.454       12.902        0.004      331.881        0.179      859.223
12/25/2014  03:21:00      -45.612      198.582      -25.057       55.210       57.593       30.544     3048.098     3316.976      932.952        2.472        0.365      203.753       33.464        0.027      331.867        0.157      859.228
12/25/2014  03:22:00      -75.707      160.811      -13.894       67.713       59.106       36.556     4585.067     3493.574     1336.362        2.060        0.471      177.740       29.887        0.028      331.853        0.135      859.169
12/25/2014  03:23:00      -79.151      163.618      -34.197       68.919       43.885       25.975     4749.795     1925.880      674.695        2.078        0.368      181.758       22.249        0.015      331.858        0.144      859.180
12/25/2014  03:24:00       -5.499      112.929      -14.465       23.302       38.884       16.790      542.964     1511.985      281.905        0.766        0.117      113.063       12.672        0.013      331.797        0.042      859.163
12/25/2014  03:25:00       14.804       33.358      -10.734       25.233       58.797       19.779      636.711     3457.118      391.214        0.297        0.224       36.496       17.042        0.218      331.751       -0.033      859.117
12/25/2014  03:26:00       16.638       96.788        4.770       25.827       40.224       28.607      667.056     1617.964      818.339        0.638        0.155       98.207       25.634        0.068      331.722       -0.077      859.088
12/25/2014  03:27:00       12.223      184.045      -30.177       46.689       50.467       20.296     2179.898     2546.877      411.936        2.003        0.257      184.450       20.662        0.013      331.738       -0.054      859.088
12/25/2014  03:28:00      -22.105      251.085      -23.206      112.171      170.362       63.220    12582.321    29023.229     3996.791        5.483        2.280      252.056       83.030        0.109      331.819        0.079      859.069
12/25/2014  03:29:00      -87.502      241.990      -30.537       51.693       54.415       32.325     2672.135     2960.955     1044.908        3.691        0.334      257.325       25.882        0.010      331.875        0.168      859.060
12/25/2014  03:30:00      -77.639      149.638      -18.708       54.932       52.957       29.774     3017.475     2804.402      886.515        1.774        0.335      168.581       29.254        0.030      331.847        0.125      859.049
12/25/2014  03:31:00      -36.034      123.857      -10.604       52.750       42.525       27.512     2782.592     1808.378      756.891        1.105        0.267      128.992       25.362        0.039      331.891        0.199      859.039
12/25/2014  03:32:00      -68.050       59.091      -13.821       35.140       30.685       27.279     1234.850      941.562      744.141        0.562        0.146       90.125       20.360        0.051      331.828        0.094      859.035
12/25/2014  03:33:00      -28.630      109.228      -12.839       59.929       64.289       27.059     3591.542     4133.025      732.189        1.068        0.423      112.918       20.052        0.032      331.828        0.094      859.015
12/25/2014  03:34:00        0.267      139.520       -8.781       28.378       61.241       29.869      805.301     3750.435      892.183        1.249        0.272      139.521       36.661        0.069      331.793        0.036      859.002
12/25/2014  03:35:00       25.799      162.524       -3.588       59.564       96.165       48.078     3547.813     9247.735     2311.538        2.110        0.755      164.559       55.575        0.114      331.812        0.066      859.002
12/25/2014  03:36:00      -28.732      157.275      -27.517       27.973       47.058       18.756      782.470     2214.452      351.795        1.483        0.167      159.878       20.427        0.016      331.823        0.086      859.005
12/25/2014  03:37:00      -19.164      195.711      -27.128       31.972       51.594       19.667     1022.193     2661.908      386.772        2.174        0.204      196.647       11.939        0.004      331.810        0.063      859.004
12/25/2014  03:38:00      -50.833       90.899       -9.130       40.057       75.834       26.688     1604.575     5750.765      712.257        0.950        0.403      104.147       31.061        0.089      331.847        0.126      859.017
12/25/2014  03:39:00      -23.622       11.576        2.829       30.536       30.345       14.725      932.449      920.805      216.812        0.138        0.104       26.307       18.729        0.507      331.879        0.178      859.003
12/25/2014  03:40:00     -106.435        5.661       -6.930       41.967       38.238       23.369     1761.266     1462.139      546.088        0.759        0.188      106.585       19.411        0.033      331.814        0.073      858.986
12/25/2014  03:41:00     -100.162       14.768      -16.260       37.823       62.512       25.178     1430.610     3907.732      633.956        0.824        0.299      101.245       29.152        0.083      331.766       -0.009      858.972
12/25/2014  03:42:00      -89.988       -7.337      -11.158       61.744       67.257       36.983     3812.368     4523.551     1367.768        0.899        0.485       90.286       38.323        0.180      331.806        0.058      858.962
12/25/2014  03:43:00     -172.435      120.507      -39.616       52.602       64.120       35.237     2766.959     4111.392     1241.679        2.697        0.406      210.371       43.097        0.042      331.746       -0.043      858.964
12/25/2014  03:44:00      -53.691       97.242      -10.586       56.113       63.876       29.252     3148.677     4080.193      855.696        1.027        0.404      111.079       32.547        0.086      331.777        0.009      858.937
12/25/2014  03:45:00      -37.795      100.244      -33.311       39.034       64.987       26.818     1523.638     4223.284      719.225        0.953        0.323      107.132       12.379        0.013      331.859        0.143      858.909
12/25/2014  03:46:00       -7.102       82.463       -7.919       40.818       43.210       26.242     1666.105     1867.108      688.622        0.557        0.211       82.768       20.286        0.060      331.802        0.052      858.898
12/25/2014  03:47:00        8.694      196.659      -18.485       45.367       64.708       31.935     2058.195     4187.119     1019.847        2.318        0.363      196.851       33.604        0.029      331.723       -0.079      858.887
12/25/2014  03:48:00      -20.692      207.781      -34.935       22.562       28.444       17.174      509.060      809.068      294.950        2.322        0.081      208.808        6.539        0.001      331.739       -0.052      858.892
12/25/2014  03:49:00      -16.170      140.274      -16.557       34.363       45.030       24.516     1180.811     2027.697      601.044        1.201        0.190      141.203       23.496        0.028      331.752       -0.029      858.896
12/25/2014  03:50:00       -8.772      185.694      -23.257       28.855       39.251       19.950      832.600     1540.654      398.017        1.894        0.139      185.901       10.922        0.003      331.701       -0.114      858.905
12/25/2014  03:51:00      -14.104      188.765      -28.046       31.525       62.402       24.922      993.835     3893.967      621.110        2.106        0.275      189.291       24.744        0.017      331.743       -0.047      858.893
12/25/2014  03:52:00       22.072      188.247      -21.037       71.702       57.803       39.246     5141.246     3341.167     1540.217        2.319        0.501      189.537       34.946        0.034      331.734       -0.062      858.887
12/25/2014  03:53:00      -42.318      201.313      -22.492       55.662       78.323       43.066     3098.210     6134.504     1854.687        2.695        0.554      205.713       44.346        0.046      331.763       -0.014      858.877
12/25/2014  03:54:00     -105.013      188.450      -28.698       55.886       64.267       35.038     3123.201     4130.274     1227.684        2.792        0.424      215.734       33.619        0.024      331.842        0.116      858.858
12/25/2014  03:55:00      -93.688      114.954      -29.115       40.036       40.140       25.641     1602.892     1611.257      657.483        1.335        0.194      148.297       18.921        0.016      331.777        0.010      858.831
12/25/2014  03:56:00      -52.723      107.715       -8.780       47.298       54.796       32.075     2237.059     3002.550     1028.797        1.036        0.313      119.926       25.731        0.046      331.835        0.106      858.805
12/25/2014  03:57:00     -102.138      138.441      -26.492       60.687       76.858       31.903     3682.888     5907.141     1017.810        2.045        0.530      172.040       23.150        0.018      331.826        0.089      858.787
12/25/2014  03:58:00     -188.327      -36.044      -14.571       70.909      110.576       38.058     5028.105    12227.096     1448.434        2.784        0.935      191.745       18.209        0.009      331.758       -0.022      858.767
12/25/2014  03:59:00      -42.519      198.119      -15.372       77.614      112.822       57.136     6023.974    12728.727     3264.564        3.165        1.101      202.630       63.568        0.098      331.789        0.029      858.745
12/25/2014  04:00:00      -98.901       35.956       -4.490       45.492       70.584       41.464     2069.514     4982.134     1719.266        0.993        0.439      105.234       24.539        0.054      331.768       -0.003      858.740
12/25/2014  04:01:00      -76.703      162.997      -21.067       58.947       83.082       34.003     3474.700     6902.593     1156.171        2.221        0.577      180.143       33.055        0.034      331.750       -0.035      858.763
12/25/2014  04:02:00     -119.032       63.392      -18.741       44.645       70.717       27.903     1993.173     5000.904      778.583        1.315        0.389      134.860       11.801        0.008      331.750       -0.033      858.761
12/25/2014  04:03:00      -96.709       19.792      -13.198       49.699       74.379       24.570     2470.028     5532.178      603.695        0.926        0.430       98.713       25.088        0.065      331.707       -0.104      858.761
12/25/2014  04:04:00      -93.966       37.811       -9.773       45.782       35.566       24.023     2095.979     1264.967      577.093        0.715        0.197      101.288       20.694        0.042      331.687       -0.136      858.738
12/25/2014  04:05:00     -170.349      -22.674      -13.004       48.281       47.252       26.776     2331.011     2232.750      716.958        1.749        0.264      171.851       24.423        0.020      331.661       -0.178      858.724
12/25/2014  04:06:00     -123.443      -30.604        1.192       50.472       70.929       39.500     2547.440     5030.952     1560.241        1.266        0.457      127.181       19.879        0.024      331.664       -0.174      858.734
12/25/2014  04:07:00     -153.068       99.680      -29.958       55.532       79.663       37.972     3083.804     6346.142     1441.872        2.257        0.544      182.664       40.349        0.049      331.690       -0.132      858.760
12/25/2014  04:08:00     -108.249      120.020      -26.575       40.736       63.726       26.603     1659.425     4060.979      707.711        1.663        0.321      161.625       18.747        0.013      331.711       -0.099      858.793
12/25/2014  04:09:00     -130.349       68.512      -12.512       50.255       87.064       36.152     2525.606     7580.066     1306.999        1.662        0.571      147.258       32.380        0.048      331.694       -0.127      858.806
12/25/2014  04:10:00     -153.376       65.492      -23.150       39.075       57.076       40.547     1526.876     3257.701     1644.019        1.739        0.321      166.774       24.070        0.021      331.647       -0.203      858.825
12/25/2014  04:11:00     -101.205       47.365      -20.987       42.516       51.630       26.151     1807.639     2665.695      683.872        0.904        0.258      111.740       11.086        0.010      331.643       -0.211      858.847
12/25/2014  04:12:00      -70.045       51.875       -3.276       46.001       55.648       29.452     2116.119     3096.726      867.399        0.684        0.304       87.162       23.211        0.071      331.732       -0.064      858.871
12/25/2014  04:13:00     -112.856       18.997      -19.057       48.974       40.553       22.929     2398.430     1644.512      525.726        0.901        0.228      114.444       21.865        0.037      331.667       -0.169      858.887
12/25/2014  04:14:00      -82.352       23.844        2.144       53.362       34.762       32.514     2847.544     1208.409     1057.175        0.623        0.256       85.734       26.266        0.094      331.647       -0.202      858.862
12/25/2014  04:15:00      -25.380       30.946      -12.952       41.516       42.682       25.280     1723.559     1821.725      639.103        0.298        0.209       40.023       19.964        0.249      331.723       -0.076      858.865
12/25/2014  04:16:00     -148.024       34.298      -19.074       84.586       42.496       27.763     7154.794     1805.888      770.788        1.659        0.487      151.946       33.292        0.048      331.702       -0.112      858.862
12/25/2014  04:17:00      -82.266      109.333      -10.964       76.099       94.250       45.209     5791.046     8883.043     2043.825        1.778        0.836      136.826       46.789        0.117      331.703       -0.112      858.863
12/25/2014  04:18:00     -116.888      233.916      -30.959       61.563       73.281       38.512     3789.972     5370.089     1483.184        3.999        0.532      261.495       32.877        0.016      331.682       -0.149      858.850
12/25/2014  04:19:00     -123.307      146.967      -29.619       54.721       68.040       39.719     2994.427     4629.452     1577.618        2.344        0.460      191.844       34.322        0.032      331.671       -0.165      858.845
12/25/2014  04:20:00     -129.321      113.403      -31.657       62.313       55.548       40.881     3882.933     3085.538     1671.217        1.961        0.432      172.000       42.601        0.061      331.637       -0.221      858.853
12/25/2014  04:21:00     -117.059      189.289      -32.794       61.369       82.046       41.383     3766.168     6731.517     1712.514        3.141        0.611      222.560       44.634        0.040      331.625       -0.243      858.880
12/25/2014  04:22:00     -113.075      133.760      -16.345       69.021       62.900       42.690     4763.832     3956.426     1822.463        2.074        0.527      175.150       50.318        0.083      331.652       -0.196      858.886
12/25/2014  04:23:00     -144.060      171.795      -43.424       57.851       60.034       34.406     3346.734     3604.125     1183.797        3.014        0.407      224.203       36.871        0.027      331.604       -0.277      858.894
12/25/2014  04:24:00     -114.345       98.834      -33.878       29.550       36.605       20.646      873.186     1339.963      426.241        1.331        0.132      151.138       15.421        0.010      331.600       -0.281      858.873
12/25/2014  04:25:00      -99.479       74.759      -15.160       29.988       55.010       24.650      899.282     3026.116      607.605        1.012        0.227      124.439       25.199        0.041      331.574       -0.325      858.870
12/25/2014  04:26:00      -73.188       42.864       -7.760       26.456       27.022       17.612      699.944      730.188      310.174        0.450        0.087       84.816       10.147        0.014      331.572       -0.327      858.837
12/25/2014  04:27:00      -76.573       46.202       -9.708       42.094       22.141       24.689     1771.933      490.226      609.548        0.548        0.144       89.432       16.562        0.034      331.576       -0.320      858.799
12/25/2014  04:28:00      -74.532       28.323        1.485       37.723       24.371       26.091     1423.037      593.941      680.752        0.453        0.135       79.732       22.841        0.082      331.588       -0.300      858.762
12/25/2014  04:29:00     -115.994       61.161      -26.518       72.871       57.562       33.664     5310.202     3313.397     1133.250        1.383        0.488      131.130       31.775        0.059      331.702       -0.114      858.758
12/25/2014  04:30:00      -42.481       92.339       -0.756       62.380       75.788       42.291     3891.309     5743.800     1788.538        1.088        0.571      101.642       52.678        0.269      331.666       -0.173      858.739
12/25/2014  04:31:00      -42.385      148.117      -13.831       39.942       67.974       38.379     1595.347     4620.405     1472.924        1.581        0.384      154.062       28.799        0.035      331.717       -0.088      858.714
12/25/2014  04:32:00      -55.025      198.533      -31.559       54.653       51.749       32.685     2986.990     2677.964     1068.311        2.508        0.337      206.017       25.970        0.016      331.668       -0.171      858.705
12/25/2014  04:33:00      -21.367      199.163      -16.803       54.835      109.341       35.982     3006.853    11955.541     1294.726        2.833        0.813      200.306       44.534        0.049      331.659       -0.185      858.689
12/25/2014  04:34:00     -128.863       91.852      -16.198       56.430      105.492       40.104     3184.328    11128.558     1608.308        2.061        0.796      158.248       28.471        0.032      331.697       -0.122      858.679
12/25/2014  04:35:00     -103.513      100.630      -20.898       62.812       50.768       33.874     3945.291     2577.389     1147.477        1.447        0.384      144.365       32.404        0.050      331.631       -0.229      858.696
12/25/2014  04:36:00      -83.826       53.969      -11.133       36.347       33.940       19.496     1321.120     1151.904      380.086        0.646        0.143       99.697       12.851        0.017      331.627       -0.235      858.714
12/25/2014  04:37:00     -123.666      136.966      -39.456       35.066       46.265       20.716     1229.618     2140.452      429.140        1.970        0.190      184.535       18.213        0.010      331.685       -0.143      858.722
12/25/2014  04:38:00      -27.840      123.895       -6.935       46.395       49.682       27.304     2152.476     2468.267      745.481        1.077        0.268      126.984       23.231        0.033      331.665       -0.173      858.730
12/25/2014  04:39:00      -51.599       94.702       -5.561       50.496       43.648       34.160     2549.879     1905.190     1166.877        0.864        0.281      107.847       30.665        0.081      331.663       -0.176      858.726
12/25/2014  04:40:00       23.332       97.335       -1.272       32.741       45.217       31.973     1072.005     2044.593     1022.283        0.708        0.207      100.093       31.886        0.101      331.591       -0.294      858.715
12/25/2014  04:41:00        3.749      168.654      -17.573       30.853       34.807       22.939      951.904     1211.547      526.180        1.573        0.134      168.695       20.727        0.015      331.641       -0.213      858.711
12/25/2014  04:42:00      -11.654      123.736      -21.563       27.421       33.425       12.637      751.934     1117.218      159.692        0.897        0.101      124.284       12.770        0.011      331.716       -0.089      858.704
12/25/2014  04:43:00      -36.725       21.920       -3.845       26.246       35.420       18.983      688.854     1254.604      360.358        0.207        0.115       42.770       17.195        0.162      331.748       -0.038      858.696
12/25/2014  04:44:00      -23.337       49.155       -9.375       26.074       25.532       14.165      679.868      651.880      200.650        0.229        0.077       54.414       10.499        0.037      331.716       -0.090      858.696
12/25/2014  04:45:00       11.850       39.157        5.524       21.853       18.295       16.677      477.556      334.701      278.123        0.140        0.055       40.911       14.664        0.128      331.600       -0.281      858.695
12/25/2014  04:46:00      -25.471       13.804       -2.621       34.691       19.219       16.795     1203.480      369.356      282.086        0.135        0.093       28.971       15.244        0.277      331.511       -0.426      858.697
12/25/2014  04:47:00      -41.115      -37.355       -3.066       28.922       19.976       10.997      836.499      399.027      120.930        0.223        0.068       55.551       13.537        0.059      331.637       -0.220      858.698
12/25/2014  04:48:00      -27.002      -18.163       -6.238       20.676       14.218        9.142      427.485      202.160       83.582        0.091        0.036       32.543        9.112        0.078      331.737       -0.057      858.705
12/25/2014  04:49:00      -47.043      -29.156       -6.740       14.205       10.599       12.429      201.789      112.344      154.488        0.179        0.023       55.346        6.813        0.015      331.741       -0.047      858.720
12/25/2014  04:50:00      -54.843      -16.818       -2.864       12.559       14.725       12.512      157.718      216.837      156.562        0.191        0.027       57.364        7.806        0.019      331.727       -0.071      858.742
12/25/2014  04:51:00      -41.193      -45.015        0.810       36.374       25.986       23.939     1323.099      675.271      573.055        0.315        0.129       61.018       20.529        0.113      331.697       -0.121      858.752
12/25/2014  04:52:00      -96.262      -64.907       -0.112       56.532       33.788       26.643     3195.870     1141.599      709.867        0.926        0.252      116.100       27.137        0.055      331.662       -0.179      858.763
12/25/2014  04:53:00      -99.966      -82.237       -0.841       54.466       41.541       28.927     2966.538     1725.657      836.798        1.114        0.276      129.446       25.624        0.039      331.647       -0.203      858.763
12/25/2014  04:54:00     -162.315      -95.149       -2.943       40.676       32.711       20.906     1654.575     1069.997      437.076        1.928        0.158      188.148       17.064        0.008      331.646       -0.206      858.751
12/25/2014  04:55:00     -132.003     -103.945       -8.940       53.829       37.129       28.540     2897.586     1378.541      814.537        1.670        0.255      168.016       29.131        0.030      331.578       -0.317      858.739
12/25/2014  04:56:00     -118.625     -102.355       -0.548       46.189       43.105       29.306     2133.403     1858.016      858.855        1.470        0.243      156.680       28.930        0.034      331.627       -0.235      858.732
12/25/2014  04:57:00     -148.257      -99.402        1.648       81.944       53.918       33.117     6714.791     2907.135     1096.731        2.129        0.536      178.497       40.705        0.052      331.582       -0.311      858.738
12/25/2014  04:58:00     -169.410      -18.240       -9.362       92.192       89.313       37.971     8499.435     7976.887     1441.787        2.352        0.896      170.390       42.909        0.063      331.578       -0.318      858.765
12/25/2014  04:59:00     -178.538      -56.795        1.590       93.484      127.946       44.065     8739.238    16370.063     1941.729        3.107        1.353      187.354       43.947        0.055      331.522       -0.412      858.773
12/25/2014  05:00:00     -279.224     -100.218      -20.515       73.667       88.075       43.429     5426.832     7757.162     1886.112        5.175        0.754      296.664       32.624        0.012      331.536       -0.390      858.810
12/25/2014  05:01:00     -176.827      -31.334      -18.362       60.633       91.573       30.195     3676.414     8385.590      911.744        2.278        0.649      179.582       23.779        0.018      331.613       -0.261      858.843
12/25/2014  05:02:00     -190.490      -56.321      -16.963       58.398       51.204       38.453     3410.375     2621.857     1478.613        2.363        0.376      198.641       36.618        0.034      331.506       -0.439      858.826
12/25/2014  05:03:00      -96.169      -47.462        1.585       54.568       48.787       31.150     2977.678     2380.217      970.347        0.891        0.316      107.243       32.082        0.089      331.430       -0.560      858.830
12/25/2014  05:04:00     -136.465      -61.206       -2.630       41.493       33.420       25.204     1721.707     1116.886      635.236        1.292        0.174      149.563       24.009        0.026      331.484       -0.471      858.856
12/25/2014  05:05:00      -30.976      -34.363        2.128       37.652       42.296       27.155     1417.659     1788.980      737.392        0.304        0.197       46.264       28.555        0.381      331.486       -0.468      858.865
12/25/2014  05:06:00      -90.639      -75.515       -4.847       38.346       41.448       29.250     1470.442     1717.929      855.577        0.899        0.202      117.975       21.580        0.033      331.519       -0.416      858.872
12/25/2014  05:07:00      -81.514      -83.993       -9.532       29.517       31.629       20.054      871.235     1000.423      402.171        0.803        0.114      117.044       11.805        0.010      331.579       -0.316      858.883
12/25/2014  05:08:00      -38.453      -24.516        2.946       23.760       21.831       15.604      564.519      476.600      243.491        0.169        0.064       45.603       12.272        0.072      331.429       -0.561      858.883
12/25/2014  05:09:00      -53.636      -21.946       -5.236       66.587       19.863       15.238     4433.843      394.547      232.207        0.422        0.253       57.952       22.750        0.154      331.586       -0.303      858.883
12/25/2014  05:10:00     -123.855      -68.282      -16.112       45.997       50.801       24.286     2115.746     2580.747      589.799        1.277        0.264      141.430       21.510        0.023      331.497       -0.450      858.885
12/25/2014  05:11:00      -19.573      -64.918       -2.278       56.241       51.746       33.659     3163.079     2677.623     1132.938        0.579        0.349       67.805       17.522        0.067      331.549       -0.364      858.893
12/25/2014  05:12:00     -127.450      -21.441      -14.291       32.093       35.990       23.127     1029.980     1295.280      534.870        0.988        0.143      129.241       18.388        0.020      331.517       -0.416      858.897
12/25/2014  05:13:00     -101.827      -33.079        0.405       37.825       29.598       23.614     1430.707      876.015      557.619        0.716        0.143      107.065       14.798        0.019      331.552       -0.360      858.920
12/25/2014  05:14:00      -32.738      -23.821        3.352       26.551       32.829       18.680      704.933     1077.775      348.941        0.189        0.107       40.487       16.341        0.163      331.487       -0.466      858.947
12/25/2014  05:15:00      -52.011      -61.040       -9.716       42.446       47.947       21.405     1801.621     2298.941      458.191        0.554        0.228       80.194       19.173        0.057      331.583       -0.308      858.971
12/25/2014  05:16:00      -41.624      -78.966       -7.216       28.360       34.479       16.996      804.290     1188.818      288.852        0.515        0.114       89.265       11.674        0.017      331.592       -0.294      858.983
12/25/2014  05:17:00      -37.949      -50.368       -0.004       22.122       23.780       13.021      489.394      565.487      169.542        0.260        0.061       63.064       12.197        0.037      331.571       -0.329      859.009
12/25/2014  05:18:00      -47.244      -95.965       -3.890       37.152       39.689       23.279     1380.244     1575.183      541.894        0.748        0.175      106.964       15.005        0.020      331.623       -0.243      859.025
12/25/2014  05:19:00      -63.670      -78.900        0.040       22.334       33.173       16.392      498.785     1100.466      268.713        0.607        0.093      101.386       13.725        0.018      331.615       -0.254      859.024
12/25/2014  05:20:00      -61.739     -130.291      -11.032       25.075       22.547       21.938      628.768      508.360      481.255        1.126        0.081      144.178       14.414        0.010      331.580       -0.313      859.024
12/25/2014  05:21:00      -71.211      -81.911       -5.970       42.707       32.460       16.892     1823.878     1053.658      285.352        0.749        0.158      108.538       19.227        0.031      331.560       -0.345      859.021
12/25/2014  05:22:00      -39.693      -51.419        6.034       55.335       24.295       19.656     3061.941      590.261      386.365        0.415        0.202       64.957       16.059        0.061      331.574       -0.324      859.014
12/25/2014  05:23:00      -99.255     -103.361        5.063       64.683       49.274       33.944     4183.943     2427.889     1152.218        1.416        0.388      143.301       35.643        0.062      331.504       -0.439      859.005
12/25/2014  05:24:00     -145.879      -94.112       -5.062       72.325       41.740       33.800     5230.859     1742.231     1142.461        1.914        0.406      173.602       30.151        0.030      331.405       -0.603      858.983
12/25/2014  05:25:00     -120.184      -71.770        1.881       76.066       65.392       33.247     5786.074     4276.080     1105.359        1.538        0.558      139.983       41.011        0.086      331.415       -0.586      858.961
12/25/2014  05:26:00      -59.876       -1.002       -2.862       56.850       37.493       22.085     3231.913     1405.692      487.728        0.436        0.256       59.884       16.768        0.078      331.451       -0.527      858.955
12/25/2014  05:27:00      -84.321      -64.681        7.508       67.130       54.856       39.924     4506.374     3009.127     1593.960        1.023        0.455      106.272       36.851        0.120      331.488       -0.465      858.942
12/25/2014  05:28:00      -66.499      -23.206        1.000       49.793       49.278       23.938     2479.335     2428.293      573.028        0.522        0.274       70.432       24.626        0.122      331.464       -0.505      858.949
12/25/2014  05:29:00     -130.758      -10.775       -3.578       44.774       32.419       21.273     2004.723     1051.019      452.551        1.037        0.175      131.201       21.620        0.027      331.393       -0.622      858.972
12/25/2014  05:30:00      -75.888      -39.449       11.344       47.976       41.572       30.315     2301.710     1728.269      919.023        0.620        0.247       85.529       28.180        0.109      331.396       -0.616      858.976
12/25/2014  05:31:00      -90.956      -32.574       -5.795       40.519       37.538       18.617     1641.752     1409.122      346.610        0.638        0.170       96.613       20.480        0.045      331.496       -0.452      858.968
12/25/2014  05:32:00     -106.019      -41.622        3.509       60.165       39.305       23.071     3619.799     1544.867      532.287        0.934        0.285      113.897       26.413        0.054      331.513       -0.423      858.972
12/25/2014  05:33:00     -102.162      -36.710        5.044      107.889       59.511       38.430    11640.116     3541.560     1476.888        1.423        0.833      108.557       52.697        0.236      331.470       -0.496      858.973
12/25/2014  05:34:00     -156.860      -83.542       -7.061       70.095       69.555       29.964     4913.307     4837.920      897.830        2.114        0.532      177.720       26.260        0.022      331.498       -0.451      858.973
12/25/2014  05:35:00     -139.606      -61.314       -5.199       31.755       35.186       24.105     1008.371     1238.046      581.071        1.305        0.141      152.477       19.762        0.017      331.489       -0.463      858.977
12/25/2014  05:36:00      -65.893      -54.136        1.939       49.650       31.773       19.596     2465.156     1009.548      384.018        0.557        0.193       85.279       14.634        0.029      331.479       -0.480      858.984
12/25/2014  05:37:00      -64.975      -24.058       -7.086       18.657       25.646       10.263      348.067      657.706      105.320        0.298        0.056       69.286        9.893        0.020      331.488       -0.464      858.975
12/25/2014  05:38:00      -39.262      -45.247       10.594       47.508       50.782       25.472     2256.966     2578.855      648.805        0.459        0.274       59.907       24.576        0.168      331.454       -0.521      858.953
12/25/2014  05:39:00      -52.370       38.686       -7.429       52.693       59.341       32.091     2776.562     3521.383     1029.861        0.581        0.366       65.109       33.860        0.270      331.418       -0.580      858.925
12/25/2014  05:40:00      -42.523       -4.448       -2.661       67.496       48.101       34.625     4555.698     2313.668     1198.863        0.495        0.403       42.755       39.245        0.843      331.433       -0.556      858.905
12/25/2014  05:41:00      -90.341       53.608       -7.820       57.432       84.479       44.757     3298.445     7136.641     2003.214        1.176        0.622      105.049       27.701        0.070      331.492       -0.459      858.903
12/25/2014  05:42:00     -128.413       41.250      -11.441       63.124       83.853       33.542     3984.616     7031.284     1125.056        1.523        0.607      134.876       32.751        0.059      331.535       -0.388      858.884
12/25/2014  05:43:00     -154.276      -45.546      -11.002       83.538       70.220       47.013     6978.585     4930.867     2210.242        2.006        0.706      160.858       43.462        0.073      331.548       -0.368      858.893
12/25/2014  05:44:00     -110.000      -29.383       -2.285       42.384       47.709       29.097     1796.381     2276.187      846.615        0.894        0.246      113.856       24.568        0.047      331.524       -0.405      858.878
12/25/2014  05:45:00      -98.525      -45.988        1.920       80.189       47.582       39.540     6430.209     2264.076     1563.421        1.104        0.513      108.729       33.742        0.096      331.489       -0.463      858.882
12/25/2014  05:46:00     -196.786       -3.562      -16.477       92.973       62.505       40.788     8643.952     3906.860     1663.633        2.661        0.711      196.819       31.421        0.025      331.606       -0.271      858.862
12/25/2014  05:47:00     -199.224      -32.198      -16.773       83.725       49.367       50.134     7009.836     2437.067     2513.386        2.648        0.598      201.809       40.807        0.041      331.615       -0.258      858.860
12/25/2014  05:48:00     -205.530       36.490      -18.635       69.887       72.458       43.940     4884.193     5250.194     1930.689        2.799        0.603      208.744       38.375        0.034      331.675       -0.161      858.864
12/25/2014  05:49:00     -212.708      -66.157        2.128      102.463       83.018       51.177    10498.763     6892.047     2619.064        3.481        1.000      222.759       49.522        0.049      331.669       -0.169      858.860
12/25/2014  05:50:00      -81.868       37.555       -6.078       62.616       66.445       31.939     3920.745     4414.962     1020.108        0.875        0.468       90.071       27.176        0.091      331.635       -0.222      858.899
12/25/2014  05:51:00     -111.629       32.169      -24.019       64.110       57.422       41.053     4110.103     3297.298     1685.314        1.158        0.455      116.172       10.794        0.009      331.717       -0.087      858.913
12/25/2014  05:52:00      -81.311       -6.512        3.983       81.222       69.394       42.299     6597.048     4815.470     1789.207        0.993        0.660       81.571       35.785        0.192      331.684       -0.142      858.925
12/25/2014  05:53:00     -193.224       99.175      -27.083      104.159       90.458       48.160    10849.049     8182.725     2319.409        3.462        1.068      217.189       45.736        0.044      331.733       -0.064      858.955
12/25/2014  05:54:00     -207.896      119.814      -32.062      153.733      134.225       71.412    23633.728    18016.301     5099.680        5.267        2.337      239.950       85.740        0.128      331.749       -0.036      858.986
12/25/2014  05:55:00      -94.703       -8.454        2.882       78.367       70.963       43.741     6141.399     5035.787     1913.248        1.107        0.655       95.079       37.605        0.156      331.703       -0.111      859.006
12/25/2014  05:56:00     -159.579       33.223       -2.902       94.040       71.858       45.427     8843.616     5163.624     2063.641        2.132        0.804      163.001       38.633        0.056      331.715       -0.093      859.033
12/25/2014  05:57:00     -229.247       51.334      -41.833       99.321       82.928       58.062     9864.692     6877.074     3371.222        3.852        1.006      234.924       50.719        0.047      331.768       -0.007      859.050
12/25/2014  05:58:00     -139.878      105.320      -28.667      101.416       72.485       41.290    10285.289     5254.056     1704.893        2.436        0.862      175.095       36.999        0.045      331.754       -0.029      859.075
12/25/2014  05:59:00     -245.907       61.690      -22.888      171.772      155.448       79.379    29505.713    24164.066     6301.057        6.237        2.999      253.527       85.657        0.114      331.745       -0.045      859.099
12/25/2014  06:00:00     -245.094      167.861      -34.351      162.920      146.807       89.822    26542.864    21552.282     8068.030        7.278        2.808      297.067       94.912        0.102      331.746       -0.042      859.111
12/25/2014  06:01:00     -109.472       89.929       -2.296      115.628       85.630       61.709    13369.871     7332.553     3808.001        2.229        1.226      141.673       65.341        0.213      331.756       -0.026      859.129
12/25/2014  06:02:00     -131.703      117.018      -17.194       97.033      129.396       54.497     9415.470    16743.201     2969.932        3.023        1.456      176.179       60.620        0.118      331.774        0.004      859.143
12/25/2014  06:03:00     -177.449      190.472      -13.094      100.813      142.739       70.363    10163.185    20374.493     4950.884        5.171        1.774      260.322       56.071        0.046      331.742       -0.049      859.149
12/25/2014  06:04:00     -194.695       83.526      -30.222      108.604       97.719       53.795    11794.810     9548.974     2893.899        3.501        1.212      211.856       52.042        0.060      331.746       -0.042      859.144
12/25/2014  06:05:00     -207.745      161.583      -40.215      106.256      112.173       63.860    11290.422    12582.808     4078.146        4.941        1.398      263.186       44.121        0.028      331.723       -0.082      859.158
12/25/2014  06:06:00     -141.465       83.269      -19.453      129.280      112.793       55.273    16713.288    12722.317     3055.130        2.990        1.625      164.153       69.670        0.180      331.731       -0.066      859.153
12/25/2014  06:07:00     -108.722       68.323      -11.268       60.511      108.323       48.255     3661.578    11733.788     2328.559        1.717        0.886      128.408       42.547        0.110      331.734       -0.061      859.139
12/25/2014  06:08:00     -132.104       66.890      -13.745       76.580       89.684       58.809     5864.470     8043.201     3458.446        1.974        0.868      148.073       44.256        0.089      331.698       -0.118      859.123
12/25/2014  06:09:00     -147.915        3.325      -11.476       99.317       77.267       43.525     9863.788     5970.190     1894.465        1.987        0.886      147.953       49.655        0.113      331.702       -0.113      859.107
12/25/2014  06:10:00     -212.633       47.347      -31.966      128.203       94.390       55.403    16435.992     8909.558     3069.533        3.844        1.421      217.840       57.457        0.070      331.725       -0.075      859.081
12/25/2014  06:11:00     -130.846      -19.803      -22.000      107.631      111.229       51.304    11584.531    12371.859     2632.118        2.229        1.329      132.336       43.583        0.108      331.713       -0.096      859.061
12/25/2014  06:12:00     -111.278       39.238        5.190      112.297      105.914       63.847    12610.561    11217.879     4076.416        2.092        1.395      117.993       70.829        0.360      331.766       -0.010      859.061
12/25/2014  06:13:00     -263.435       98.495      -43.067      124.843       90.700       39.692    15585.669     8226.507     1575.466        5.317        1.269      281.246       32.666        0.013      331.776        0.006      859.048
12/25/2014  06:14:00     -221.299      146.880      -38.337      103.642       77.264       52.260    10741.751     5969.693     2731.085        4.573        0.972      265.607       48.241        0.033      331.719       -0.086      859.015
12/25/2014  06:15:00     -156.246       -5.705       -2.275       81.930       85.107       42.550     6712.477     7243.204     1810.506        2.011        0.788      156.350       37.951        0.059      331.690       -0.132      859.020
12/25/2014  06:16:00      -47.987      -43.516       15.390      100.102       76.785       56.942    10020.402     5895.901     3242.364        1.179        0.958       64.779       57.676        0.793      331.707       -0.106      859.000
12/25/2014  06:17:00     -124.795       19.696       -4.871      100.115       93.914       46.791    10022.949     8819.863     2189.370        1.850        1.052      126.339       41.414        0.107      331.681       -0.147      858.982
12/25/2014  06:18:00      -91.853       55.312      -33.307       64.737       90.532       32.798     4190.922     8196.044     1075.707        1.303        0.673      107.221       25.426        0.056      331.792        0.035      858.974
12/25/2014  06:19:00     -161.594      -26.819      -21.087      109.096       68.881       75.742    11902.033     4744.546     5736.890        2.483        1.119      163.804       57.394        0.123      331.694       -0.127      858.972
12/25/2014  06:20:00     -103.172       13.445       -8.521       58.097      105.251       48.157     3375.234    11077.678     2319.120        1.383        0.839      104.045       40.957        0.155      331.730       -0.067      858.979
12/25/2014  06:21:00     -127.148       51.473      -10.304      118.035      103.745       53.071    13932.241    10763.046     2816.579        2.321        1.376      137.171       43.026        0.098      331.715       -0.092      858.967
12/25/2014  06:22:00     -124.112       56.482      -26.667      112.833      109.645       76.682    12731.175    12022.030     5880.057        2.496        1.532      136.359       54.405        0.159      331.766       -0.009      858.984
12/25/2014  06:23:00     -189.177      119.449      -25.533       92.311      141.721       62.495     8521.362    20084.731     3905.572        4.160        1.626      223.732       57.455        0.066      331.777        0.009      859.029
12/25/2014  06:24:00     -110.763       -2.220       -5.140       83.371       91.977       49.699     6950.737     8459.795     2469.978        1.509        0.894      110.785       40.475        0.133      331.752       -0.030      859.068
12/25/2014  06:25:00     -126.137      145.448      -15.127      103.623      119.170       55.618    10737.732    14201.587     3093.324        3.266        1.402      192.524       62.103        0.104      331.764       -0.012      859.066
12/25/2014  06:26:00      -79.697       86.051        7.959       82.043      104.662       51.818     6731.129    10954.180     2685.084        1.709        1.019      117.288       47.405        0.163      331.736       -0.058      859.066
12/25/2014  06:27:00     -127.435       15.900        6.949       99.201       58.970       44.551     9840.760     3477.415     1984.814        1.592        0.765      128.423       50.251        0.153      331.711       -0.097      859.062
12/25/2014  06:28:00      -35.687       48.419        0.082       76.200       68.891       34.698     5806.428     4746.005     1203.984        0.768        0.588       60.149       29.450        0.240      331.771        0.002      859.059
12/25/2014  06:29:00      -64.195       17.513       -8.903      108.937       70.194       38.687    11867.337     4927.152     1496.714        1.140        0.915       66.540       49.432        0.552      331.744       -0.045      859.075
12/25/2014  06:30:00      -22.412       33.681        2.142       62.081       49.498       36.548     3854.110     2450.063     1335.732        0.464        0.382       40.456       25.517        0.398      331.816        0.075      859.088
12/25/2014  06:31:00       11.615        7.349        1.327       46.588       58.534       34.983     2170.451     3426.243     1223.820        0.350        0.341       13.745       26.882        3.825      331.747       -0.038      859.077
12/25/2014  06:32:00       15.391      139.963       -4.719       85.273       94.704       55.003     7271.477     8968.858     3025.318        1.955        0.963      140.806       57.254        0.165      331.773        0.003      859.074
12/25/2014  06:33:00      -36.512       44.691       -2.133       54.974       92.186       33.092     3022.193     8498.187     1095.105        0.797        0.631       57.710       34.695        0.361      331.738       -0.054      859.088
12/25/2014  06:34:00     -130.928       46.793      -10.091      125.031       60.429       45.476    15632.794     3651.723     2068.092        2.039        1.068      139.038       52.114        0.140      331.753       -0.029      859.115
12/25/2014  06:35:00       59.828       79.294      -24.254       48.612       45.592       24.871     2363.116     2078.603      618.543        0.776        0.253       99.332       19.266        0.038      331.799        0.049      859.132
12/25/2014  06:36:00       10.534       70.906       16.077       34.085       74.406       37.328     1161.797     5536.258     1393.361        0.674        0.405       71.684       41.411        0.334      331.719       -0.083      859.149
12/25/2014  06:37:00       61.361       79.576      -10.574       58.603       47.059       28.800     3434.367     2214.594      829.433        0.834        0.324      100.486       28.257        0.079      331.733       -0.061      859.168
12/25/2014  06:38:00       -5.221       98.538       -7.340       79.389       80.086       43.853     6302.601     6413.770     1923.112        1.221        0.732       98.677       31.561        0.102      331.786        0.025      859.192
12/25/2014  06:39:00       -3.096      172.398       -8.487       78.517       95.720       47.950     6164.937     9162.412     2299.214        2.371        0.881      172.426       53.378        0.096      331.763       -0.014      859.180
12/25/2014  06:40:00      -43.059      164.962      -16.590      101.487       78.411       48.590    10299.660     6148.241     2360.941        2.407        0.940      170.490       52.498        0.095      331.758       -0.021      859.176
12/25/2014  06:41:00        9.078       92.072        1.195       74.593       89.683       42.833     5564.147     8042.954     1834.632        1.200        0.772       92.518       30.105        0.106      331.687       -0.136      859.173
12/25/2014  06:42:00      -37.808      112.087      -18.282       89.767       76.836       37.533     8058.052     5903.776     1408.704        1.485        0.769      118.292       37.100        0.098      331.777        0.010      859.192
12/25/2014  06:43:00      -71.057      180.527       -4.238      103.092       84.929       66.026    10627.887     7212.884     4359.402        2.992        1.110      194.008       65.029        0.112      331.774        0.003      859.188
12/25/2014  06:44:00        1.192      168.030       -6.654       88.744       98.129       55.959     7875.468     9629.385     3131.414        2.445        1.032      168.035       63.231        0.142      331.776        0.008      859.191
12/25/2014  06:45:00       53.937      101.131      -13.485       42.147      100.977       49.696     1776.375    10196.330     2469.662        1.388        0.722      114.615       40.710        0.126      331.812        0.068      859.210
12/25/2014  06:46:00      -15.848       14.212       25.883       27.580       47.890       25.129      760.649     2293.405      631.483        0.240        0.184       21.287       19.871        0.871      331.762       -0.015      859.214
12/25/2014  06:47:00        9.848       50.762       11.343       32.505       28.217       25.491     1056.560      796.211      649.777        0.265        0.125       51.708       20.360        0.155      331.774        0.006      859.242
12/25/2014  06:48:00       23.639       60.828        4.939       68.218       43.206       31.980     4653.640     1866.782     1022.746        0.591        0.377       65.260       37.467        0.330      331.773        0.005      859.266
12/25/2014  06:49:00       38.303       68.724       15.154       62.050       48.926       38.837     3850.145     2393.758     1508.343        0.708        0.388       78.677       39.728        0.255      331.730       -0.067      859.255
12/25/2014  06:50:00      111.531       34.397       16.652       48.188       39.858       34.273     2322.101     1588.697     1174.609        0.949        0.254      116.715       22.218        0.036      331.568       -0.333      859.235
12/25/2014  06:51:00       88.745       53.265       22.442       45.999       46.107       46.748     2115.894     2125.853     2185.391        0.882        0.321      103.503       35.892        0.120      331.620       -0.247      859.207
12/25/2014  06:52:00       97.395       52.671       15.931       68.519       56.422       35.020     4694.801     3183.438     1226.379        1.081        0.455      110.725       27.571        0.062      331.644       -0.209      859.185
12/25/2014  06:53:00       85.255       68.684       34.663       62.329       37.755       43.566     3884.868     1425.441     1897.982        1.020        0.360      109.480       46.216        0.178      331.589       -0.298      859.167
12/25/2014  06:54:00      132.113       55.987        7.435       27.912       40.563       24.127      779.071     1645.338      582.095        1.182        0.150      143.486       18.061        0.016      331.538       -0.382      859.186
12/25/2014  06:55:00      123.764       40.637       26.447       68.366       37.533       38.025     4673.915     1408.735     1445.897        1.260        0.376      130.265       30.060        0.053      331.439       -0.546      859.147
12/25/2014  06:56:00       89.851       45.195       55.601       52.840       50.723       48.657     2792.068     2572.782     2367.546        1.047        0.387      100.577       44.324        0.194      331.405       -0.601      859.142
12/25/2014  06:57:00       64.082       61.127       53.447       44.455       42.590       30.871     1976.226     1813.886      952.992        0.772        0.237       88.561       29.592        0.112      331.401       -0.608      859.134
12/25/2014  06:58:00       18.257       49.915       62.804       34.614       39.706       31.506     1198.095     1576.594      992.626        0.527        0.188       53.149       26.744        0.253      331.428       -0.564      859.132
12/25/2014  06:59:00       82.423       44.109       38.325       53.531       36.858       44.488     2865.613     1358.525     1979.183        0.820        0.310       93.483       38.316        0.168      331.410       -0.592      859.148
12/25/2014  07:00:00      106.225       28.665        8.689       50.905       38.037       30.824     2591.284     1446.834      950.126        0.858        0.249      110.025       28.125        0.065      331.346       -0.697      859.167
12/25/2014  07:01:00      101.572       46.871       26.659       31.244       26.314       26.300      976.165      692.434      691.689        0.779        0.118      111.865       22.596        0.041      331.369       -0.661      859.165
12/25/2014  07:02:00      116.922       49.894       22.331       38.132       27.293       31.767     1454.070      744.890     1009.172        0.993        0.160      127.122       24.686        0.038      331.422       -0.574      859.150
12/25/2014  07:03:00       41.614       -8.085       20.152       40.075       43.001       29.449     1606.028     1849.055      867.232        0.326        0.216       42.392       33.423        0.622      331.541       -0.377      859.138
12/25/2014  07:04:00       43.212       34.102       24.369       37.481       17.285       26.063     1404.849      298.781      679.276        0.300        0.119       55.047       24.377        0.196      331.453       -0.523      859.135
12/25/2014  07:05:00       65.780       19.684       23.768       24.265       22.514       20.153      588.770      506.895      406.145        0.339        0.075       68.662       12.174        0.031      331.406       -0.599      859.126
12/25/2014  07:06:00      107.061       55.637        3.661       31.321       22.632       21.304      980.981      512.194      453.859        0.826        0.097      120.655       14.502        0.014      331.428       -0.563      859.135
12/25/2014  07:07:00       17.593       27.467        7.537       59.062       20.311       20.213     3488.354      412.551      408.583        0.271        0.215       32.618       25.493        0.611      331.489       -0.464      859.161
12/25/2014  07:08:00      -67.161       30.564      -12.058       24.081       27.286       12.143      579.889      744.545      147.452        0.353        0.074       73.789        9.002        0.015      331.442       -0.540      859.172
12/25/2014  07:09:00      -78.807       -2.364       -7.465       33.292       17.477       13.331     1108.390      305.446      177.719        0.393        0.080       78.842       14.863        0.036      331.396       -0.615      859.164
12/25/2014  07:10:00      -63.153       16.987       -2.281       50.072       12.909       12.144     2507.215      166.646      147.470        0.355        0.141       65.397       21.770        0.111      331.341       -0.706      859.156
12/25/2014  07:11:00     -161.137       -6.815      -23.631       32.696       32.563       13.916     1069.001     1060.348      193.645        1.445        0.116      161.282       14.498        0.008      331.411       -0.592      859.151
12/25/2014  07:12:00      -97.247      -23.707       -9.426       61.009       49.643       23.210     3722.122     2464.394      538.701        0.842        0.336      100.095       15.630        0.024      331.529       -0.397      859.163
12/25/2014  07:13:00     -107.702       -6.328      -17.178       54.598       44.525       24.219     2980.901     1982.484      586.574        0.874        0.277      107.888       10.679        0.010      331.541       -0.378      859.194
12/25/2014  07:14:00      -85.489       62.597      -14.688       37.436       33.633       24.888     1401.482     1131.159      619.430        0.730        0.158      105.956       16.020        0.023      331.568       -0.333      859.234
12/25/2014  07:15:00     -112.076      120.975      -36.294       36.213       68.448       31.876     1311.401     4685.186     1016.075        1.776        0.351      164.912       18.526        0.013      331.678       -0.153      859.260
12/25/2014  07:16:00     -103.174       59.240      -19.105       65.112       53.700       34.952     4239.571     2883.716     1221.613        1.143        0.417      118.972       25.772        0.047      331.646       -0.206      859.279
12/25/2014  07:17:00     -129.754       76.773      -29.935       54.533       49.312       29.407     2973.883     2431.689      864.766        1.495        0.314      150.765       25.797        0.029      331.631       -0.231      859.292
12/25/2014  07:18:00     -153.812       48.825      -24.864       41.534       49.901       24.964     1725.100     2490.143      623.177        1.575        0.242      161.375       21.517        0.018      331.634       -0.224      859.299
12/25/2014  07:19:00      -37.879        4.881        5.936       44.467       49.948       23.354     1977.320     2494.780      545.395        0.325        0.251       38.192       23.153        0.368      331.550       -0.362      859.297
12/25/2014  07:20:00      -65.587       33.342      -24.522       42.553       41.300       29.962     1810.793     1705.693      897.745        0.521        0.221       73.575       13.420        0.033      331.586       -0.302      859.297
12/25/2014  07:21:00      -62.804       70.488      -15.376       37.746       62.112       25.264     1424.749     3857.915      638.280        0.753        0.296       94.408       21.837        0.054      331.633       -0.226      859.298
12/25/2014  07:22:00     -110.821       52.426      -13.395       35.567       66.370       35.033     1265.012     4405.022     1227.338        1.105        0.345      122.596       22.230        0.033      331.642       -0.210      859.288
12/25/2014  07:23:00     -115.468       72.329      -12.694       56.366       80.211       47.564     3177.127     6433.766     2262.354        1.530        0.594      136.251       41.404        0.092      331.648       -0.200      859.283
12/25/2014  07:24:00      -97.389       -3.286      -27.473       67.705       56.204       28.391     4583.937     3158.865      806.051        0.940        0.427       97.445       24.771        0.065      331.653       -0.194      859.290
12/25/2014  07:25:00     -131.604       -5.436      -25.214       48.047       63.430       37.720     2308.499     4023.369     1422.827        1.287        0.388      131.716       18.572        0.020      331.638       -0.218      859.294
12/25/2014  07:26:00     -159.263       76.486      -49.207       48.311       88.590       42.240     2333.952     7848.145     1784.233        2.280        0.598      176.677       26.761        0.023      331.685       -0.143      859.285
12/25/2014  07:27:00     -161.296       12.720      -29.292       59.674      108.910       38.379     3560.948    11861.472     1472.966        2.196        0.845      161.797       34.751        0.046      331.634       -0.225      859.281
12/25/2014  07:28:00     -142.838       22.019      -15.093       59.591       56.670       42.027     3551.069     3211.506     1766.261        1.482        0.426      144.525       33.439        0.054      331.620       -0.248      859.259
12/25/2014  07:29:00     -137.902       79.129      -18.277       72.492       62.190       38.571     5255.041     3867.656     1487.741        1.811        0.531      158.992       22.830        0.021      331.594       -0.292      859.235
12/25/2014  07:30:00      -97.927       53.613       -4.942       37.169       57.671       27.663     1381.541     3325.920      765.226        0.898        0.274      111.642       17.594        0.025      331.578       -0.316      859.244
12/25/2014  07:31:00     -123.036        5.834      -19.220       50.426       44.397       22.260     2542.801     1971.101      495.530        1.027        0.250      123.174       13.588        0.012      331.598       -0.283      859.270
12/25/2014  07:32:00     -146.964       -8.657      -19.740       52.865       40.389       24.839     2794.681     1631.254      616.988        1.355        0.252      147.219       24.802        0.028      331.573       -0.326      859.297
12/25/2014  07:33:00     -148.674       22.633      -13.994       62.573       36.644       31.201     3915.351     1342.773      973.513        1.452        0.312      150.387       27.128        0.033      331.566       -0.337      859.336
12/25/2014  07:34:00      -98.964       40.704      -22.775       26.606       36.004       19.928      707.856     1296.279      397.112        0.718        0.120      107.008       10.150        0.009      331.590       -0.297      859.374
12/25/2014  07:35:00      -86.326       47.702      -16.918       25.677       26.665       16.651      659.324      711.045      277.256        0.583        0.082       98.629       14.656        0.022      331.593       -0.292      859.402
12/25/2014  07:36:00      -98.025       67.181      -15.828       39.906       67.700       27.622     1592.504     4583.227      762.982        1.065        0.347      118.837       30.339        0.065      331.594       -0.290      859.419
12/25/2014  07:37:00     -202.783       87.964      -37.396       75.880       73.652       35.868     5757.767     5424.669     1286.503        3.136        0.623      221.040       42.281        0.037      331.613       -0.263      859.441
12/25/2014  07:38:00      -97.463       41.102      -10.628       34.918       40.429       23.458     1219.280     1634.467      550.297        0.735        0.170      105.775       13.752        0.017      331.550       -0.361      859.458
12/25/2014  07:39:00     -123.097      125.495      -29.016       62.704      101.770       51.181     3931.735    10357.075     2619.522        2.432        0.845      175.789       48.184        0.075      331.561       -0.346      859.481
12/25/2014  07:40:00     -128.369       97.830       -6.249       63.506       83.471       45.932     4033.010     6967.376     2109.775        1.960        0.656      161.398       43.957        0.074      331.574       -0.323      859.490
12/25/2014  07:41:00     -111.359      121.005      -19.088       59.254       53.713       31.979     3511.068     2885.037     1022.682        1.741        0.371      164.448       28.732        0.031      331.558       -0.349      859.509
12/25/2014  07:42:00     -102.823       33.477      -13.207       75.200       67.985       39.087     5655.064     4621.996     1527.805        1.183        0.590      108.136       38.385        0.126      331.566       -0.337      859.525
12/25/2014  07:43:00     -175.443       75.905      -28.334       64.844       69.216       43.538     4204.808     4790.900     1895.533        2.412        0.545      191.159       17.680        0.009      331.573       -0.327      859.544
12/25/2014  07:44:00     -137.072      143.425      -25.596       83.312       68.962       48.706     6940.943     4755.740     2372.244        2.704        0.703      198.392       50.739        0.065      331.534       -0.391      859.556
12/25/2014  07:45:00     -136.628        7.364       -4.048       87.160       51.698       33.843     7596.935     2672.664     1145.324        1.507        0.571      136.827       27.569        0.041      331.558       -0.350      859.545
12/25/2014  07:46:00     -185.805       66.508      -34.788      115.267       69.263       38.931    13286.483     4797.372     1515.627        2.987        0.980      197.350       45.344        0.053      331.553       -0.360      859.567
12/25/2014  07:47:00     -126.498       20.859      -21.946       74.514       64.115       37.223     5552.270     4110.742     1385.520        1.398        0.552      128.206       25.408        0.039      331.551       -0.362      859.572
12/25/2014  07:48:00     -230.406       66.439      -50.169       71.799      117.212       41.424     5155.052    13738.697     1715.916        4.031        1.030      239.794       37.722        0.025      331.543       -0.377      859.596
12/25/2014  07:49:00     -178.281       52.625      -22.325       75.335       92.566       44.550     5675.333     8568.375     1984.725        2.564        0.811      185.886       42.021        0.051      331.542       -0.378      859.630
12/25/2014  07:50:00     -120.109       37.497      -21.129       84.575       62.798       44.314     7152.866     3943.547     1963.693        1.467        0.653      125.826       16.959        0.018      331.569       -0.330      859.637
12/25/2014  07:51:00     -152.502       68.100      -20.621       94.228       90.353       41.539     8878.961     8163.577     1725.517        2.354        0.938      167.017       38.870        0.054      331.557       -0.353      859.655
12/25/2014  07:52:00      -99.634       44.368      -31.450       54.540       56.349       38.158     2974.623     3175.259     1456.021        1.024        0.380      109.066       25.058        0.053      331.573       -0.324      859.642
12/25/2014  07:53:00     -111.848      -16.330      -14.040       63.524       83.028       33.342     4035.354     6893.699     1111.673        1.250        0.602      113.033       27.150        0.058      331.551       -0.362      859.628
12/25/2014  07:54:00     -150.220       27.271      -22.256       93.029       51.418       41.344     8654.348     2643.773     1709.338        1.840        0.650      152.675       47.441        0.097      331.527       -0.403      859.621
12/25/2014  07:55:00     -141.733       -1.127      -19.026       68.493       44.479       33.661     4691.306     1978.412     1133.095        1.413        0.390      141.738       25.976        0.034      331.549       -0.364      859.596
12/25/2014  07:56:00     -144.414       39.325      -28.834       77.206       73.615       38.457     5960.690     5419.182     1478.977        1.804        0.643      149.673       40.188        0.072      331.528       -0.401      859.577
12/25/2014  07:57:00     -118.641      102.930      -27.958       65.171       43.351       33.419     4247.231     1879.328     1116.839        1.635        0.362      157.068       35.409        0.051      331.565       -0.339      859.593
12/25/2014  07:58:00      -99.626       88.847      -23.965       50.744       54.355       34.350     2574.981     2954.519     1179.925        1.255        0.335      133.488       31.087        0.054      331.552       -0.359      859.613
12/25/2014  07:59:00      -86.960       86.309       -9.773       43.989       47.674       37.585     1935.032     2272.815     1412.650        1.036        0.281      122.521       34.504        0.079      331.574       -0.324      859.614
12/25/2014  08:00:00     -102.298       22.498      -10.980       39.582       36.807       29.047     1566.724     1354.773      843.736        0.743        0.188      104.743       21.529        0.042      331.538       -0.385      859.616
12/25/2014  08:01:00     -165.107       76.799      -21.124       61.837       71.097       42.019     3823.827     5054.744     1765.555        2.212        0.532      182.095       28.358        0.024      331.511       -0.430      859.636
12/25/2014  08:02:00     -116.774      106.053      -27.935       69.496       78.831       41.751     4829.743     6214.343     1743.181        1.922        0.639      157.745       48.361        0.094      331.568       -0.333      859.662
12/25/2014  08:03:00     -127.083      119.601      -20.689       36.192       77.822       34.954     1309.896     6056.339     1221.787        1.973        0.429      174.512       24.364        0.019      331.525       -0.406      859.681
12/25/2014  08:04:00     -120.570       27.587      -10.614       38.040       48.819       29.132     1447.073     2383.302      848.666        1.004        0.234      123.686       19.161        0.024      331.518       -0.416      859.697
12/25/2014  08:05:00      -99.791       50.389      -18.660       51.689       76.004       35.135     2671.710     5776.677     1234.482        1.126        0.484      111.791       38.366        0.118      331.527       -0.401      859.709
12/25/2014  08:06:00      -93.676       -0.688      -10.214       34.645       54.378       25.812     1200.307     2956.976      666.244        0.685        0.241       93.679       18.902        0.041      331.520       -0.413      859.721
12/25/2014  08:07:00     -107.007       57.442      -21.280       53.347       73.507       37.009     2845.857     5403.225     1369.697        1.241        0.481      121.450       21.224        0.031      331.513       -0.423      859.725
12/25/2014  08:08:00     -123.545       37.829      -15.323       69.307       72.846       37.190     4803.398     5306.567     1383.082        1.421        0.575      129.207       29.996        0.054      331.523       -0.408      859.735
12/25/2014  08:09:00     -109.637      -37.968        2.760       74.521       47.588       37.769     5553.321     2264.587     1426.472        1.136        0.462      116.025       39.770        0.117      331.556       -0.353      859.750
12/25/2014  08:10:00      -55.025       48.618       11.578       61.461       62.969       36.808     3777.493     3965.055     1354.855        0.731        0.455       73.427       29.587        0.162      331.534       -0.390      859.768
12/25/2014  08:11:00     -118.303      121.331      -37.655       53.640       94.993       45.226     2877.259     9023.595     2045.402        2.204        0.697      169.460       39.595        0.055      331.548       -0.366      859.794
12/25/2014  08:12:00      -78.088       78.953      -14.306       37.402       50.344       31.090     1398.918     2534.532      966.592        0.872        0.245      111.046       24.204        0.048      331.555       -0.356      859.799
12/25/2014  08:13:00     -101.489       52.562      -15.693       57.960       55.035       37.195     3359.339     3028.862     1383.485        1.054        0.389      114.293       26.094        0.052      331.558       -0.351      859.790
12/25/2014  08:14:00      -79.062       63.533      -15.121       47.183       67.526       37.270     2226.226     4559.788     1389.037        0.934        0.409      101.425       30.937        0.093      331.625       -0.238      859.804
12/25/2014  08:15:00      -90.022       67.035       -8.142       75.960       64.445       46.081     5769.898     4153.102     2123.492        1.235        0.602      112.239       50.804        0.205      331.568       -0.333      859.790
12/25/2014  08:16:00      -94.075      125.495      -20.847       55.833       57.503       41.196     3117.287     3306.638     1697.075        1.658        0.406      156.841       33.381        0.045      331.605       -0.272      859.778
12/25/2014  08:17:00     -120.231       63.635      -19.079       69.745       68.050       38.259     4864.386     4630.784     1463.772        1.491        0.548      136.032       43.987        0.105      331.592       -0.295      859.797
12/25/2014  08:18:00     -104.669       50.045      -17.764       77.392       57.911       37.846     5989.550     3353.682     1432.299        1.227        0.539      116.018       43.301        0.139      331.590       -0.298      859.819
12/25/2014  08:19:00     -175.162      206.456      -41.534       93.663      139.036       57.980     8772.677    19330.956     3361.654        5.324        1.573      270.751       54.231        0.040      331.609       -0.267      859.845
12/25/2014  08:20:00      -80.039       60.643      -20.237       81.969       89.230       44.193     6718.850     7961.965     1952.979        1.356        0.832      100.418       49.625        0.244      331.603       -0.275      859.873
12/25/2014  08:21:00     -115.152      183.227      -16.788       70.746       93.287       51.233     5004.928     8702.385     2624.812        3.172        0.817      216.408       39.037        0.033      331.574       -0.325      859.900
12/25/2014  08:22:00     -176.425      170.764      -32.380       78.499      102.310       51.273     6162.067    10467.398     2628.928        4.029        0.963      245.533       51.387        0.044      331.623       -0.246      859.922
12/25/2014  08:23:00     -136.069       70.754      -22.080       75.513      101.213       42.808     5702.285    10244.047     1832.541        2.089        0.889      153.365       42.256        0.076      331.609       -0.266      859.946
12/25/2014  08:24:00     -118.644      110.479      -26.643       75.843       73.125       47.854     5752.111     5347.224     2289.967        2.019        0.669      162.117       45.953        0.080      331.589       -0.301      859.969
12/25/2014  08:25:00     -129.961      136.986      -30.245       59.668       81.051       45.886     3560.326     6569.210     2105.526        2.440        0.612      188.826       35.788        0.036      331.607       -0.272      859.991
12/25/2014  08:26:00     -130.277      219.645      -27.559      115.879       87.892       66.633    13427.885     7725.044     4439.941        4.578        1.280      255.374       74.778        0.086      331.670       -0.169      860.006
12/25/2014  08:27:00     -224.379      215.506      -36.930      122.396      118.427       72.297    14980.802    14024.858     5226.847        6.619        1.712      311.109       80.709        0.067      331.690       -0.137      860.011
12/25/2014  08:28:00     -111.671       90.338      -17.915       68.961       66.485       39.452     4755.674     4420.205     1556.493        1.584        0.537      143.637       34.595        0.058      331.664       -0.177      860.006
12/25/2014  08:29:00     -179.002      121.251      -53.780      100.975       77.995       42.663    10196.027     6083.230     1820.134        3.386        0.905      216.202       56.532        0.068      331.671       -0.165      860.011
12/25/2014  08:30:00      -88.109       74.130       -1.833       67.332       60.410       45.291     4533.617     3649.379     2051.233        1.175        0.512      115.145       43.686        0.144      331.611       -0.263      860.016
12/25/2014  08:31:00     -107.704      167.000      -27.155       63.704      112.061       42.008     4058.180    12557.567     1764.681        2.930        0.919      198.719       44.616        0.050      331.620       -0.249      860.028
12/25/2014  08:32:00     -108.678      159.129      -25.358       52.247       67.695       38.721     2729.780     4582.553     1499.281        2.329        0.441      192.699       32.035        0.028      331.582       -0.312      860.066
12/25/2014  08:33:00     -104.029      151.123      -21.654       75.842       78.249       27.904     5751.966     6122.868      778.649        2.339        0.633      183.467       34.404        0.035      331.601       -0.281      860.105
12/25/2014  08:34:00     -154.247      146.199      -18.585       71.099       72.020       45.933     5055.073     5186.912     2109.804        2.893        0.618      212.524       39.618        0.035      331.589       -0.301      860.137
12/25/2014  08:35:00      -60.873      122.941      -16.054       40.272       67.865       33.964     1621.860     4605.699     1153.571        1.323        0.369      137.186       36.797        0.072      331.649       -0.199      860.169
12/25/2014  08:36:00     -144.912      161.740      -34.211       45.150       62.867       33.924     2038.556     3952.299     1150.819        2.773        0.357      217.162       29.587        0.019      331.565       -0.342      860.195
12/25/2014  08:37:00     -138.608      202.148      -24.798       69.061      116.631       50.193     4769.354    13602.692     2519.344        4.079        1.045      245.104       50.274        0.042      331.522       -0.411      860.205
12/25/2014  08:38:00     -125.937      119.117      -25.566       49.702       57.436       34.512     2470.313     3298.880     1191.056        1.883        0.348      173.346       32.944        0.036      331.536       -0.388      860.223
12/25/2014  08:39:00     -101.141      186.256      -23.278       61.662       98.232       41.171     3802.254     9649.537     1695.011        3.030        0.757      211.945       43.399        0.042      331.597       -0.288      860.220
12/25/2014  08:40:00     -148.649      154.652      -40.745       60.445       77.779       41.477     3653.545     6049.613     1720.377        2.955        0.571      214.508       39.853        0.035      331.577       -0.319      860.232
12/25/2014  08:41:00     -138.622      126.773      -31.626       59.591       74.073       44.558     3551.107     5486.763     1985.457        2.365        0.551      187.850       35.118        0.035      331.600       -0.282      860.243
12/25/2014  08:42:00     -125.001      129.191      -11.695       71.481       66.588       46.516     5109.531     4433.974     2163.760        2.208        0.585      179.765       33.219        0.034      331.631       -0.232      860.260
12/25/2014  08:43:00     -134.750      137.435      -23.471      101.722       60.564       48.193    10347.442     3668.048     2322.593        2.696        0.817      192.473       55.308        0.083      331.595       -0.290      860.273
12/25/2014  08:44:00      -68.871      194.004      -21.293       57.221      108.746       37.023     3274.249    11825.628     1370.666        2.965        0.824      205.866       28.963        0.020      331.680       -0.151      860.290
12/25/2014  08:45:00     -132.326      121.195      -28.090       82.861      116.458       48.334     6865.978    13562.515     2336.195        2.787        1.138      179.440       58.688        0.107      331.725       -0.076      860.298
12/25/2014  08:46:00     -132.955      144.451      -36.635       66.595       68.009       34.972     4434.837     4625.212     1223.059        2.508        0.514      196.324       34.554        0.031      331.683       -0.145      860.309
12/25/2014  08:47:00      -83.212      181.878      -15.499       54.271       93.329       42.154     2945.370     8710.314     1776.980        2.684        0.672      200.010       48.285        0.058      331.672       -0.163      860.313
12/25/2014  08:48:00     -140.733      129.917      -22.186       62.124       69.019       39.429     3859.451     4763.681     1554.685        2.368        0.509      191.531       37.398        0.038      331.730       -0.067      860.314
12/25/2014  08:49:00     -134.508      202.133      -29.754       70.152       64.671       44.510     4921.269     4182.281     1981.137        3.546        0.554      242.797       36.500        0.023      331.730       -0.069      860.311
12/25/2014  08:50:00     -171.573      212.136      -33.472       91.884      112.090       62.534     8442.609    12564.146     3910.553        5.023        1.246      272.835       61.292        0.050      331.791        0.031      860.288
12/25/2014  08:51:00     -164.440      198.339      -29.761      107.897      144.638       63.122    11641.752    20920.213     3984.392        5.190        1.827      257.641       50.116        0.038      331.802        0.050      860.258
12/25/2014  08:52:00     -216.362      269.261      -54.684      149.937      118.626       58.714    22481.077    14072.019     3447.385        8.114        2.000      345.418       61.167        0.031      331.849        0.128      860.250
12/25/2014  08:53:00     -182.964      207.995      -33.545      102.723      101.035       63.436    10552.029    10208.137     4024.092        5.132        1.239      277.016       49.035        0.031      331.865        0.153      860.244
12/25/2014  08:54:00     -211.394      205.146      -44.086      184.686      135.292       84.803    34108.736    18303.852     7191.468        7.415        2.980      294.572      105.382        0.128      331.877        0.174      860.247
12/25/2014  08:55:00     -188.524      189.400      -13.770      128.070      122.578       84.356    16402.001    15025.304     7115.920        5.507        1.927      267.234       78.816        0.087      331.873        0.166      860.220
12/25/2014  08:56:00     -186.418      272.178      -29.279      119.888      139.767       80.688    14373.160    19534.713     6510.542        7.505        2.021      329.898       65.806        0.040      331.845        0.121      860.192
12/25/2014  08:57:00     -163.892      186.723      -27.825       75.582       96.344       61.014     5712.667     9282.188     3722.671        4.061        0.936      248.447       54.389        0.048      331.834        0.101      860.181
12/25/2014  08:58:00     -222.378      217.274      -37.609      150.632      123.730       60.928    22690.042    15309.161     3712.192        6.988        2.086      310.902       69.702        0.050      331.852        0.133      860.177
12/25/2014  08:59:00     -146.490      228.932      -30.712       69.029       96.694       43.035     4764.972     9349.798     1851.997        4.539        0.798      271.789       33.008        0.015      331.853        0.133      860.196
12/25/2014  09:00:00     -139.385      235.875      -27.828      117.845      120.037       61.271    13887.551    14408.893     3754.083        5.394        1.603      273.980       56.438        0.042      331.862        0.149      860.210
12/25/2014  09:01:00     -193.440      204.685      -40.937       86.993      122.843       45.552     7567.738    15090.388     2074.980        5.286        1.237      281.629       57.365        0.041      331.876        0.172      860.214
12/25/2014  09:02:00     -139.307      323.416      -40.936       79.862      110.980       64.249     6377.983    12316.572     4127.911        7.425        1.141      352.143       53.111        0.023      331.824        0.085      860.222
12/25/2014  09:03:00     -175.436      204.660      -16.268      153.773      141.253       81.136    23646.219    19952.341     6583.063        6.154        2.509      269.561       91.325        0.115      331.861        0.147      860.228
12/25/2014  09:04:00     -123.017      228.170      -31.113       85.923       86.733       62.859     7382.793     7522.655     3951.269        4.351        0.943      259.220       48.352        0.035      331.845        0.118      860.248
12/25/2014  09:05:00     -170.768      300.309      -36.046      121.104      148.658       67.924    14666.059    22099.270     4613.612        8.100        2.069      345.466       64.997        0.035      331.863        0.149      860.274
12/25/2014  09:06:00     -137.050      253.774      -26.933      105.526      145.460       65.500    11135.787    21158.715     4290.303        6.024        1.829      288.416       58.392        0.041      331.882        0.182      860.285
12/25/2014  09:07:00      -90.956      206.253      -17.864       89.114       98.403       54.547     7941.230     9683.137     2975.375        3.586        1.030      225.418       44.541        0.039      331.880        0.178      860.298
12/25/2014  09:08:00     -171.411      294.512      -43.242       91.989      131.666       68.157     8462.019    17335.874     4645.378        7.421        1.522      340.763       54.667        0.026      331.891        0.195      860.326
12/25/2014  09:09:00     -185.522      342.601      -60.094       94.481      115.789       65.075     8926.732    13407.149     4234.801        9.098        1.328      389.607       55.145        0.020      331.902        0.214      860.342
12/25/2014  09:10:00     -189.230      241.219      -42.109      138.288      125.278       65.980    19123.572    15694.535     4353.354        6.746        1.959      306.586       75.769        0.061      331.910        0.228      860.366
12/25/2014  09:11:00     -109.275      232.951      -25.523       76.018       76.022       48.086     5778.738     5779.372     2312.309        4.036        0.694      257.308       47.019        0.033      331.960        0.308      860.382
12/25/2014  09:12:00      -63.067      156.090       -7.699       68.666      107.417       48.075     4715.076    11538.337     2311.180        2.348        0.928      168.350       50.692        0.091      331.994        0.366      860.401
12/25/2014  09:13:00     -110.666      229.246      -27.760      117.738      121.072       65.164    13862.295    14658.355     4246.330        4.916        1.638      254.559       80.083        0.099      331.946        0.284      860.400
12/25/2014  09:14:00     -169.006      206.403      -30.220       91.086       97.647       53.556     8296.666     9534.961     2868.195        4.639        1.035      266.769       50.201        0.035      331.946        0.284      860.401
12/25/2014  09:15:00     -123.141      268.875      -36.499       85.684      126.953       57.779     7341.814    16117.015     3338.411        5.779        1.340      295.733       52.552        0.032      331.995        0.367      860.422
12/25/2014  09:16:00     -142.429      151.413      -41.428       55.068       50.185       27.790     3032.512     2518.581      772.276        2.562        0.316      207.875       26.772        0.017      332.009        0.389      860.434
12/25/2014  09:17:00     -200.169      161.478      -32.945      176.900      137.765       85.729    31293.723    18979.300     7349.498        6.241        2.881      257.182       89.129        0.120      331.986        0.352      860.452
12/25/2014  09:18:00     -209.155      231.159      -36.443      132.085      163.294       80.472    17446.559    26664.834     6475.813        7.454        2.529      311.738       88.470        0.081      331.989        0.357      860.452
12/25/2014  09:19:00     -194.145      206.901      -33.135      133.155      108.369       65.703    17730.313    11743.784     4316.923        5.769        1.690      283.726       65.691        0.054      331.992        0.362      860.483
12/25/2014  09:20:00     -199.987      198.344      -37.602      109.513      128.127       64.924    11993.156    16416.601     4215.150        5.668        1.631      281.665       70.077        0.062      332.016        0.401      860.519
12/25/2014  09:21:00     -131.348      134.085       -4.991      124.247      123.664       76.783    15437.197    15292.694     5895.696        3.593        1.831      187.699       71.694        0.146      332.025        0.416      860.509
12/25/2014  09:22:00     -172.743      178.152      -26.714      125.553      105.138       58.398    15763.526    11054.001     3410.311        4.625        1.511      248.150       65.884        0.070      332.034        0.431      860.522
12/25/2014  09:23:00     -177.177      261.370      -38.102      113.313      120.798       81.752    12839.740    14592.177     6683.443        6.763        1.706      315.763       56.909        0.032      332.009        0.391      860.510
12/25/2014  09:24:00     -188.441      248.038      -45.704       73.240       97.526       52.722     5364.141     9511.237     2779.579        5.838        0.883      311.501       46.386        0.022      332.022        0.412      860.537
12/25/2014  09:25:00     -169.472      282.246      -37.410      106.989      130.665       69.384    11446.567    17073.414     4814.174        7.155        1.667      329.217       69.333        0.044      332.016        0.401      860.556
12/25/2014  09:26:00     -234.431      222.856      -51.274      122.746      119.744       62.514    15066.460    14338.642     3908.062        7.028        1.666      323.454       65.070        0.040      331.999        0.373      860.542
12/25/2014  09:27:00     -229.428      173.917      -33.601      129.283      108.559       67.733    16714.219    11785.100     4587.737        5.854        1.654      287.896       60.961        0.045      332.043        0.445      860.544
12/25/2014  09:28:00     -183.638      274.967      -42.312       92.813      127.709       69.456     8614.291    16309.672     4824.177        7.043        1.487      330.651       67.272        0.041      332.006        0.384      860.567
12/25/2014  09:29:00     -188.334      328.931      -49.371       98.232      112.630       75.580     9649.564    12685.480     5712.279        8.707        1.402      379.032       67.962        0.032      331.992        0.361      860.584
12/25/2014  09:30:00     -206.514      230.326      -37.414      134.282      165.817       81.033    18031.624    27495.357     6566.417        7.459        2.605      309.351       92.738        0.090      332.008        0.390      860.569
12/25/2014  09:31:00     -352.804      338.132      -75.580      142.510      141.037       82.474    20309.031    19891.555     6801.981       14.575        2.350      488.675       77.654        0.025      331.966        0.318      860.553
12/25/2014  09:32:00     -152.308      139.325      -13.466       76.519      103.478       51.193     5855.205    10707.686     2620.674        3.098        0.959      206.420       37.943        0.034      332.024        0.414      860.521
12/25/2014  09:33:00     -236.966      248.210      -62.111      119.758      144.083       70.435    14341.949    20759.796     4961.034        8.083        2.003      343.164       69.539        0.041      331.992        0.363      860.542
12/25/2014  09:34:00     -175.414      141.507      -36.611      105.262      118.522       64.908    11080.174    14047.567     4212.992        4.073        1.467      225.376       41.081        0.033      332.006        0.386      860.563
12/25/2014  09:35:00     -230.308      274.141      -44.805      139.282      136.509       86.147    19399.495    18634.822     7421.302        8.782        2.273      358.044       80.556        0.051      331.973        0.329      860.589
12/25/2014  09:36:00     -133.755      172.772      -16.539      108.835      117.312       62.715    11844.990    13762.048     3933.184        3.877        1.477      218.496       65.924        0.091      332.019        0.406      860.592
12/25/2014  09:37:00     -134.275      175.040      -37.177       98.210      110.096       46.809     9645.300    12121.222     2191.075        3.700        1.198      220.610       43.832        0.039      332.075        0.500      860.603
12/25/2014  09:38:00     -144.484      176.932      -35.993       89.658       96.291       56.539     8038.481     9272.012     3196.606        3.699        1.025      228.430       56.924        0.062      332.039        0.441      860.608
12/25/2014  09:39:00     -131.752      145.745      -10.921      120.819      112.650       52.225    14597.271    12690.047     2727.449        3.436        1.501      196.470       52.508        0.071      332.037        0.435      860.605
12/25/2014  09:40:00     -128.040       73.799      -10.652       62.883       58.296       39.268     3954.241     3398.402     1541.943        1.542        0.445      147.785       30.746        0.043      332.110        0.558      860.601
12/25/2014  09:41:00     -130.139      160.116      -27.485      137.571       93.958       53.244    18925.812     8828.182     2834.916        3.695        1.529      206.333       72.891        0.125      332.188        0.686      860.607
12/25/2014  09:42:00     -236.860      268.084      -68.843      126.619      130.740       59.377    16032.482    17092.951     3525.588        8.467        1.833      357.732       68.218        0.036      332.040        0.441      860.612
12/25/2014  09:43:00     -203.521      243.868      -38.611       99.097      148.217       73.734     9820.199    21968.151     5436.693        6.980        1.861      317.635       83.663        0.069      332.074        0.498      860.612
12/25/2014  09:44:00     -193.418      223.332      -37.787       99.607       95.950       64.897     9921.592     9206.488     4211.585        5.602        1.167      295.445       70.912        0.058      332.124        0.579      860.617
12/25/2014  09:45:00     -184.799      283.219      -51.151      117.751      121.895       80.514    13865.180    14858.312     6482.498        7.609        1.760      338.177       80.229        0.056      332.093        0.528      860.641
12/25/2014  09:46:00     -231.283      312.820      -60.626      120.215      137.536       65.663    14451.577    18916.062     4311.581        9.634        1.884      389.035       78.786        0.041      332.077        0.501      860.668
12/25/2014  09:47:00     -175.707      223.654      -35.954      125.486      150.146       63.187    15746.791    22543.700     3992.580        6.223        2.114      284.419       60.527        0.045      332.186        0.681      860.680
12/25/2014  09:48:00     -186.926      220.813      -24.075      135.863      117.542       74.481    18458.674    13816.013     5547.384        6.104        1.891      289.309       70.425        0.059      332.228        0.751      860.676
12/25/2014  09:49:00     -219.490      290.659      -44.867       99.385      132.020       62.334     9877.400    17429.302     3885.587        8.293        1.560      364.223       56.391        0.024      332.269        0.819      860.679
12/25/2014  09:50:00     -169.383      256.665      -34.255       98.172      176.190       73.587     9637.702    31043.022     5415.117        7.091        2.305      307.518       76.985        0.063      332.313        0.892      860.665
12/25/2014  09:51:00     -201.274       78.235      -18.024      143.874       82.872       63.380    20699.656     6867.801     4016.972        3.926        1.579      215.945       58.798        0.074      332.469        1.149      860.674
12/25/2014  09:52:00     -262.724      279.223      -58.522      166.311      155.795       79.557    27659.370    24271.989     6329.311       10.433        2.913      383.392       98.243        0.066      332.343        0.941      860.682
12/25/2014  09:53:00     -254.072      241.016      -61.504      130.939      136.018       77.486    17145.081    18500.772     6004.078        8.403        2.082      350.202       88.755        0.064      332.326        0.915      860.675
12/25/2014  09:54:00     -270.406      306.226      -72.873      109.077      125.441       63.510    11897.710    15735.338     4033.555       10.193        1.583      408.526       48.742        0.014      332.321        0.906      860.685
12/25/2014  09:55:00     -199.133      295.277      -44.860       91.768       87.169       61.182     8421.445     7598.356     3743.289        7.431        0.988      356.150       61.432        0.030      332.419        1.066      860.704
12/25/2014  09:56:00     -191.929      264.171      -47.353      104.077      116.617       60.637    10832.058    13599.615     3676.824        6.848        1.405      326.532       62.541        0.037      332.428        1.082      860.723
12/25/2014  09:57:00     -181.755      375.379      -49.987       91.208      110.769       60.929     8318.832    12269.697     3712.395       10.037        1.215      417.067       47.541        0.013      332.367        0.981      860.756
12/25/2014  09:58:00     -196.618      334.595      -57.462       93.429      143.164       61.625     8729.027    20495.812     3797.586        9.346        1.651      388.088       52.803        0.019      332.431        1.087      860.762
12/25/2014  09:59:00     -110.813      117.632      -10.488       80.857       67.283       42.214     6537.923     4526.950     1781.991        1.953        0.642      161.607       29.709        0.034      332.662        1.470      860.759
12/25/2014  10:00:00     -210.612      251.812      -49.943      108.146      122.274       66.810    11695.471    14950.809     4463.589        7.068        1.555      328.278       65.398        0.040      332.458        1.132      860.756
12/25/2014  10:01:00     -134.611       79.569      -16.327      110.391      106.690       51.511    12186.070    11382.847     2653.382        2.546        1.311      156.369       44.310        0.080      332.518        1.232      860.761
12/25/2014  10:02:00     -184.147      130.209      -16.137       97.687      107.610       51.997     9542.794    11579.821     2703.644        3.747        1.191      225.532       36.570        0.026      332.453        1.122      860.760
12/25/2014  10:03:00      -68.528      118.092       -0.221       88.262       96.761       57.285     7790.128     9362.750     3281.517        1.953        1.022      136.535       42.776        0.098      332.614        1.389      860.767
12/25/2014  10:04:00     -101.109      214.543      -18.508       72.181      114.269       54.699     5210.091    13057.407     2991.949        3.892        1.063      237.175       45.254        0.036      332.680        1.498      860.791
12/25/2014  10:05:00      -97.356      193.657      -14.853       80.816      139.886       50.087     6531.232    19567.985     2508.683        3.790        1.430      216.752       52.949        0.060      332.742        1.600      860.811
12/25/2014  10:06:00     -132.719      275.541      -34.913      107.279      123.614       76.818    11508.775    15280.444     5901.015        6.372        1.635      305.838       74.158        0.059      332.572        1.318      860.821
12/25/2014  10:07:00     -147.484      155.675      -28.265       62.790       96.769       48.856     3942.590     9364.178     2386.949        3.124        0.785      214.443       55.594        0.067      332.626        1.408      860.821
12/25/2014  10:08:00     -207.373      297.295      -51.977      119.880      192.317       83.301    14371.188    36985.947     6939.131        9.618        2.915      362.475       97.128        0.072      332.444        1.108      860.857
12/25/2014  10:09:00     -271.764      171.272      -47.222      105.813      102.368       57.131    11196.443    10479.162     3263.961        6.517        1.247      321.231       57.697        0.032      332.463        1.138      860.846
12/25/2014  10:10:00     -156.017      325.281      -23.566      102.934      155.633       78.180    10595.499    24221.522     6112.059        8.581        2.046      360.761       75.605        0.044      332.503        1.204      860.868
12/25/2014  10:11:00     -166.423      159.745      -25.328      108.336      119.020       70.297    11736.784    14165.725     4941.733        4.234        1.542      230.684       56.611        0.060      332.579        1.329      860.866
12/25/2014  10:12:00      -92.417      172.600      -23.214       75.985       95.978       50.805     5773.789     9211.852     2581.187        2.822        0.878      195.784       41.044        0.044      332.674        1.487      860.870
12/25/2014  10:13:00     -168.539      197.351      -33.286      101.907      100.819       61.150    10385.123    10164.391     3739.340        4.637        1.214      259.524       52.500        0.041      332.621        1.399      860.871
12/25/2014  10:14:00     -173.820      205.834      -33.034       91.123       85.714       52.632     8303.413     7346.849     2770.144        4.604        0.921      269.408       46.840        0.030      332.634        1.421      860.865
12/25/2014  10:15:00     -113.042      116.864        0.485       74.796      102.398       53.997     5594.456    10485.438     2915.720        2.271        0.950      162.591       41.604        0.065      332.880        1.830      860.855
12/25/2014  10:16:00     -182.864      146.375      -17.955      159.983      104.661       59.149    25594.720    10953.851     3498.608        4.761        2.002      234.233       69.448        0.088      332.675        1.488      860.846
12/25/2014  10:17:00     -183.291      151.819      -26.731      138.872      111.062       70.531    19285.327    12334.840     4974.690        4.697        1.830      238.001       85.194        0.128      332.734        1.586      860.841
12/25/2014  10:18:00      -78.389      111.498       -9.928       79.291       89.585       61.445     6287.135     8025.556     3775.459        1.838        0.904      136.296       47.420        0.121      332.857        1.791      860.825
12/25/2014  10:19:00      -86.970       84.233       -7.939       74.825       95.139       53.620     5598.829     9051.510     2875.138        1.612        0.876      121.075       51.641        0.182      332.898        1.859      860.823
12/25/2014  10:20:00     -145.704      -35.369       -6.998      107.232      119.883       45.932    11498.737    14371.905     2109.754        2.525        1.399      149.935       35.554        0.056      332.746        1.608      860.787
12/25/2014  10:21:00     -123.563      122.983      -15.496      102.375      102.190       66.403    10480.667    10442.883     4409.395        2.798        1.267      174.335       73.759        0.179      332.832        1.751      860.804
12/25/2014  10:22:00     -156.242      332.572      -29.198      100.471      100.040       67.478    10094.513    10008.071     4553.223        8.026        1.233      367.445       64.652        0.031      332.568        1.313      860.803
12/25/2014  10:23:00     -195.812      189.564      -42.376      134.919      124.035       58.716    18203.153    15384.779     3447.516        5.655        1.852      272.537       70.082        0.066      332.651        1.450      860.785
12/25/2014  10:24:00     -166.330      161.063      -27.229      107.457      102.940       64.603    11547.075    10596.705     4173.571        4.033        1.316      231.532       63.818        0.076      332.718        1.559      860.793
12/25/2014  10:25:00     -163.256      236.856      -39.868       93.867      101.020       54.690     8810.946    10205.039     2990.954        5.317        1.100      287.668       45.365        0.025      332.703        1.536      860.802
12/25/2014  10:26:00     -106.961      103.743      -16.854      101.940       77.685       43.876    10391.825     6034.970     1925.072        2.042        0.918      149.008       42.502        0.081      332.853        1.785      860.787
12/25/2014  10:27:00     -146.871      107.958      -32.639       71.577      104.285       45.409     5123.283    10875.338     2061.956        2.617        0.903      182.281       50.814        0.078      332.775        1.655      860.770
12/25/2014  10:28:00     -146.943       11.208       -7.809       71.959       64.504       55.439     5178.053     4160.807     3073.466        1.709        0.621      147.370       45.039        0.093      332.786        1.675      860.742
12/25/2014  10:29:00      -53.626       75.841        3.945       76.392       71.981       55.374     5835.685     5181.278     3066.332        1.136        0.704       92.885       31.095        0.112      333.002        2.032      860.729
12/25/2014  10:30:00     -134.887      256.054      -33.377      107.400      142.290       60.004    11534.696    20246.574     3600.535        6.012        1.769      289.410       71.412        0.061      332.665        1.474      860.733
12/25/2014  10:31:00     -111.164      185.221      -23.149       76.103       98.001       49.811     5791.617     9604.192     2481.135        3.253        0.894      216.019       26.013        0.015      332.667        1.475      860.724
12/25/2014  10:32:00      -77.535      273.064      -26.420      101.246      116.536       64.415    10250.828    13580.734     4149.354        5.462        1.399      283.858       59.426        0.044      332.653        1.454      860.703
12/25/2014  10:33:00     -142.553      151.687      -33.202       86.315      108.837       51.886     7450.321    11845.435     2692.166        3.321        1.099      208.159       55.369        0.071      332.649        1.448      860.684
12/25/2014  10:34:00     -209.552      264.145      -29.987      152.907      147.718       77.213    23380.426    21820.664     5961.798        8.286        2.558      337.172       79.880        0.056      332.547        1.279      860.696
12/25/2014  10:35:00     -113.870      148.768       -3.338       89.429      103.969       58.441     7997.592    10809.500     3415.351        2.866        1.111      187.345       53.518        0.082      332.584        1.339      860.709
12/25/2014  10:36:00     -154.786       92.613      -35.545       83.628      106.948       59.762     6993.692    11437.812     3571.464        2.790        1.100      180.377       47.919        0.071      332.554        1.288      860.723
12/25/2014  10:37:00     -143.818      117.346      -25.190       91.833      152.722       58.726     8433.218    23324.031     3448.765        3.514        1.760      185.617       54.576        0.086      332.574        1.322      860.730
12/25/2014  10:38:00     -216.055      176.438      -30.313      116.616      148.506       71.422    13599.398    22054.014     5101.133        5.973        2.038      278.945       71.545        0.066      332.520        1.232      860.736
12/25/2014  10:39:00     -152.543      102.095      -22.607      102.764       84.475       56.847    10560.482     7135.980     3231.556        2.756        1.046      183.556       66.145        0.130      332.578        1.330      860.693
12/25/2014  10:40:00     -144.759      149.644      -28.287       71.176       91.252       41.890     5066.026     8326.973     1754.742        2.965        0.757      208.203       37.449        0.032      332.581        1.334      860.683
12/25/2014  10:41:00     -136.367      223.158      -30.022       90.391       99.828       57.350     8170.553     9965.542     3289.005        4.536        1.071      261.525       62.155        0.056      332.634        1.421      860.698
12/25/2014  10:42:00     -138.161       39.787       -1.992       75.510       82.413       50.094     5701.835     6791.929     2509.414        1.784        0.750      143.776       37.624        0.068      332.568        1.314      860.671
12/25/2014  10:43:00     -196.277      249.915      -41.134      106.596      146.459       60.002    11362.677    21450.132     3600.287        6.954        1.821      317.777       58.802        0.034      332.485        1.175      860.678
12/25/2014  10:44:00     -151.791      203.521      -37.431      107.542      100.727       57.899    11565.326    10145.841     3352.271        4.546        1.253      253.892       54.634        0.046      332.504        1.206      860.652
12/25/2014  10:45:00     -117.349      212.623      -29.086       97.992      110.342       47.801     9602.424    12175.281     2284.978        4.194        1.203      242.857       50.258        0.043      332.560        1.300      860.650
12/25/2014  10:46:00      -67.803      190.439      -15.662       48.772       72.236       40.397     2378.707     5218.078     1631.888        2.517        0.461      202.149       36.452        0.033      332.582        1.337      860.602
12/25/2014  10:47:00      -98.837      141.854      -19.420      105.388      118.363       66.753    11106.579    14009.912     4455.935        2.991        1.479      172.891       66.929        0.150      332.557        1.295      860.566
12/25/2014  10:48:00     -174.368      200.366      -32.611      120.737      153.383       58.570    14577.319    23526.447     3430.489        5.657        2.077      265.614       46.874        0.031      332.522        1.234      860.558
12/25/2014  10:49:00     -141.414      241.678      -35.084       94.841       97.460       52.052     8994.802     9498.449     2709.458        5.042        1.060      280.011       55.143        0.039      332.490        1.184      860.558
12/25/2014  10:50:00     -130.600      388.927      -40.559      104.624      136.562       55.123    10946.254    18649.154     3038.554       10.129        1.632      410.269       52.080        0.016      332.455        1.126      860.548
12/25/2014  10:51:00     -118.001      229.654      -29.262       74.499       97.385       56.923     5550.051     9483.775     3240.260        4.289        0.914      258.196       40.479        0.025      332.575        1.324      860.559
12/25/2014  10:52:00      -94.622      219.686      -26.820       66.738       97.192       59.788     4453.977     9446.219     3574.628        3.770        0.874      239.197       52.161        0.048      332.610        1.380      860.557
12/25/2014  10:53:00      -90.692      356.359      -33.269       80.140      107.932       46.340     6422.465    11649.406     2147.386        7.827        1.011      367.718       41.580        0.013      332.545        1.275      860.551
12/25/2014  10:54:00      -87.685      265.069      -28.338       97.991      202.729       65.721     9602.152    41098.889     4319.210        6.688        2.751      279.195       73.849        0.070      332.504        1.206      860.516
12/25/2014  10:55:00      -88.850      120.124       -7.452       68.539       97.975       50.721     4697.594     9599.087     2572.577        1.962        0.843      149.412       41.155        0.076      332.720        1.565      860.517
12/25/2014  10:56:00     -118.520      147.455      -32.416      120.871       81.473       60.926    14609.838     6637.814     3711.991        3.090        1.248      189.183       66.950        0.125      332.647        1.443      860.528
12/25/2014  10:57:00      -32.854       85.326       -2.147       94.055       97.556       68.100     8846.325     9517.090     4637.668        1.568        1.150       91.432       48.862        0.286      332.711        1.551      860.514
12/25/2014  10:58:00     -130.274       91.997       -7.369       90.618       53.558       41.216     8211.640     2868.457     1698.776        1.913        0.639      159.483       40.063        0.063      332.679        1.497      860.548
12/25/2014  10:59:00     -178.586      186.842      -30.976      101.243      102.343       59.785    10250.134    10474.082     3574.298        4.603        1.215      258.462       44.945        0.030      332.532        1.252      860.573
12/25/2014  11:00:00     -173.004      243.395      -46.093      113.929       98.239       65.676    12979.707     9650.859     4313.362        5.911        1.347      298.616       73.523        0.061      332.483        1.171      860.568
12/25/2014  11:01:00     -175.656      221.447      -42.265       86.397       98.597       54.647     7464.406     9721.416     2986.277        5.092        1.009      282.655       46.483        0.027      332.494        1.189      860.564
12/25/2014  11:02:00      -63.221      161.846       -8.651       54.267       81.869       46.108     2944.880     6702.536     2125.964        2.102        0.589      173.756       45.273        0.068      332.647        1.444      860.552
12/25/2014  11:03:00      -93.281      292.918      -28.156      113.774      153.761       72.067    12944.538    23642.439     5193.716        6.853        2.089      307.412       81.739        0.071      332.575        1.324      860.573
12/25/2014  11:04:00     -221.913      270.717      -42.921      118.278      136.687       73.394    13989.667    18683.240     5386.642        8.121        1.903      350.048       72.008        0.042      332.487        1.178      860.597
12/25/2014  11:05:00     -160.864       34.599       -1.483      127.043      222.063       66.333    16139.921    49311.927     4400.061        4.845        3.493      164.543       80.095        0.237      332.535        1.259      860.559
12/25/2014  11:06:00     -156.794      117.030      -18.702      111.833      151.407       64.750    12506.592    22924.097     4192.576        3.912        1.981      195.654       72.487        0.137      332.528        1.247      860.531
12/25/2014  11:07:00     -143.878      160.156      -37.965       77.160      109.350       39.264     5953.742    11957.393     1541.643        3.362        0.973      215.292       36.876        0.029      332.544        1.274      860.543
12/25/2014  11:08:00     -130.547      220.710      -37.740      103.358       99.500       56.577    10682.853     9900.308     3200.999        4.548        1.189      256.428       50.049        0.038      332.581        1.333      860.562
12/25/2014  11:09:00     -147.553      308.888      -40.371      114.225      153.132       64.202    13047.438    23449.289     4121.895        7.971        2.031      342.321       79.133        0.053      332.503        1.205      860.576
12/25/2014  11:10:00     -111.318      176.487      -22.883       90.013       93.564       52.740     8102.337     8754.132     2781.489        3.185        0.982      208.661       57.912        0.077      332.583        1.337      860.562
12/25/2014  11:11:00      -60.581      171.426      -11.128       61.694      111.066       57.266     3806.102    12335.621     3279.360        2.630        0.971      181.816       35.973        0.039      332.576        1.325      860.572
12/25/2014  11:12:00      -89.930      235.595      -28.990       86.782      103.074       50.689     7531.029    10624.327     2569.399        4.257        1.036      252.175       42.718        0.029      332.664        1.472      860.574
12/25/2014  11:13:00     -145.093      146.632      -11.296      123.925       99.895       64.051    15357.395     9978.988     4102.517        3.605        1.472      206.283       72.139        0.122      332.651        1.450      860.584
12/25/2014  11:14:00     -292.927      332.829      -72.763      121.971      184.489       83.244    14876.988    34036.199     6929.635       12.885        2.792      443.375       78.624        0.031      332.476        1.161      860.584
12/25/2014  11:15:00     -292.380      195.628      -38.559      188.292      151.475       91.869    35453.748    22944.713     8439.879        9.603        3.342      351.790       98.653        0.079      332.466        1.143      860.571
12/25/2014  11:16:00     -189.810      260.961      -45.305       97.731      110.084       67.915     9551.405    12118.430     4612.392        6.623        1.314      322.690       68.013        0.044      332.379        1.002      860.573
12/25/2014  11:17:00     -146.111      172.114      -34.094       71.039       76.029       47.024     5046.519     5780.396     2211.225        3.258        0.652      225.769       45.198        0.040      332.475        1.159      860.518
12/25/2014  11:18:00     -138.151      135.541      -19.713       98.645       84.698       47.343     9730.760     7173.731     2241.338        2.849        0.957      193.538       51.385        0.070      332.666        1.475      860.513
12/25/2014  11:19:00     -136.666      153.743      -28.616       81.140       91.730       44.734     6583.644     8414.372     2001.095        3.006        0.850      205.705       42.320        0.042      332.621        1.399      860.512
12/25/2014  11:20:00     -157.042      219.936      -28.752       89.231       98.911       70.748     7962.178     9783.322     5005.269        4.830        1.138      270.248       66.064        0.060      332.531        1.251      860.505
12/25/2014  11:21:00     -246.833      245.017      -44.681      108.307      125.114       62.918    11730.313    15653.637     3958.654        7.714        1.567      347.793       59.166        0.029      332.434        1.090      860.515
12/25/2014  11:22:00     -179.375      203.381      -40.802       72.304       94.898       57.667     5227.882     9005.600     3325.449        4.638        0.878      271.181       48.605        0.032      332.420        1.067      860.489
12/25/2014  11:23:00     -210.900      295.398      -43.540      145.337      134.800       77.183    21122.803    18170.980     5957.186        8.943        2.263      362.958       71.521        0.039      332.471        1.151      860.484
12/25/2014  11:24:00     -124.691       93.373        8.453       91.006       75.819       57.359     8282.063     5748.555     3290.095        2.083        0.866      155.776       54.772        0.124      332.577        1.329      860.484
12/25/2014  11:25:00      -70.352       67.219      -11.227       56.616       71.115       36.856     3205.321     5057.408     1358.388        0.961        0.481       97.303       30.710        0.100      332.711        1.550      860.475
12/25/2014  11:26:00      -89.966      138.699       -0.423       59.434       92.504       47.031     3532.379     8557.060     2211.921        2.081        0.715      165.322       47.142        0.081      332.750        1.614      860.443
12/25/2014  11:27:00      -53.204      216.205      -13.934       76.078      167.602       48.355     5787.860    28090.485     2338.195        4.299        1.811      222.655       59.784        0.072      332.737        1.592      860.446
12/25/2014  11:28:00     -171.715      292.016      -35.811      130.482      110.441       69.210    17025.429    12197.219     4789.976        7.502        1.701      338.761       76.856        0.051      332.592        1.352      860.445
12/25/2014  11:29:00     -189.694      200.515      -36.975      117.683      139.660       68.961    13849.354    19505.018     4755.621        5.783        1.905      276.026       56.948        0.043      332.594        1.353      860.426
12/25/2014  11:30:00     -173.695      326.968      -38.362      138.329      149.182       77.384    19134.889    22255.386     5988.347        9.295        2.369      370.241       88.385        0.057      332.564        1.305      860.409
12/25/2014  11:31:00     -100.882      188.005       -6.811       83.395      129.704       60.656     6954.768    16823.141     3679.160        3.651        1.373      213.361       48.165        0.051      332.690        1.513      860.408
12/25/2014  11:32:00     -186.913      257.701      -49.714      119.735       97.301       67.481    14336.353     9467.478     4553.655        6.608        1.418      318.349       67.945        0.046      332.566        1.310      860.394
12/25/2014  11:33:00     -182.665      268.134      -49.589       94.955       83.448       52.093     9016.492     6963.528     2713.728        6.320        0.935      324.442       56.018        0.030      332.590        1.348      860.377
12/25/2014  11:34:00     -126.934      262.610      -34.336       84.549       90.500       57.583     7148.616     8190.193     3315.768        5.245        0.933      291.679       50.633        0.030      332.798        1.693      860.379
12/25/2014  11:35:00     -155.548      242.083      -39.463      127.823      119.982       64.155    16338.708    14395.700     4115.873        5.960        1.743      287.748       70.023        0.059      332.622        1.402      860.377
12/25/2014  11:36:00     -125.891      233.120      -26.453       83.685      144.078       58.210     7003.108    20758.506     3388.355        5.102        1.557      264.941       50.857        0.037      332.631        1.417      860.373
12/25/2014  11:37:00     -127.066      181.704      -20.894       65.424       77.997       41.656     4280.317     6083.560     1735.241        3.085        0.605      221.725       39.148        0.031      332.612        1.385      860.357
12/25/2014  11:38:00      -56.050      204.489        5.885       59.003       97.465       57.015     3481.406     9499.354     3250.751        3.061        0.812      212.031       61.082        0.083      332.665        1.474      860.337
12/25/2014  11:39:00      -43.285       51.787       -5.782       68.426       60.878       31.104     4682.176     3706.121      967.487        0.697        0.468       67.494       26.105        0.150      332.767        1.644      860.325
12/25/2014  11:40:00      -57.425       31.848        6.841       65.110       57.799       32.573     4239.303     3340.778     1060.980        0.650        0.432       65.665       15.954        0.059      332.680        1.500      860.328
12/25/2014  11:41:00     -123.168      129.426      -37.905      114.905      118.975       47.986    13203.144    14155.087     2302.701        3.150        1.483      178.666       52.274        0.086      332.619        1.396      860.347
12/25/2014  11:42:00      -77.195      117.174      -14.447       92.779       84.105       44.532     8607.999     7073.586     1983.107        1.878        0.883      140.317       38.054        0.074      332.651        1.451      860.375
12/25/2014  11:43:00     -131.881       31.943      -21.945       84.027       63.908       40.054     7060.475     4084.231     1604.319        1.582        0.637      135.694       30.569        0.051      332.646        1.443      860.355
12/25/2014  11:44:00     -146.330      143.347      -17.902      121.427      118.749       59.521    14744.442    14101.255     3542.731        3.733        1.619      204.844       49.168        0.058      332.611        1.383      860.360
12/25/2014  11:45:00     -109.981      194.583      -22.500      108.897       90.234       60.135    11858.536     8142.091     3616.165        3.704        1.181      223.513       57.167        0.065      332.641        1.433      860.342
12/25/2014  11:46:00     -115.536       96.815      -24.338       66.935       89.968       41.113     4480.298     8094.255     1690.310        1.879        0.713      150.737       35.127        0.054      332.720        1.565      860.328
12/25/2014  11:47:00     -238.226      200.864      -24.099      161.911      183.438       82.031    26215.040    33649.681     6729.047        8.212        3.330      311.605       86.399        0.077      332.582        1.336      860.355
12/25/2014  11:48:00     -164.018      204.668      -27.363      105.994      102.721       60.249    11234.827    10551.694     3629.979        4.747        1.271      262.280       63.396        0.058      332.554        1.289      860.349
12/25/2014  11:49:00     -163.230      208.895      -37.485      113.330      100.703       57.832    12843.613    10141.042     3344.483        4.900        1.316      265.106       52.763        0.040      332.534        1.257      860.339
12/25/2014  11:50:00     -132.312      111.989      -13.237       80.552       66.446       49.703     6488.618     4415.079     2470.416        2.180        0.669      173.344       51.606        0.089      332.687        1.510      860.359
12/25/2014  11:51:00     -152.006      127.428       -9.143      124.530       72.797       49.038    15507.653     5299.374     2404.707        3.131        1.161      198.353       42.813        0.047      332.762        1.633      860.368
12/25/2014  11:52:00      -91.154      226.559      -28.814      120.978      134.826       57.732    14635.600    18177.920     3332.978        4.830        1.807      244.209       70.638        0.084      332.761        1.633      860.371
12/25/2014  11:53:00     -122.638      208.243      -16.248      113.080      112.137       59.063    12787.043    12574.711     3488.384        4.375        1.443      241.672       58.929        0.059      332.698        1.527      860.368
12/25/2014  11:54:00     -256.472      189.295      -43.184      146.714      171.912       75.480    21525.109    29553.765     5697.217        8.011        2.839      318.764       64.308        0.041      332.632        1.417      860.354
12/25/2014  11:55:00     -138.842      148.012      -24.120      145.441      248.312       60.405    21153.194    61658.632     3648.809        6.410        4.323      202.940       53.978        0.071      332.602        1.368      860.316
12/25/2014  11:56:00      -73.839      163.355        0.224       66.072      112.016       57.728     4365.567    12547.683     3332.507        2.619        1.012      179.268       52.322        0.085      332.708        1.544      860.311
12/25/2014  11:57:00      -47.640      140.151       -3.932       45.682       87.547       42.926     2086.864     7664.484     1842.609        1.676        0.580      148.026       38.261        0.067      332.739        1.597      860.303
12/25/2014  11:58:00      -48.700      114.745       -4.790       48.553       79.268       38.040     2357.354     6283.388     1447.018        1.282        0.504      124.652       48.319        0.150      332.888        1.843      860.282
12/25/2014  11:59:00      -19.780      141.119      -10.431       56.153       69.542       35.568     3153.124     4836.113     1265.112        1.483        0.463      142.498       38.106        0.072      332.866        1.807      860.281
12/25/2014  12:00:00     -120.776       13.060      -16.829       63.197       78.781       38.695     3993.878     6206.509     1497.332        1.337        0.585      121.480       37.608        0.096      332.853        1.785      860.265
12/25/2014  12:01:00      -67.636       67.044      -12.032       65.288       82.348       48.313     4262.545     6781.153     2334.133        1.129        0.669       95.234       46.459        0.238      332.841        1.765      860.259
12/25/2014  12:02:00     -213.464      230.760      -48.182       90.644      143.418       54.061     8216.354    20568.746     2922.589        6.642        1.585      314.352       52.302        0.028      332.740        1.595      860.290
12/25/2014  12:03:00     -245.404      198.377      -24.629      168.716      107.970       80.648    28464.932    11657.532     6504.047        7.340        2.331      315.557       75.377        0.057      332.573        1.321      860.282
12/25/2014  12:04:00     -151.609      333.495      -55.123      127.182      189.491       70.386    16175.253    35906.673     4954.240        9.713        2.852      366.339       86.902        0.056      332.619        1.397      860.260
12/25/2014  12:05:00     -151.802      289.672      -43.741       94.546      140.375       64.380     8938.965    19705.016     4144.847        7.082        1.639      327.038       59.507        0.033      332.657        1.459      860.261
12/25/2014  12:06:00     -176.328      182.994      -39.183       77.748      217.667       60.521     6044.730    47379.069     3662.793        6.159        2.854      254.123       84.578        0.111      332.682        1.500      860.249
12/25/2014  12:07:00     -131.132      170.628      -28.521       66.953       83.503       49.870     4482.731     6972.827     2486.990        3.053        0.697      215.196       51.118        0.056      332.741        1.598      860.244
12/25/2014  12:08:00     -189.988      143.682      -38.207       96.265       87.027       56.357     9266.865     7573.733     3176.161        3.910        1.001      238.201       39.346        0.027      332.724        1.570      860.254
12/25/2014  12:09:00     -248.561      228.850      -31.883      129.741      152.336       87.173    16832.611    23206.374     7599.143        8.140        2.382      337.869       75.581        0.050      332.686        1.507      860.254
12/25/2014  12:10:00     -207.855      180.781      -30.241      130.559      134.779       75.425    17045.661    18165.492     5688.883        5.884        2.045      275.474       75.625        0.075      332.732        1.582      860.233
12/25/2014  12:11:00      -68.022      223.751      -32.471      117.647       74.456       54.512    13840.760     5543.700     2971.538        3.905        1.118      233.862       55.134        0.056      332.727        1.576      860.261
12/25/2014  12:12:00     -141.471      130.026      -29.874      122.334      110.644       59.657    14965.502    12241.991     3558.909        3.428        1.538      192.148       69.595        0.131      332.749        1.614      860.231
12/25/2014  12:13:00     -120.519      171.043       -6.127       90.306      116.190       55.803     8155.192    13500.142     3113.965        3.429        1.238      209.238       61.105        0.085      332.797        1.690      860.251
12/25/2014  12:14:00     -161.245      105.172      -25.711      123.785       80.387       52.503    15322.696     6462.069     2756.615        3.113        1.227      192.513       43.381        0.051      332.741        1.598      860.247
12/25/2014  12:15:00     -182.696      194.714      -51.369       85.723       75.040       45.526     7348.479     5630.958     2072.607        4.449        0.753      267.005       48.404        0.033      332.731        1.582      860.241
12/25/2014  12:16:00     -110.482      345.440      -34.311      117.272      178.490       72.403    13752.767    31858.585     5242.230        9.177        2.543      362.678       82.567        0.052      332.717        1.559      860.232
12/25/2014  12:17:00     -187.699      242.517      -54.087      116.835      104.134       60.880    13650.395    10843.875     3706.373        6.258        1.410      306.668       55.735        0.033      332.670        1.480      860.218
12/25/2014  12:18:00      -75.882      216.422       -3.045      116.708      106.741       81.875    13620.695    11393.613     6703.537        4.216        1.586      229.339       77.927        0.115      332.740        1.596      860.222
12/25/2014  12:19:00     -246.176      252.861      -52.938      146.790      169.072       79.826    21547.359    28585.251     6372.212        9.191        2.825      352.904       88.512        0.063      332.692        1.518      860.203
12/25/2014  12:20:00     -195.142      169.658      -40.398      118.417      114.900       58.328    14022.628    13202.047     3402.199        4.956        1.531      258.581       68.684        0.071      332.692        1.517      860.204
12/25/2014  12:21:00     -163.908      201.512      -44.893       84.792       84.486       50.120     7189.716     7137.871     2511.988        4.316        0.842      259.756       43.735        0.028      332.722        1.567      860.211
12/25/2014  12:22:00      -85.727       68.995        5.231      104.849       81.623       55.365    10993.229     6662.388     3065.246        1.642        1.036      110.042       62.050        0.318      332.786        1.674      860.180
12/25/2014  12:23:00      -57.457      275.512      -23.726       76.364      140.487       53.801     5831.399    19736.575     2894.509        5.411        1.423      281.439       55.612        0.039      332.776        1.655      860.187
12/25/2014  12:24:00     -117.590      340.787      -48.336      113.657      158.000       68.105    12917.960    24964.125     4638.268        8.740        2.126      360.504       75.185        0.043      332.806        1.705      860.195
12/25/2014  12:25:00     -110.160      347.586      -35.708      104.792       98.916       61.925    10981.388     9784.297     3834.677        7.941        1.230      364.625       62.158        0.029      332.787        1.673      860.188
12/25/2014  12:26:00     -183.464      216.301      -39.981       99.260      105.327       52.488     9852.639    11093.854     2754.977        5.287        1.185      283.629       43.725        0.024      332.939        1.924      860.183
12/25/2014  12:27:00      -82.422      234.955       -7.887       87.199      110.781       67.284     7603.617    12272.479     4527.196        4.323        1.220      248.992       63.254        0.065      332.884        1.835      860.183
12/25/2014  12:28:00      -87.220       58.400        6.064       71.681       76.098       48.779     5138.106     5790.978     2379.423        1.218        0.665      104.966       41.932        0.160      333.153        2.281      860.137
12/25/2014  12:29:00     -100.749       45.210       -3.652       61.190       74.257       50.427     3744.237     5514.167     2542.874        1.200        0.590      110.428       40.317        0.133      333.216        2.385      860.161
12/25/2014  12:30:00     -170.893      317.408      -34.909      167.900      161.519       86.734    28190.324    26088.547     7522.795        9.647        3.090      360.489       98.357        0.074      332.967        1.971      860.136
12/25/2014  12:31:00     -369.433       28.727      -51.017      171.319      161.407       72.651    29350.299    26052.336     5278.222       10.028        3.034      370.548       70.685        0.036      332.857        1.789      860.092
12/25/2014  12:32:00      -80.829       36.620        4.802       97.874      101.104       68.133     9579.321    10222.081     4642.040        1.617        1.222       88.738       51.418        0.336      333.035        2.086      860.096
12/25/2014  12:33:00     -131.521      190.317      -32.964      126.239      137.201       63.366    15936.193    18824.013     4015.252        4.668        1.939      231.341       72.294        0.098      332.881        1.830      860.069
12/25/2014  12:34:00     -102.250      141.904      -10.938       78.139      126.593       50.849     6105.779    16025.686     2585.581        2.771        1.236      174.906       57.891        0.110      332.980        1.994      860.035
12/25/2014  12:35:00     -151.811       83.729      -31.649       81.031      145.737       58.468     6566.052    21239.233     3418.534        3.114        1.561      173.370       45.579        0.069      332.825        1.737      860.002
12/25/2014  12:36:00     -126.419      100.779       -8.945       85.407       99.694       51.485     7294.348     9938.898     2650.695        2.305        0.994      161.673       47.062        0.085      332.902        1.866      860.014
12/25/2014  12:37:00      -68.839      134.012      -15.037       63.623       82.955       35.000     4047.840     6881.540     1224.989        1.754        0.608      150.659       27.146        0.032      332.770        1.647      860.016
12/25/2014  12:38:00     -137.250       86.975      -28.711       79.222       55.697       38.754     6276.155     3102.152     1501.858        1.905        0.544      162.488       37.273        0.053      332.875        1.821      860.022
12/25/2014  12:39:00     -136.309      110.315      -17.182      112.408       95.320       58.098    12635.655     9085.852     3375.353        2.807        1.255      175.355       54.904        0.098      332.920        1.895      860.024
12/25/2014  12:40:00      -72.877      246.004      -27.564       76.057      171.792       46.804     5784.710    29512.346     2190.591        5.203        1.874      256.572       60.043        0.055      332.966        1.970      860.038
12/25/2014  12:41:00     -135.612      107.234      -37.193      112.482       89.931       46.330    12652.288     8087.551     2146.490        2.708        1.144      172.887       60.108        0.121      332.988        2.007      860.047
12/25/2014  12:42:00     -157.450      208.493      -40.795       96.877      109.525       62.208     9385.164    11995.704     3869.874        4.758        1.263      261.266       46.958        0.032      332.862        1.797      860.048
12/25/2014  12:43:00      -70.880      340.635      -18.862       93.750      142.941       71.859     8789.061    20432.150     5163.773        7.789        1.719      347.931       67.589        0.038      332.869        1.809      860.054
12/25/2014  12:44:00     -209.180      183.195      -49.588       95.075      159.814       59.546     9039.249    25540.424     3545.684        5.894        1.906      278.059       54.730        0.039      332.895        1.852      860.065
12/25/2014  12:45:00     -116.483      203.899      -18.525       99.927      126.510       63.641     9985.482    16004.875     4050.234        4.276        1.502      234.825       51.672        0.048      332.939        1.925      860.062
12/25/2014  12:46:00     -166.981      160.671      -26.090       79.221       79.330       56.716     6275.891     6293.299     3216.694        3.508        0.789      231.728       46.423        0.040      332.951        1.945      860.080
12/25/2014  12:47:00      -67.534      237.826      -33.171       62.047      131.682       41.622     3849.791    17340.105     1732.413        4.257        1.146      247.229       49.510        0.040      332.904        1.866      860.106
12/25/2014  12:48:00     -125.486      262.319      -30.995       87.464      112.884       57.182     7649.895    12742.840     3269.837        5.459        1.183      290.789       54.445        0.035      332.880        1.828      860.104
12/25/2014  12:49:00     -162.657      271.970      -30.369       84.099      151.877       62.434     7072.675    23066.482     3897.983        6.769        1.702      316.899       56.318        0.032      332.837        1.758      860.107
12/25/2014  12:50:00     -132.539      120.681      -11.733       91.459      107.021       57.618     8364.836    11453.572     3319.870        2.770        1.157      179.249       55.864        0.097      332.853        1.783      860.090
12/25/2014  12:51:00     -154.625      218.787      -33.333      108.707       95.566       66.551    11817.134     9132.795     4429.010        4.913        1.269      267.912       65.782        0.060      332.812        1.716      860.088
12/25/2014  12:52:00     -273.770      341.849      -65.643       99.585      131.165       65.928     9917.236    17204.362     4346.558       11.379        1.573      437.961       59.893        0.019      332.747        1.608      860.104
12/25/2014  12:53:00     -112.769      268.606      -31.998       73.070      141.252       57.896     5339.249    19952.197     3351.936        5.726        1.432      291.318       67.050        0.053      332.827        1.740      860.121
12/25/2014  12:54:00     -127.029      185.315      -26.476       66.604       60.549       41.360     4436.121     3666.144     1710.670        3.049        0.491      224.673       33.733        0.023      332.899        1.858      860.117
12/25/2014  12:55:00     -112.239      289.821      -35.431       60.216      105.873       40.875     3626.004    11209.177     1670.789        5.717        0.825      310.795       41.083        0.017      332.848        1.775      860.114
12/25/2014  12:56:00      -92.263      136.296      -22.345       74.680       72.707       36.832     5577.122     5286.315     1356.612        1.990        0.611      164.587       28.063        0.029      333.029        2.075      860.116
12/25/2014  12:57:00     -115.674      235.595      -26.998      106.710      126.231       69.501    11386.927    15934.342     4830.367        5.088        1.608      262.460       68.558        0.068      332.826        1.739      860.117
12/25/2014  12:58:00      -73.349      131.807       -1.376      109.641      112.434       73.206    12021.096    12641.311     5359.099        2.638        1.501      150.842       78.468        0.271      332.978        1.992      860.088
12/25/2014  12:59:00      -98.826      259.485      -42.032       52.858      105.061       38.992     2793.935    11037.913     1520.403        4.711        0.768      277.667       31.105        0.013      332.862        1.798      860.089
12/25/2014  13:00:00      -42.668      182.024      -11.127       64.144      113.457       46.574     4114.470    12872.485     2169.152        2.711        0.958      186.958       48.609        0.068      332.974        1.984      860.070
12/25/2014  13:01:00      -72.568      244.468      -23.066       67.740      184.156       53.748     4588.696    33913.455     2888.820        5.347        2.070      255.012       61.640        0.058      332.912        1.882      860.060
12/25/2014  13:02:00     -167.569       96.449      -43.394      129.404      118.366       50.015    16745.373    14010.423     2501.500        3.625        1.663      193.344       33.590        0.030      332.906        1.870      860.052
12/25/2014  13:03:00     -148.952      234.017      -39.511       84.750      101.083       51.361     7182.627    10217.861     2637.981        4.927        1.002      277.400       54.936        0.039      332.840        1.762      860.049
12/25/2014  13:04:00      -63.421      180.889      -20.785       55.434       94.660       34.132     3072.939     8960.426     1164.997        2.518        0.660      191.685       31.590        0.027      332.967        1.971      860.038
12/25/2014  13:05:00     -151.571      127.815      -27.114      113.487      146.292       61.224    12879.252    21401.336     3748.407        3.903        1.901      198.269       61.356        0.096      333.021        2.061      860.015
12/25/2014  13:06:00     -196.875      184.852      -43.940       95.827      102.901       58.094     9182.723    10588.525     3374.940        4.900        1.157      270.056       58.980        0.048      333.060        2.124      860.017
12/25/2014  13:07:00      -72.834      338.353      -44.328       94.326       71.010       46.015     8897.472     5042.468     2117.402        6.890        0.803      346.103       24.011        0.005      332.763        1.633      860.009
12/25/2014  13:08:00      -41.098      247.503      -14.818       69.455      139.643       54.838     4823.941    19500.101     3007.215        4.524        1.367      250.892       65.008        0.067      332.850        1.779      859.972
12/25/2014  13:09:00      -70.092      182.605      -19.736       52.387      104.787       41.776     2744.381    10980.360     1745.260        2.706        0.774      195.596       43.230        0.049      333.033        2.082      859.956
12/25/2014  13:10:00     -121.274       92.137       -6.837       82.534       92.215       42.081     6811.852     8503.684     1770.833        2.016        0.854      152.305       36.889        0.059      333.219        2.389      859.974
12/25/2014  13:11:00      -85.020      156.306       -7.769       61.945      107.848       43.841     3837.235    11631.236     1922.033        2.455        0.870      177.932       49.015        0.076      332.984        2.000      859.973
12/25/2014  13:12:00      -96.809      106.346      -11.071       78.307       83.914       34.683     6132.050     7041.485     1202.908        1.759        0.719      143.811       33.071        0.053      333.031        2.079      859.968
12/25/2014  13:13:00     -135.059       68.444       -7.611      120.089       69.221       46.273    14421.473     4791.613     2141.224        2.216        1.068      151.411       50.200        0.110      332.950        1.946      859.940
12/25/2014  13:14:00     -100.289       90.878       -3.946       92.602       95.934       58.414     8575.186     9203.388     3412.211        1.976        1.060      135.339       64.079        0.224      332.930        1.912      859.914
12/25/2014  13:15:00     -116.718       61.852       -9.602       95.665       76.087       50.793     9151.873     5789.211     2579.913        1.753        0.876      132.093       56.534        0.183      332.928        1.908      859.917
12/25/2014  13:16:00      -84.801      103.634      -18.658       52.081       66.055       39.965     2712.426     4363.294     1597.232        1.347        0.434      133.908       25.172        0.035      332.985        2.004      859.902
12/25/2014  13:17:00     -101.231       42.923       -2.624       81.373       80.933       45.639     6621.596     6550.176     2082.890        1.367        0.763      109.955       37.565        0.117      332.991        2.013      859.903
12/25/2014  13:18:00      -95.447       50.984      -17.056       86.021       82.416       52.347     7399.653     6792.423     2740.222        1.446        0.847      108.211       46.727        0.186      332.940        1.928      859.901
12/25/2014  13:19:00     -154.061      156.391      -31.079      116.230       96.844       55.528    13509.337     9378.747     3083.376        3.756        1.299      219.529       52.704        0.058      332.887        1.841      859.924
12/25/2014  13:20:00     -194.350      199.276      -52.587      121.826      104.686       55.972    14841.570    10959.241     3132.903        5.459        1.447      278.358       58.454        0.044      332.940        1.927      859.912
12/25/2014  13:21:00      -62.285      186.080      -15.984       83.996      184.565       59.269     7055.339    34064.257     3512.791        4.169        2.232      196.228       79.921        0.166      332.915        1.885      859.916
12/25/2014  13:22:00     -109.050      290.175      -28.922      128.279      171.854       55.142    16455.597    29533.717     3040.601        7.297        2.451      309.990       51.421        0.028      332.866        1.802      859.896
12/25/2014  13:23:00      -61.893      244.288      -23.927       65.690      112.778       38.851     4315.159    12718.789     1509.364        4.131        0.927      252.006       33.506        0.018      332.969        1.975      859.924
12/25/2014  13:24:00     -116.824       87.489      -22.205      119.420       83.498       47.402    14261.156     6971.869     2246.941        2.263        1.174      145.953       50.254        0.119      332.942        1.932      859.932
12/25/2014  13:25:00     -207.843      252.986      -58.146      101.865      146.382       51.991    10376.537    21427.701     2703.103        7.254        1.725      327.416       57.121        0.030      332.796        1.688      859.948
12/25/2014  13:26:00      -97.362      212.937      -29.491       90.003      107.336       53.997     8100.522    11520.981     2915.682        3.911        1.127      234.140       59.807        0.065      332.809        1.711      859.920
12/25/2014  13:27:00     -116.723      170.070      -20.653       62.695       99.156       48.146     3930.712     9831.831     2318.005        2.952        0.804      206.271       35.953        0.030      332.933        1.915      859.924
12/25/2014  13:28:00     -136.645       87.699      -25.229       98.811       79.842       46.249     9763.553     6374.820     2138.957        2.263        0.914      162.366       38.352        0.056      332.894        1.852      859.915
12/25/2014  13:29:00      -68.925      205.057      -18.684       69.757       66.404       44.455     4866.046     4409.471     1976.274        2.920        0.563      216.330       43.138        0.040      332.842        1.765      859.903
12/25/2014  13:30:00      -39.880      150.051       -8.117       43.496       59.237       35.924     1891.936     3508.997     1290.558        1.543        0.335      155.260       32.202        0.043      332.981        1.997      859.897
12/25/2014  13:31:00      -61.951      261.115      -19.892       62.379       89.000       55.221     3891.084     7921.088     3049.342        4.364        0.743      268.364       47.875        0.032      332.939        1.924      859.904
12/25/2014  13:32:00      -52.718      247.682      -21.580       67.945       99.277       33.913     4616.522     9856.022     1150.090        4.010        0.781      253.230       40.100        0.025      332.891        1.845      859.893
12/25/2014  13:33:00      -50.521      123.804      -13.857       49.316       62.664       31.956     2432.106     3926.757     1021.165        1.272        0.369      133.716       26.556        0.039      333.108        2.205      859.881
12/25/2014  13:34:00     -107.750      159.518      -21.096       51.915       90.388       33.995     2695.184     8169.964     1155.641        2.476        0.601      192.500       39.227        0.042      332.960        1.962      859.885
12/25/2014  13:35:00     -109.470       97.055      -11.199       95.800      111.251       53.269     9177.559    12376.881     2837.545        2.296        1.220      146.299       57.440        0.154      332.982        1.998      859.892
12/25/2014  13:36:00      -97.699       98.873       -4.218       70.462       53.818       44.695     4964.860     2896.352     1997.607        1.460        0.493      139.000       33.582        0.058      333.061        2.130      859.907
12/25/2014  13:37:00      -90.183      330.116      -28.600       72.431      109.951       59.730     5246.295    12089.252     3567.687        6.941        1.045      342.213       59.925        0.031      332.855        1.786      859.900
12/25/2014  13:38:00      -97.275      149.018      -20.604       59.792      125.300       44.326     3575.103    15700.151     1964.759        2.666        1.062      177.957       29.434        0.027      332.989        2.010      859.894
12/25/2014  13:39:00     -120.562      127.212      -30.782       72.017       80.248       50.481     5186.505     6439.732     2548.308        2.292        0.709      175.266       50.735        0.084      333.013        2.048      859.904
12/25/2014  13:40:00     -106.364      213.844      -13.349       69.984       99.308       49.346     4897.828     9861.998     2435.020        3.720        0.860      238.835       54.278        0.052      332.948        1.940      859.895
12/25/2014  13:41:00      -38.745      120.935        5.652       42.027       62.020       39.937     1766.253     3846.435     1594.928        1.168        0.360      126.990       41.839        0.109      333.080        2.160      859.900
12/25/2014  13:42:00     -126.310      101.688      -17.354       79.622       87.484       63.510     6339.629     7653.374     4033.493        2.231        0.901      162.157       60.051        0.137      333.122        2.227      859.907
12/25/2014  13:43:00     -117.733      239.368      -34.513       82.578       85.629       44.143     6819.204     7332.331     1948.646        4.422        0.805      266.755       39.118        0.022      332.941        1.928      859.940
12/25/2014  13:44:00     -177.615      242.931      -42.509       84.169      106.672       47.308     7084.459    11379.007     2238.001        5.653        1.035      300.936       46.298        0.024      332.893        1.849      859.947
12/25/2014  13:45:00      -98.719       61.195      -16.854       83.535       69.237       38.423     6978.020     4793.721     1476.314        1.351        0.662      116.147       36.421        0.098      333.050        2.109      859.936
12/25/2014  13:46:00     -108.349      113.034      -22.428       70.388       73.965       35.716     4954.448     5470.854     1275.632        1.836        0.585      156.576       41.952        0.072      332.953        1.949      859.933
12/25/2014  13:47:00      -74.260       39.053       -1.673       57.250       58.588       41.127     3277.513     3432.569     1691.393        0.772        0.420       83.902       31.230        0.139      333.046        2.103      859.935
12/25/2014  13:48:00     -159.400        3.039       -9.688       85.836       96.769       52.773     7367.833     9364.236     2784.967        2.251        0.976      159.429       55.330        0.120      332.907        1.873      859.942
12/25/2014  13:49:00     -147.234       -0.672       -4.036      113.107       80.293       53.056    12793.182     6447.020     2814.897        2.187        1.103      147.236       62.715        0.181      332.980        1.993      859.943
12/25/2014  13:50:00     -126.858      -22.953        2.405       70.133       91.648       50.912     4918.691     8399.325     2592.023        1.626        0.796      128.918       42.115        0.107      332.974        1.985      859.929
12/25/2014  13:51:00     -135.868       -9.220      -19.425       60.815       68.425       42.928     3698.467     4682.017     1842.771        1.457        0.511      136.180       37.704        0.077      332.985        2.003      859.930
12/25/2014  13:52:00     -126.681       22.883      -16.870       61.542       60.861       38.743     3787.429     3704.107     1501.031        1.292        0.450      128.731       45.425        0.125      332.979        1.994      859.937
12/25/2014  13:53:00     -102.206      124.278      -18.652       61.814       94.519       35.678     3820.920     8933.780     1272.901        2.013        0.701      160.907       35.083        0.048      333.014        2.052      859.936
12/25/2014  13:54:00      -69.844      169.838      -10.545       47.837       72.828       43.018     2288.398     5303.987     1850.519        2.164        0.472      183.638       31.647        0.030      333.133        2.248      859.943
12/25/2014  13:55:00      -66.140      163.466      -22.264       56.747      109.438       39.599     3220.256    11976.757     1568.047        2.417        0.838      176.339       27.510        0.024      333.021        2.061      859.932
12/25/2014  13:56:00      -79.472      186.481      -17.145       49.599       83.960       39.356     2460.017     7049.212     1548.899        2.622        0.553      202.709       33.201        0.027      333.051        2.110      859.942
12/25/2014  13:57:00      -99.150       57.212      -17.065       47.068       64.930       31.914     2215.394     4215.844     1018.474        1.042        0.372      114.472       33.161        0.084      333.059        2.125      859.935
12/25/2014  13:58:00     -131.548        9.050       -9.935       55.184       87.400       51.019     3045.304     7638.843     2602.983        1.538        0.664      131.859       53.435        0.164      332.923        1.900      859.946
12/25/2014  13:59:00      -81.689      102.267       -9.804       53.814       67.888       41.150     2895.989     4608.713     1693.357        1.321        0.460      130.888       15.257        0.014      332.998        2.024      859.956
12/25/2014  14:00:00     -159.906       42.678      -29.231      113.895       71.034       44.561    12972.107     5045.769     1985.676        2.412        1.000      165.503       37.545        0.051      332.942        1.930      859.978
12/25/2014  14:01:00     -137.675       37.603      -15.851       69.223       93.898       49.434     4791.844     8816.908     2443.720        1.833        0.803      142.718       33.969        0.057      332.928        1.908      859.967
12/25/2014  14:02:00     -139.254       82.857      -23.166      110.475       70.789       52.388    12204.836     5011.039     2744.467        2.337        0.998      162.040       59.362        0.134      332.936        1.920      859.995
12/25/2014  14:03:00     -105.953       40.655       -3.251       78.921      122.444       39.805     6228.572    14992.416     1584.475        1.784        1.140      113.485       42.145        0.138      332.984        2.000      859.987
12/25/2014  14:04:00     -182.726       51.976      -38.923       83.267       71.250       46.282     6933.442     5076.577     2141.991        2.588        0.708      189.974       36.839        0.038      332.883        1.834      859.972
12/25/2014  14:05:00     -114.857       25.737       -6.379       74.633      105.907       47.686     5570.065    11216.354     2273.908        1.647        0.953      117.705       30.928        0.069      332.927        1.908      859.966
12/25/2014  14:06:00      -99.304       43.925      -27.137       69.649       88.180       35.962     4851.023     7775.750     1293.289        1.322        0.696      108.585       33.956        0.098      332.935        1.920      859.957
12/25/2014  14:07:00     -125.512       78.468      -12.808      100.125       98.320       49.992    10024.932     9666.851     2499.195        2.213        1.110      148.022       42.624        0.083      332.934        1.918      859.961
12/25/2014  14:08:00     -159.014       59.703      -23.950       82.100       66.991       49.478     6740.475     4487.772     2448.115        2.155        0.684      169.853       44.920        0.070      332.923        1.900      859.981
12/25/2014  14:09:00      -97.113      115.275      -23.637       67.138      109.147       40.878     4507.456    11913.132     1670.999        2.068        0.905      150.729       31.690        0.044      332.902        1.865      859.981
12/25/2014  14:10:00     -136.707       71.078       -6.855      107.705       61.254       48.373    11600.329     3752.020     2339.915        2.074        0.885      154.081       57.786        0.141      333.022        2.065      859.974
12/25/2014  14:11:00     -133.784       63.142      -11.144       60.844       72.997       39.050     3702.023     5328.612     1524.879        1.628        0.528      147.936       36.409        0.061      332.955        1.953      859.978
12/25/2014  14:12:00     -171.603       10.700      -16.213      110.942      128.443       56.988    12308.056    16497.687     3247.635        3.093        1.603      171.937       56.027        0.106      332.899        1.861      859.968
12/25/2014  14:13:00     -189.213       42.689      -31.280      126.710      104.544       70.182    16055.349    10929.420     4925.508        3.525        1.596      193.969       80.487        0.172      332.869        1.812      859.946
12/25/2014  14:14:00     -280.677      109.846      -52.908       99.531       97.969       57.015     9906.494     9597.977     3250.717        5.820        1.138      301.407       43.011        0.020      332.848        1.776      859.925
12/25/2014  14:15:00     -200.026       36.088      -30.964       80.800       93.685       49.918     6528.705     8776.970     2491.832        3.003        0.890      203.255       47.955        0.056      332.832        1.749      859.914
12/25/2014  14:16:00     -158.712       44.555      -33.208       80.412       84.971       51.374     6466.168     7220.118     2639.307        2.230        0.816      164.847       39.603        0.058      332.938        1.925      859.903
12/25/2014  14:17:00     -115.058       50.039      -22.571       67.653       85.848       55.479     4576.993     7369.918     3077.919        1.564        0.751      125.468       34.249        0.075      333.049        2.108      859.891
12/25/2014  14:18:00     -163.338       65.026      -27.954       78.772      107.702       57.757     6205.056    11599.734     3335.841        2.641        1.057      175.806       34.477        0.038      332.973        1.983      859.902
12/25/2014  14:19:00      -84.862       95.766      -11.515       82.797      109.335       56.927     6855.329    11954.136     3240.696        1.927        1.103      127.956       51.129        0.160      333.007        2.038      859.888
12/25/2014  14:20:00     -141.890       73.887      -28.926       74.438      125.668       42.793     5540.961    15792.461     1831.279        2.479        1.158      159.975       29.892        0.035      333.082        2.162      859.880
12/25/2014  14:21:00     -106.367      112.486      -11.462       52.140       70.727       42.530     2718.594     5002.344     1808.784        1.681        0.476      154.813       38.390        0.061      333.041        2.094      859.885
12/25/2014  14:22:00      -99.036      108.957       -8.834       47.746       97.812       44.638     2279.706     9567.257     1992.535        1.780        0.692      147.240       45.331        0.095      332.947        1.939      859.883
12/25/2014  14:23:00     -106.261      116.414       -9.218       68.475       65.618       40.109     4688.777     4305.785     1608.759        1.776        0.530      157.619       35.167        0.050      332.991        2.013      859.867
12/25/2014  14:24:00     -224.398       67.442      -33.319       80.898      120.854       54.808     6544.418    14605.764     3003.946        4.008        1.208      234.314       53.100        0.051      332.890        1.845      859.836
12/25/2014  14:25:00     -220.894       87.741      -42.356      129.133       83.093       49.753    16675.304     6904.515     2475.312        4.217        1.303      237.682       46.370        0.038      332.906        1.872      859.815
12/25/2014  14:26:00     -236.977       62.516      -15.034      156.414      149.013       72.591    24465.375    22204.982     5269.408        5.611        2.597      245.084       54.562        0.050      332.851        1.781      859.829
12/25/2014  14:27:00     -186.404       85.601      -34.529       79.821       63.100       62.580     6371.369     3981.655     3916.264        2.876        0.713      205.119       39.642        0.037      332.902        1.865      859.839
12/25/2014  14:28:00     -158.439       29.296      -18.668       80.252       84.681       49.106     6440.345     7170.839     2411.352        2.116        0.801      161.125       29.765        0.034      332.857        1.792      859.852
12/25/2014  14:29:00     -192.702      205.931      -54.669       80.150      116.848       59.554     6424.092    13653.466     3546.738        5.307        1.181      282.031       43.421        0.024      332.835        1.753      859.841
12/25/2014  14:30:00     -147.153       21.706      -29.194       68.797       49.745       43.276     4733.031     2474.582     1872.779        1.603        0.454      148.745       28.962        0.038      332.909        1.878      859.826
12/25/2014  14:31:00     -109.501      183.482      -24.749       71.769       84.668       55.187     5150.850     7168.665     3045.648        3.081        0.768      213.673       47.032        0.048      332.965        1.968      859.822
12/25/2014  14:32:00      -95.014      144.321      -13.823       71.985       78.019       40.905     5181.799     6086.915     1673.200        2.149        0.647      172.790       43.750        0.064      333.031        2.077      859.810
12/25/2014  14:33:00      -64.175      141.687      -11.300       62.970       94.610       46.631     3965.231     8951.133     2174.493        1.970        0.755      155.543       46.271        0.088      333.139        2.256      859.817
12/25/2014  14:34:00     -121.671      114.352      -21.000       80.197       73.891       45.015     6431.565     5459.880     2026.327        2.112        0.696      166.973       36.321        0.047      333.180        2.324      859.797
12/25/2014  14:35:00     -149.997      124.595      -14.408       94.908       73.507       44.897     9007.515     5403.344     2015.771        2.733        0.821      194.995       43.118        0.049      333.143        2.262      859.809
12/25/2014  14:36:00     -126.766      288.174      -30.293       70.364       94.302       48.434     4951.055     8892.907     2345.830        5.811        0.809      314.823       44.981        0.020      333.122        2.226      859.802
12/25/2014  14:37:00     -121.394      132.152      -21.048       84.966      107.101       55.760     7219.174    11470.561     3109.151        2.722        1.090      179.445       54.685        0.093      333.286        2.500      859.826
12/25/2014  14:38:00      -92.443      117.402       -5.106       87.518       87.023       53.413     7659.384     7573.043     2852.920        2.022        0.904      149.429       51.356        0.118      333.315        2.547      859.836
12/25/2014  14:39:00     -166.541      281.418      -38.468      117.287      129.391       71.643    13756.154    16742.028     5132.787        7.201        1.782      327.004       66.319        0.041      333.068        2.137      859.846
12/25/2014  14:40:00     -137.749      207.313      -30.017      117.838      117.502       66.295    13885.896    13806.774     4395.020        4.746        1.604      248.904       68.255        0.075      333.031        2.076      859.861
12/25/2014  14:41:00      -99.932      164.321      -12.956       72.515       84.334       46.601     5258.377     7112.191     2171.629        2.585        0.727      192.322       38.878        0.041      333.101        2.194      859.862
12/25/2014  14:42:00      -86.137      253.943      -32.183       72.791       62.631       45.081     5298.532     3922.702     2032.278        4.210        0.563      268.154       37.344        0.019      333.025        2.067      859.874
12/25/2014  14:43:00      -93.770      165.127      -12.402       64.411      129.826       54.328     4148.825    16854.897     2951.479        3.008        1.198      189.894       61.956        0.106      333.115        2.217      859.909
12/25/2014  14:44:00     -134.493      330.556      -45.894       72.990       97.171       54.043     5327.567     9442.281     2920.631        7.357        0.885      356.869       46.649        0.017      332.996        2.017      859.947
12/25/2014  14:45:00      -84.438      297.270      -36.804       61.727       77.463       42.897     3810.202     6000.538     1840.113        5.425        0.583      309.029       33.589        0.012      333.004        2.031      859.956
12/25/2014  14:46:00      -41.694      166.318      -14.381       73.411       85.942       40.181     5389.107     7385.999     1614.543        2.200        0.719      171.465       40.917        0.057      333.118        2.223      859.965
12/25/2014  14:47:00        6.594      190.734      -17.514       65.689      131.350       55.317     4314.991    17252.826     3060.014        3.067        1.231      190.848       70.392        0.136      333.096        2.186      859.957
12/25/2014  14:48:00      -35.639      357.438      -41.194       66.611      123.157       44.128     4436.978    15167.742     1947.308        7.614        1.078      359.210       48.447        0.018      333.010        2.043      859.946
12/25/2014  14:49:00      -66.957      357.563      -31.788       76.643      115.084       60.340     5874.221    13244.261     3640.970        7.805        1.138      363.778       53.033        0.021      332.998        2.021      859.924
12/25/2014  14:50:00     -100.573      274.289      -30.739       61.169       81.482       48.257     3741.654     6639.378     2328.699        4.950        0.635      292.147       33.467        0.013      333.090        2.174      859.922
12/25/2014  14:51:00      -85.446      114.587      -25.149       62.003       92.920       42.714     3844.426     8634.130     1824.507        1.768        0.715      142.937       24.201        0.029      333.254        2.448      859.941
12/25/2014  14:52:00     -104.168      172.847      -24.280       71.586       84.879       50.330     5124.518     7204.458     2533.093        2.809        0.743      201.809       47.265        0.055      333.191        2.343      859.950
12/25/2014  14:53:00     -122.046      211.477      -28.401       66.502       62.602       40.949     4422.475     3918.954     1676.842        3.522        0.501      244.167       31.739        0.017      333.176        2.316      859.961
12/25/2014  14:54:00      -42.842      163.328      -13.516       59.221      124.878       41.693     3507.136    15594.565     1738.302        2.476        1.042      168.853       53.171        0.099      333.175        2.317      859.971
12/25/2014  14:55:00     -110.219      194.432      -23.528       74.008      127.830       49.001     5477.228    16340.536     2401.102        3.736        1.211      223.499       39.435        0.031      333.118        2.221      859.982
12/25/2014  14:56:00     -139.041      232.076      -44.770       87.996      124.169       49.523     7743.339    15417.817     2452.537        5.040        1.281      270.539       41.073        0.023      333.105        2.199      859.997
12/25/2014  14:57:00      -58.038      267.764      -28.924       81.614      104.059       60.674     6660.812    10828.232     3681.331        4.853        1.059      273.982       49.203        0.032      333.063        2.130      860.007
12/25/2014  14:58:00      -49.718      247.574      -37.187       55.016       77.192       40.598     3026.737     5958.648     1648.178        3.789        0.532      252.517       37.576        0.022      333.096        2.186      860.021
12/25/2014  14:59:00      -48.980      163.792      -10.973       48.152       89.494       36.278     2318.609     8009.124     1316.058        2.049        0.582      170.959       33.228        0.038      333.131        2.244      860.029
12/25/2014  15:00:00     -101.384       32.016      -22.616       80.506       81.613       40.684     6481.233     6660.626     1655.163        1.330        0.740      106.319       41.400        0.152      333.127        2.238      860.032
12/25/2014  15:01:00      -69.175      162.829       -5.334       83.705      114.343       64.695     7006.543    13074.338     4185.500        2.779        1.213      176.914       70.984        0.161      333.063        2.132      860.043
12/25/2014  15:02:00     -148.884      246.807      -48.984       81.675      112.435       51.339     6670.778    12641.652     2635.677        5.371        1.097      288.236       48.412        0.028      333.027        2.070      860.061
12/25/2014  15:03:00     -150.085      213.008      -43.787       93.079       93.024       44.493     8663.694     8653.406     1979.603        4.455        0.965      260.573       46.672        0.032      333.013        2.048      860.074
12/25/2014  15:04:00      -79.315      287.271      -35.394       83.031       97.090       50.744     6894.167     9426.510     2574.966        5.448        0.945      298.020       45.838        0.024      333.020        2.057      860.094
12/25/2014  15:05:00      -62.819      230.598      -28.669       56.920       89.756       37.725     3239.839     8056.179     1423.150        3.533        0.636      239.002       39.828        0.028      333.066        2.134      860.089
12/25/2014  15:06:00        6.142      325.610      -41.994       63.714      113.135       50.919     4059.476    12799.639     2592.727        6.363        0.973      325.668       53.920        0.027      332.978        1.990      860.094
12/25/2014  15:07:00      -80.110      307.820      -43.558       60.905      126.540       40.635     3709.473    16012.324     1651.213        6.222        1.069      318.074       31.538        0.010      332.999        2.024      860.122
12/25/2014  15:08:00     -116.421      305.162      -38.588      134.694      162.346       51.152    18142.492    26356.086     2616.492        7.763        2.356      326.616       42.982        0.017      333.013        2.045      860.127
12/25/2014  15:09:00     -114.968      286.677      -39.321       76.925      152.926       47.600     5917.424    23386.325     2265.799        6.425        1.578      308.871       41.132        0.018      333.013        2.046      860.151
12/25/2014  15:10:00      -41.533      439.895      -51.368       90.305      123.587       45.961     8154.951    15273.835     2112.399       11.170        1.277      441.851       44.440        0.010      333.012        2.046      860.176
12/25/2014  15:11:00     -147.804      183.170      -36.748       97.002      113.219       49.005     9409.454    12818.619     2401.523        4.068        1.231      235.367       47.185        0.040      333.132        2.244      860.184
12/25/2014  15:12:00     -131.611      249.585      -22.620       94.459      143.503       52.310     8922.533    20593.117     2736.377        5.618        1.613      282.160       55.406        0.039      333.144        2.264      860.195
12/25/2014  15:13:00     -137.852      174.010      -29.876       80.041       76.370       44.659     6406.494     5832.453     1994.409        3.220        0.712      221.996       31.821        0.021      333.128        2.237      860.203
12/25/2014  15:14:00     -184.712      239.379      -37.355      107.328      172.259       67.250    11519.287    29673.051     4522.530        6.926        2.286      302.358       80.406        0.071      333.091        2.176      860.215
12/25/2014  15:15:00     -152.692      222.246      -37.068      100.979       92.211       56.558    10196.795     8502.919     3198.807        4.799        1.095      269.644       62.081        0.053      333.064        2.131      860.196
12/25/2014  15:16:00     -153.733      173.724      -35.884       86.202       94.526       52.700     7430.860     8935.193     2777.319        3.712        0.957      231.978       54.989        0.056      333.143        2.263      860.199
12/25/2014  15:17:00     -177.504      223.058      -45.677      106.472      138.196       57.879    11336.294    19098.177     3349.922        5.856        1.689      285.066       54.116        0.036      333.057        2.119      860.188
12/25/2014  15:18:00     -138.412       94.581      -10.077       88.465      155.042       54.888     7826.008    24037.905     3012.746        3.153        1.744      167.641       60.715        0.131      333.088        2.171      860.162
12/25/2014  15:19:00     -142.725      160.765      -23.971       84.380      112.584       61.887     7119.944    12675.137     3829.997        3.520        1.181      214.978       57.140        0.071      333.047        2.104      860.170
12/25/2014  15:20:00     -243.820      245.592      -56.793      113.536      139.181       69.111    12890.496    19371.356     4776.292        8.001        1.852      346.069       77.343        0.050      332.958        1.955      860.187
12/25/2014  15:21:00     -200.594      235.438      -45.975       81.548      131.044       62.801     6650.074    17172.415     3944.002        6.277        1.388      309.304       61.899        0.040      332.938        1.922      860.166
12/25/2014  15:22:00     -154.678      157.677      -30.692       79.430      107.406       53.609     6309.117    11536.090     2873.914        3.522        1.036      220.879       54.580        0.061      332.980        1.992      860.162
12/25/2014  15:23:00     -140.343      337.308      -43.093       95.066      120.055       55.282     9037.471    14413.161     3056.054        8.091        1.325      365.339       63.378        0.030      332.912        1.879      860.156
12/25/2014  15:24:00     -143.854      235.608      -33.503       74.863      112.889       48.449     5604.407    12744.016     2347.286        4.901        1.035      276.053       41.951        0.023      332.977        1.988      860.138
12/25/2014  15:25:00     -105.978      233.573      -28.885       68.682       90.085       54.264     4717.232     8115.279     2944.616        4.120        0.789      256.491       51.290        0.040      332.966        1.968      860.138
12/25/2014  15:26:00      -96.169      208.602      -33.660       58.860       87.046       32.742     3464.471     7577.019     1072.030        3.300        0.606      229.702       18.476        0.006      333.074        2.148      860.133
12/25/2014  15:27:00      -97.578      165.814      -20.707       47.428       84.837       39.748     2249.374     7197.246     1579.937        2.423        0.551      192.395       43.976        0.052      333.098        2.189      860.148
12/25/2014  15:28:00     -113.822      227.257      -27.217       95.248      123.148       48.110     9072.261    15165.540     2314.541        4.594        1.328      254.168       66.815        0.069      333.073        2.146      860.156
12/25/2014  15:29:00      -82.895      248.802      -28.224       86.466       77.779       47.892     7476.308     6049.518     2293.616        4.269        0.791      262.248       43.117        0.027      332.991        2.009      860.152
12/25/2014  15:30:00     -127.154      318.437      -54.661       84.926      105.066       48.545     7212.399    11038.855     2356.623        7.058        1.030      342.885       37.512        0.012      333.017        2.052      860.157
12/25/2014  15:31:00     -106.853      178.639      -28.819       68.061       86.741       43.759     4632.272     7524.023     1914.879        2.911        0.704      208.158       43.248        0.043      333.069        2.140      860.174
12/25/2014  15:32:00     -162.211      204.259      -35.058       97.135      107.927       50.619     9435.260    11648.256     2562.278        4.645        1.182      260.834       60.355        0.054      333.061        2.128      860.179
12/25/2014  15:33:00     -124.891      146.786      -12.676       74.887       72.632       51.937     5608.038     5275.356     2697.500        2.544        0.679      192.728       44.268        0.053      333.077        2.155      860.200
12/25/2014  15:34:00      -78.367      128.924       -9.640       78.290       94.884       49.101     6129.318     9003.032     2410.892        2.020        0.877      150.873       52.241        0.120      333.083        2.163      860.219
12/25/2014  15:35:00      -80.947      128.678       -8.858       84.601       75.704       50.573     7157.395     5731.070     2557.596        1.931        0.772      152.021       53.606        0.124      333.093        2.180      860.233
12/25/2014  15:36:00      -92.432      136.364      -19.313       73.448       76.748       39.901     5394.577     5890.286     1592.085        2.019        0.644      164.739       45.304        0.076      333.173        2.314      860.240
12/25/2014  15:37:00      -39.504      131.266        1.903       51.114       70.633       39.320     2612.608     4988.950     1546.083        1.397        0.457      137.081       39.504        0.083      333.122        2.228      860.242
12/25/2014  15:38:00        0.090      197.029      -34.030       55.230      114.389       36.528     3050.341    13084.789     1334.263        2.872        0.873      197.029       52.394        0.071      333.056        2.120      860.247
12/25/2014  15:39:00       20.241      330.711      -37.877       84.865      100.582       52.679     7202.011    10116.827     2775.059        6.565        1.005      331.330       53.558        0.026      333.002        2.028      860.257
12/25/2014  15:40:00      -39.605      262.012      -30.789       34.824      104.028       38.792     1212.733    10821.731     1504.825        4.235        0.677      264.988       51.544        0.038      333.043        2.095      860.255
12/25/2014  15:41:00      -51.234      122.986      -19.051       56.296       50.056       35.504     3169.211     2505.621     1260.546        1.252        0.347      133.231       26.519        0.040      333.130        2.243      860.254
12/25/2014  15:42:00      -71.571       98.001      -26.088       55.727       65.585       23.209     3105.452     4301.426      538.661        1.167        0.397      121.353       20.003        0.027      333.193        2.347      860.254
12/25/2014  15:43:00     -129.054      157.737      -40.924       56.460       68.806       41.354     3187.693     4734.251     1710.151        2.642        0.482      203.803       42.845        0.044      333.101        2.194      860.256
12/25/2014  15:44:00      -80.413      158.443      -14.598       52.693       75.177       34.564     2776.503     5651.596     1194.674        2.070        0.481      177.681       35.324        0.040      333.096        2.186      860.252
12/25/2014  15:45:00     -126.712      131.026      -23.819       64.166       94.209       41.378     4117.337     8875.323     1712.135        2.425        0.735      182.274       38.993        0.046      333.074        2.148      860.252
12/25/2014  15:46:00      -92.944      195.855      -27.907       68.601       81.691       42.794     4706.085     6673.478     1831.325        3.049        0.661      216.790       39.052        0.032      333.112        2.212      860.252
12/25/2014  15:47:00      -75.192      191.635      -31.299       47.837       58.783       32.894     2288.363     3455.442     1081.997        2.509        0.341      205.858       21.877        0.011      333.173        2.313      860.262
12/25/2014  15:48:00      -52.150      192.396      -20.059       41.964       84.023       30.563     1760.949     7059.793      934.087        2.494        0.488      199.338       25.261        0.016      333.096        2.187      860.284
12/25/2014  15:49:00      -49.298      102.656        0.764       69.656       73.152       43.850     4851.923     5351.270     1922.859        1.255        0.606      113.880       46.868        0.169      333.146        2.269      860.268
12/25/2014  15:50:00     -121.323      180.397      -21.003       88.598      130.221       53.559     7849.552    16957.418     2868.567        3.768        1.384      217.399       68.327        0.099      333.115        2.217      860.247
12/25/2014  15:51:00      -87.897      190.076      -27.285       68.547       79.502       42.623     4698.662     6320.490     1816.728        2.872        0.642      209.416       34.883        0.028      333.165        2.301      860.228
12/25/2014  15:52:00      -42.629      178.869      -26.501       56.705      127.487       31.571     3215.427    16252.927      996.740        2.749        1.023      183.879       36.313        0.039      333.047        2.105      860.217
12/25/2014  15:53:00     -206.371      -12.846      -24.912       91.729       73.404       34.765     8414.143     5388.157     1208.577        2.919        0.751      206.771       35.425        0.029      333.047        2.105      860.220
12/25/2014  15:54:00     -160.629      185.068      -26.394      123.291      117.345       61.080    15200.617    13769.834     3730.762        4.672        1.635      245.055       50.867        0.043      332.885        1.835      860.251
12/25/2014  15:55:00     -208.888      153.611      -29.804      106.670       97.546       53.125    11378.449     9515.143     2822.318        4.591        1.186      259.288       52.764        0.041      332.863        1.800      860.246
12/25/2014  15:56:00     -174.924      152.892      -41.533       65.454       75.885       45.310     4284.191     5758.498     2053.015        3.389        0.605      232.323       38.815        0.028      332.875        1.819      860.238
12/25/2014  15:57:00     -137.729      171.813      -37.215       76.576       66.403       47.531     5863.856     4409.333     2259.169        3.120        0.627      220.203       45.653        0.043      332.904        1.868      860.260
12/25/2014  15:58:00     -160.984      251.455      -40.221       81.863       85.564       57.455     6701.582     7321.232     3301.054        5.404        0.866      298.573       55.134        0.034      332.882        1.830      860.276
12/25/2014  15:59:00     -163.590      212.616      -36.501      110.785       71.534       49.732    12273.394     5117.184     2473.268        4.658        0.993      268.267       52.375        0.038      332.848        1.777      860.285
12/25/2014  16:00:00     -134.429      240.816      -26.006       94.378      149.485       60.968     8907.144    22345.779     3717.107        5.585        1.749      275.796       57.844        0.044      332.913        1.883      860.280
12/25/2014  16:01:00     -124.388       71.354      -21.954       57.872      106.417       41.307     3349.192    11324.644     1706.259        1.871        0.819      143.401       29.333        0.042      332.989        2.010      860.286
12/25/2014  16:02:00     -126.657      296.666      -30.591       96.315      128.041       59.384     9276.550    16394.588     3526.424        6.709        1.460      322.572       64.616        0.040      332.777        1.657      860.293
12/25/2014  16:03:00     -139.018      157.024      -24.002       92.598       96.323       55.557     8574.386     9278.195     3086.617        3.274        1.047      209.720       46.960        0.050      332.868        1.808      860.301
12/25/2014  16:04:00     -174.724      267.302      -52.911      101.521       97.880       52.866    10306.464     9580.520     2794.774        6.373        1.134      319.341       61.379        0.037      332.786        1.672      860.306
12/25/2014  16:05:00     -136.194      175.945      -34.030       74.673       55.805       32.285     5576.038     3114.220     1042.337        3.020        0.487      222.498       36.574        0.027      332.824        1.735      860.318
12/25/2014  16:06:00      -59.480      162.722      -14.410       40.851       46.719       33.363     1668.769     2182.693     1113.086        1.759        0.248      173.252       27.303        0.025      332.868        1.810      860.321
12/25/2014  16:07:00     -150.103      154.306      -29.435       97.658       90.839       57.082     9537.141     8251.640     3258.358        3.412        1.052      215.271       56.012        0.068      332.847        1.772      860.326
12/25/2014  16:08:00      -33.938      216.919      -19.519       60.939       93.696       43.981     3713.597     8778.914     1934.314        3.150        0.721      219.558       50.329        0.053      332.823        1.734      860.333
12/25/2014  16:09:00      -63.725      130.454       -2.855       63.760       91.529       47.276     4065.278     8377.600     2235.032        1.788        0.734      145.187       39.467        0.074      332.800        1.698      860.336
12/25/2014  16:10:00      -75.370      300.185      -42.485       79.064      120.263       43.111     6251.141    14463.199     1858.587        6.008        1.129      309.502       43.496        0.020      332.770        1.647      860.334
12/25/2014  16:11:00      -89.163      193.097      -21.967       81.056      130.815       43.802     6570.048    17112.564     1918.598        3.565        1.280      212.689       38.589        0.033      332.814        1.720      860.343
12/25/2014  16:12:00      -82.218      168.992      -20.195       87.750       97.630       49.733     7700.149     9531.592     2473.402        2.771        0.985      187.931       30.084        0.026      332.818        1.726      860.340
12/25/2014  16:13:00      -76.316      211.982      -12.450       64.690      119.352       43.754     4184.793    14244.887     1914.412        3.563        1.017      225.301       45.789        0.041      332.776        1.657      860.358
12/25/2014  16:14:00     -106.420      212.760      -34.327       77.526       83.121       34.597     6010.344     6909.045     1196.924        3.594        0.706      237.891       25.570        0.012      332.787        1.673      860.378
12/25/2014  16:15:00     -103.742      308.809      -36.528       74.672       81.781       48.504     5575.905     6688.107     2352.616        6.104        0.731      325.769       38.950        0.014      332.761        1.631      860.374
12/25/2014  16:16:00      -41.415      226.408      -18.496       42.452       99.828       42.942     1802.190     9965.668     1844.013        3.346        0.681      230.165       48.996        0.045      332.816        1.721      860.375
12/25/2014  16:17:00     -106.369      235.434      -37.807       85.772       95.604       52.605     7356.801     9140.124     2767.263        4.371        0.963      258.348       46.812        0.033      332.784        1.669      860.391
12/25/2014  16:18:00     -119.931      214.749      -33.999       77.260       80.024       42.240     5969.067     6403.821     1784.218        3.790        0.708      245.968       42.144        0.029      332.777        1.657      860.394
12/25/2014  16:19:00      -49.595      166.880      -22.673       40.294       71.033       28.644     1623.592     5045.653      820.473        1.915        0.374      174.094       32.946        0.036      332.845        1.771      860.395
12/25/2014  16:20:00        1.459      235.055      -12.391       54.958       91.043       51.057     3020.410     8288.767     2606.797        3.466        0.696      235.060       57.171        0.059      332.735        1.588      860.389
12/25/2014  16:21:00      -60.973      153.152       -9.301       51.557      104.488       36.988     2658.146    10917.823     1368.136        2.110        0.747      164.843       48.578        0.087      332.825        1.738      860.392
12/25/2014  16:22:00      -27.028      192.941      -21.190       41.000       59.581       25.807     1681.001     3549.857      666.024        2.215        0.295      194.825       26.824        0.019      332.774        1.653      860.386
12/25/2014  16:23:00     -102.025      154.812      -19.012       76.689       63.458       45.650     5881.185     4026.959     2083.904        2.336        0.600      185.408       44.642        0.058      332.867        1.810      860.385
12/25/2014  16:24:00      -60.392      127.575      -22.936       38.506       61.642       27.116     1482.699     3799.762      735.296        1.323        0.301      141.147       27.132        0.037      332.856        1.790      860.378
12/25/2014  16:25:00        0.636       51.271        5.458       38.035       42.409       26.608     1446.698     1798.525      707.989        0.331        0.198       51.275       27.258        0.283      332.785        1.673      860.367
12/25/2014  16:26:00       -8.767      201.346      -27.237       70.342       87.087       38.267     4947.948     7584.225     1464.390        2.768        0.700      201.537       43.440        0.046      332.731        1.581      860.373
12/25/2014  16:27:00        6.096      128.937      -17.296       32.226       35.179       27.824     1038.505     1237.563      774.173        1.001        0.153      129.081       16.666        0.017      332.750        1.614      860.372
12/25/2014  16:28:00      -14.865      152.875      -22.103       59.862       59.140       33.432     3583.433     3497.560     1117.709        1.614        0.410      153.596       29.737        0.037      332.745        1.608      860.390
12/25/2014  16:29:00      -94.625      133.998      -19.431       83.449      118.121       44.009     6963.710    13952.543     1936.812        2.507        1.143      164.041       47.545        0.084      332.808        1.710      860.406
12/25/2014  16:30:00     -146.599      140.404      -39.385       48.353       72.278       39.585     2338.016     5224.179     1566.989        2.594        0.456      202.989       36.918        0.033      332.777        1.658      860.420
12/25/2014  16:31:00      -36.864      117.673      -22.791       57.549       46.440       28.344     3311.937     2156.642      803.398        1.100        0.314      123.312       30.392        0.061      332.805        1.706      860.437
12/25/2014  16:32:00        5.471      122.258      -25.621       33.672       38.189       15.945     1133.825     1458.369      254.247        0.924        0.142      122.381        7.121        0.003      332.768        1.646      860.457
12/25/2014  16:33:00      -30.145       50.808       -5.047       20.855       32.223       19.559      434.945     1038.324      382.565        0.269        0.093       59.077       11.209        0.036      332.789        1.679      860.472
12/25/2014  16:34:00       -2.373       76.631       -9.314       31.873       47.498       21.818     1015.890     2256.068      476.046        0.486        0.187       76.668       25.143        0.108      332.736        1.592      860.472
12/25/2014  16:35:00      -30.711      105.480      -13.042       48.171       30.288       28.422     2320.411      917.367      807.833        0.814        0.202      109.860       20.683        0.035      332.758        1.630      860.467
12/25/2014  16:36:00     -104.011      104.141      -16.768       38.702       38.382       27.744     1497.875     1473.171      769.728        1.284        0.187      147.186       21.942        0.022      332.891        1.848      860.458
12/25/2014  16:37:00      -73.229      174.333      -35.104       74.936       92.630       40.235     5615.419     8580.384     1618.883        2.640        0.791      189.088       53.066        0.079      332.765        1.638      860.446
12/25/2014  16:38:00     -103.811      211.506      -23.654       53.313       76.191       35.486     2842.232     5805.030     1259.228        3.299        0.495      235.609       35.908        0.023      332.804        1.704      860.445
12/25/2014  16:39:00      -27.940       94.761      -15.668       54.565       64.320       28.777     2977.306     4136.999      828.135        0.897        0.397       98.795       29.169        0.087      332.890        1.846      860.459
12/25/2014  16:40:00      -63.567      186.042      -26.185       70.446       64.309       33.904     4962.631     4135.682     1149.507        2.479        0.512      196.602       33.230        0.029      332.723        1.567      860.467
12/25/2014  16:41:00      -67.142      184.346      -33.063       61.480       73.667       39.647     3779.743     5426.875     1571.915        2.518        0.539      196.192       39.253        0.040      332.715        1.554      860.479
12/25/2014  16:42:00      -25.497      191.580      -21.595       40.522       54.029       32.987     1642.057     2919.115     1088.154        2.173        0.282      193.269       27.425        0.020      332.731        1.584      860.484
12/25/2014  16:43:00      -60.638       92.725       -7.265       54.790       39.818       35.283     3001.983     1585.438     1244.872        0.908        0.292      110.792       30.428        0.075      332.776        1.659      860.482
12/25/2014  16:44:00      -32.073      158.580      -27.141       34.328       52.023       20.512     1178.419     2706.393      420.748        1.561        0.215      161.791       12.122        0.006      332.697        1.527      860.475
12/25/2014  16:45:00     -112.629      176.769      -27.049       81.396      111.621       47.570     6625.229    12459.231     2262.882        3.300        1.067      209.600       57.776        0.076      332.734        1.587      860.486
12/25/2014  16:46:00     -118.672      126.367       -8.209       67.368      121.287       41.950     4538.453    14710.561     1759.787        2.556        1.050      173.354       52.269        0.091      332.718        1.562      860.469
12/25/2014  16:47:00      -41.009      222.948      -29.736       70.458      142.887       40.964     4964.312    20416.788     1678.039        3.966        1.353      226.688       57.846        0.065      332.686        1.507      860.498
12/25/2014  16:48:00      -12.784      200.832      -32.803       47.734       91.079       37.356     2278.565     8295.418     1395.505        2.677        0.598      201.238       37.080        0.034      332.648        1.444      860.516
12/25/2014  16:49:00      -29.042      114.165      -15.712       48.961       55.450       28.938     2397.178     3074.723      837.412        1.022        0.315      117.801       27.608        0.055      332.732        1.586      860.540
12/25/2014  16:50:00        7.469      187.084      -28.885       30.064       32.279       26.593      903.866     1041.965      707.170        1.927        0.133      187.233       19.723        0.011      332.611        1.385      860.532
12/25/2014  16:51:00     -114.764      107.760      -25.944       41.168       43.156       31.253     1694.769     1862.422      976.733        1.499        0.227      157.426       28.326        0.032      332.654        1.456      860.513
12/25/2014  16:52:00      -81.447       96.337      -10.966       45.654       48.794       27.387     2084.286     2380.868      750.040        1.062        0.261      126.152       25.022        0.039      332.612        1.386      860.515
12/25/2014  16:53:00      -84.278       96.210      -30.852       48.001       31.641       18.889     2304.074     1001.143      356.776        1.049        0.183      127.902       22.604        0.031      332.673        1.488      860.513
12/25/2014  16:54:00      -38.468       99.492       -6.538       54.659       46.971       32.874     2987.586     2206.314     1080.732        0.885        0.314      106.670       29.261        0.075      332.644        1.441      860.507
12/25/2014  16:55:00      -95.828       38.036      -18.625       31.190       50.356       20.359      972.840     2535.724      414.493        0.745        0.196      103.101       20.493        0.040      332.625        1.410      860.515
12/25/2014  16:56:00      -33.425       -7.336        4.591       53.823       23.599       25.067     2896.965      556.897      628.356        0.264        0.204       34.220       32.172        0.884      332.578        1.332      860.516
12/25/2014  16:57:00      -93.303      129.080      -18.703       59.923      107.943       40.478     3590.753    11651.606     1638.460        2.130        0.844      159.270       31.141        0.038      332.679        1.497      860.513
12/25/2014  16:58:00      -74.237      130.344      -26.418       50.458       64.323       29.365     2546.038     4137.384      862.288        1.537        0.377      150.003       21.316        0.020      332.711        1.551      860.518
12/25/2014  16:59:00      -26.520      179.413      -12.292       42.868      101.051       33.722     1837.659    10211.260     1137.159        2.311        0.659      181.362       45.978        0.064      332.608        1.379      860.499
12/25/2014  17:00:00      -49.908      121.023       -2.225       49.590       66.358       40.919     2459.186     4403.406     1674.366        1.284        0.427      130.910       31.638        0.058      332.648        1.446      860.496
12/25/2014  17:01:00     -154.002       71.512      -18.559       82.647       73.160       36.592     6830.526     5352.423     1338.987        2.135        0.676      169.796       33.474        0.039      332.620        1.400      860.496
12/25/2014  17:02:00     -152.408       54.939      -16.227       72.261       80.674       36.248     5221.587     6508.323     1313.915        1.977        0.652      162.008       35.268        0.047      332.623        1.405      860.521
12/25/2014  17:03:00     -131.824      152.000      -31.950       75.514       89.607       56.002     5702.361     8029.328     3136.209        2.918        0.843      201.200       64.697        0.103      332.606        1.376      860.528
12/25/2014  17:04:00      -88.371       69.688      -11.210       51.150       63.225       25.580     2616.357     3997.346      654.345        1.003        0.363      112.543       26.568        0.056      332.649        1.448      860.535
12/25/2014  17:05:00      -82.709       68.932       -7.543       52.960       65.815       30.919     2804.804     4331.613      955.964        0.987        0.405      107.668       33.571        0.097      332.594        1.357      860.527
12/25/2014  17:06:00     -161.029      123.499      -28.873       67.122       86.539       48.440     4505.374     7488.926     2346.388        2.818        0.717      202.934       42.598        0.044      332.607        1.377      860.527
12/25/2014  17:07:00     -180.753      210.613      -43.668       68.390       87.758       42.852     4677.175     7701.453     1836.258        4.657        0.711      277.542       39.675        0.020      332.669        1.479      860.529
12/25/2014  17:08:00     -242.953      121.667      -49.712       93.754      125.637       58.512     8789.905    15784.700     3423.683        5.214        1.400      271.715       57.964        0.046      332.776        1.656      860.527
12/25/2014  17:09:00     -167.855       92.574      -26.980       78.337       80.749       45.549     6136.756     6520.460     2074.739        2.610        0.737      191.690       45.396        0.056      332.735        1.589      860.519
12/25/2014  17:10:00      -78.295       56.431       -1.728       34.414       41.496       23.495     1184.292     1721.948      552.004        0.639        0.173       96.511       12.526        0.017      332.766        1.643      860.530
12/25/2014  17:11:00      -83.169       13.160       -4.121       68.088       45.487       27.222     4636.029     2069.097      741.013        0.728        0.372       84.204       31.450        0.140      332.673        1.489      860.533
12/25/2014  17:12:00      -34.959       24.707        0.528       35.543       44.042       36.002     1263.337     1939.738     1296.168        0.317        0.225       42.808       24.319        0.323      332.628        1.414      860.546
12/25/2014  17:13:00      -41.275       45.511      -12.158       47.941       54.061       24.711     2298.330     2922.606      610.629        0.488        0.292       61.440       29.298        0.227      332.665        1.475      860.578
12/25/2014  17:14:00     -153.765      149.903      -52.231       54.943       58.399       30.562     3018.706     3410.417      934.059        2.810        0.368      214.743       28.524        0.018      332.677        1.492      860.576
12/25/2014  17:15:00     -114.994       56.949      -19.603       45.878       73.670       36.357     2104.767     5427.308     1321.832        1.285        0.443      128.323       29.827        0.054      332.614        1.390      860.569
12/25/2014  17:16:00     -117.821      157.580      -32.974       60.779       71.854       42.110     3694.081     5162.956     1773.270        2.521        0.532      196.757       40.803        0.043      332.609        1.381      860.563
12/25/2014  17:17:00     -127.738       96.142      -19.257       39.258       72.285       32.617     1541.229     5225.066     1063.883        1.688        0.392      159.875       29.660        0.034      332.648        1.447      860.564
12/25/2014  17:18:00      -99.266       21.124       -3.829       36.559       52.081       24.629     1336.552     2712.421      606.595        0.748        0.233      101.488       21.014        0.043      332.594        1.356      860.575
12/25/2014  17:19:00      -85.889       23.017       -8.005       32.769       49.509       22.613     1073.790     2451.182      511.338        0.600        0.202       88.919       15.257        0.029      332.565        1.310      860.608
12/25/2014  17:20:00      -91.558      -33.012      -19.000       41.487       44.525       20.943     1721.151     1982.467      438.628        0.699        0.207       97.328       12.263        0.016      332.604        1.374      860.625
12/25/2014  17:21:00      -92.646       -9.857      -11.751       38.351       47.755       15.913     1470.819     2280.510      253.231        0.641        0.200       93.169       13.349        0.021      332.555        1.295      860.644
12/25/2014  17:22:00      -49.374       21.016      -10.341       35.133       38.443       19.552     1234.332     1477.872      382.277        0.304        0.155       53.661       11.794        0.048      332.556        1.295      860.663
12/25/2014  17:23:00      -73.151      -73.594        5.325       57.022       34.908       26.132     3251.549     1218.580      682.891        0.797        0.258      103.765       27.746        0.072      332.567        1.312      860.683
12/25/2014  17:24:00      -92.250       26.516      -13.187       58.057       46.691       30.719     3370.575     2180.015      943.648        0.794        0.325       95.985       35.550        0.137      332.526        1.244      860.705
12/25/2014  17:25:00      -79.696       21.689      -16.988       33.356       34.698       17.659     1112.594     1203.967      311.843        0.487        0.131       82.594       21.083        0.065      332.541        1.270      860.727
12/25/2014  17:26:00      -68.067        4.385      -26.123       23.671       18.686       19.848      560.319      349.156      393.949        0.332        0.065       68.208       11.587        0.029      332.598        1.365      860.742
12/25/2014  17:27:00     -126.868      -32.397      -16.904       33.157       37.838       25.375     1099.416     1431.744      643.894        1.030        0.159      130.939       24.768        0.036      332.566        1.311      860.771
12/25/2014  17:28:00      -97.381       34.396      -20.710       42.417       46.196       29.685     1799.223     2134.109      881.202        0.795        0.241      103.277       29.059        0.079      332.539        1.267      860.791
12/25/2014  17:29:00      -89.812      -25.125      -12.918       36.749       38.825       24.624     1350.482     1507.412      606.324        0.616        0.173       93.260       17.379        0.035      332.548        1.281      860.797
12/25/2014  17:30:00      -80.071        8.957      -18.855       39.163       46.093       18.910     1533.706     2124.546      357.601        0.543        0.201       80.570       11.294        0.020      332.529        1.249      860.804
12/25/2014  17:31:00      -91.695       16.123      -16.728       37.331       60.738       24.369     1393.630     3689.119      593.872        0.731        0.284       93.101       25.162        0.073      332.526        1.244      860.814
12/25/2014  17:32:00     -110.817      -43.376      -14.348       36.097       36.775       20.058     1303.000     1352.386      402.310        0.871        0.153      119.004       15.780        0.018      332.557        1.296      860.814
12/25/2014  17:33:00     -115.168      -55.406       -6.793       40.753       42.863       27.351     1660.824     1837.263      748.065        1.031        0.212      127.803       24.012        0.035      332.510        1.219      860.819
12/25/2014  17:34:00     -122.117       -4.500      -13.497       36.196       37.601       23.494     1310.184     1413.862      551.988        0.919        0.164      122.200       22.509        0.034      332.518        1.232      860.826
12/25/2014  17:35:00      -81.594      -29.758       -7.148       37.117       34.688       21.619     1377.682     1203.244      467.398        0.532        0.152       86.851       21.666        0.062      332.520        1.235      860.832
12/25/2014  17:36:00      -89.719      -30.795       -3.518       53.012       43.842       28.588     2810.261     1922.098      817.302        0.728        0.277       94.857       23.930        0.064      332.519        1.233      860.838
12/25/2014  17:37:00     -115.941      -45.803       -5.878       52.509       31.015       20.679     2757.170      961.910      427.634        0.986        0.207      124.661       11.999        0.009      332.497        1.198      860.845
12/25/2014  17:38:00     -132.918      -51.021       -7.280       44.228       64.786       28.159     1956.080     4197.167      792.914        1.363        0.347      142.374       20.944        0.022      332.494        1.191      860.851
12/25/2014  17:39:00     -139.428       15.321      -14.055       44.712       52.296       26.553     1999.175     2734.868      705.056        1.265        0.272      140.267       22.578        0.026      332.476        1.162      860.862
12/25/2014  17:40:00     -152.032      -81.966      -17.585       42.924       49.094       30.133     1842.504     2410.249      907.984        1.765        0.258      172.720       22.745        0.017      332.485        1.177      860.846
12/25/2014  17:41:00     -207.424      -54.985      -14.218       54.031       43.342       29.060     2919.388     1878.519      844.485        2.595        0.282      214.589       27.256        0.016      332.493        1.188      860.819
12/25/2014  17:42:00     -207.831      -51.390       -6.592       60.565       65.514       37.043     3668.136     4292.129     1372.162        2.760        0.467      214.090       27.363        0.016      332.472        1.154      860.798
12/25/2014  17:43:00     -186.692      -56.450      -10.478       40.784       49.671       28.594     1663.327     2467.172      817.609        2.155        0.247      195.040       19.822        0.010      332.487        1.180      860.796
12/25/2014  17:44:00     -124.798      -39.367       -9.482       48.832       52.549       33.862     2384.544     2761.374     1146.639        1.175        0.315      130.860       11.516        0.008      332.545        1.276      860.802
12/25/2014  17:45:00     -115.418       31.882      -14.784       61.186       72.128       38.428     3743.669     5202.509     1476.716        1.249        0.521      119.740       33.066        0.076      332.577        1.330      860.789
12/25/2014  17:46:00     -172.065      -15.939      -28.131       46.896       55.442       30.650     2199.208     3073.787      939.399        1.843        0.311      172.802       17.619        0.010      332.493        1.190      860.763
12/25/2014  17:47:00     -140.939      -68.536      -13.973       66.545       65.734       35.177     4428.177     4321.020     1237.399        1.737        0.499      156.719        9.225        0.003      332.515        1.225      860.756
12/25/2014  17:48:00     -137.370      -42.341      -30.808       64.865       42.656       43.082     4207.436     1819.557     1856.043        1.475        0.394      143.747       20.910        0.021      332.538        1.264      860.751
12/25/2014  17:49:00     -175.497      -43.639      -23.855       40.319       57.059       33.045     1625.635     3255.769     1091.991        1.962        0.299      180.841       22.736        0.016      332.503        1.206      860.759
12/25/2014  17:50:00     -133.887      -17.141      -16.479       47.184       61.203       27.746     2226.353     3745.822      769.836        1.262        0.337      134.980       21.908        0.026      332.469        1.152      860.766
12/25/2014  17:51:00     -150.283      -65.656      -17.467       38.878       40.210       23.454     1511.493     1616.825      550.094        1.544        0.184      163.999       17.121        0.011      332.470        1.153      860.760
12/25/2014  17:52:00     -125.429      -15.252      -19.595       46.838       51.688       27.344     2193.764     2671.607      747.702        1.098        0.281      126.353       16.719        0.018      332.479        1.169      860.771
12/25/2014  17:53:00     -127.330      -28.767      -13.821       48.399       43.953       29.830     2342.492     1931.840      889.808        1.120        0.258      130.540       15.150        0.013      332.491        1.187      860.775
12/25/2014  17:54:00     -187.687      -33.111      -22.180       56.937       38.739       27.431     3241.807     1500.743      752.468        2.115        0.275      190.585       27.998        0.022      332.440        1.104      860.796
12/25/2014  17:55:00     -132.946      -59.208      -17.499       30.029       36.722       25.800      901.717     1348.471      665.624        1.220        0.146      145.535       17.638        0.015      332.454        1.127      860.840
12/25/2014  17:56:00     -164.924        4.500      -18.259       48.164       45.859       31.014     2319.797     2103.072      961.850        1.647        0.269      164.986       28.705        0.030      332.451        1.122      860.876
12/25/2014  17:57:00     -129.443       -1.604      -20.659       29.546       39.606       19.161      872.948     1568.648      367.130        1.000        0.140      129.453       16.847        0.017      332.437        1.100      860.909
12/25/2014  17:58:00     -106.954      -51.379       -8.063       67.573       39.204       25.830     4566.048     1536.922      667.172        1.046        0.339      118.654       29.761        0.063      332.430        1.088      860.951
12/25/2014  17:59:00     -139.035      -42.196      -12.714       44.089       42.153       22.078     1943.875     1776.877      487.425        1.274        0.210      145.297       18.594        0.016      332.432        1.090      861.003
12/25/2014  18:00:00     -122.699      -30.086      -17.383       36.638       39.435       19.854     1342.340     1555.149      394.167        0.978        0.165      126.334       12.890        0.010      332.409        1.053      861.039
12/25/2014  18:01:00     -117.017      -38.569      -18.351       50.009       47.308       26.836     2500.915     2238.078      720.152        1.049        0.273      123.209       21.441        0.030      332.428        1.085      861.072
12/25/2014  18:02:00     -175.006      -61.105      -12.633       48.207       37.340       25.475     2323.887     1394.245      648.971        1.944        0.218      185.367       21.987        0.014      332.417        1.066      861.096
12/25/2014  18:03:00     -161.131      -89.113      -12.302       51.647       48.560       31.966     2667.363     2358.121     1021.816        2.005        0.302      184.131       21.284        0.013      332.412        1.057      861.116
12/25/2014  18:04:00     -229.920      -79.060      -13.350       75.486       54.902       38.073     5698.160     3014.214     1449.559        3.472        0.508      243.133       32.925        0.018      332.384        1.010      861.125
12/25/2014  18:05:00     -175.905      -72.583      -12.153       53.193       63.506       30.928     2829.482     4032.966      956.518        2.209        0.391      190.291       24.568        0.017      332.367        0.981      861.134
12/25/2014  18:06:00     -176.088      -72.757       -0.017       62.100       50.993       34.127     3856.381     2600.319     1164.653        2.196        0.381      190.527       30.352        0.025      332.354        0.960      861.127
12/25/2014  18:07:00     -179.966      -74.369       -8.062       79.685       45.637       33.846     6349.702     2082.713     1145.559        2.378        0.479      194.727       34.375        0.031      332.362        0.972      861.121
12/25/2014  18:08:00     -194.531      -77.039       -3.400       84.757       73.762       50.187     7183.794     5440.800     2518.715        2.946        0.757      209.230       47.663        0.052      332.372        0.989      861.108
12/25/2014  18:09:00     -186.015      -65.715      -11.991       67.699       55.718       30.209     4583.096     3104.544      912.597        2.383        0.430      197.282       34.569        0.031      332.371        0.988      861.104
12/25/2014  18:10:00     -164.588      -76.264      -12.366       53.901       47.040       27.434     2905.340     2212.771      752.625        1.946        0.294      181.398       18.488        0.010      332.365        0.977      861.103
12/25/2014  18:11:00     -200.523      -29.943      -30.525       71.835       48.600       32.338     5160.234     2361.950     1045.762        2.530        0.428      202.746       33.896        0.028      332.371        0.987      861.124
12/25/2014  18:12:00     -183.164      -69.654      -17.111       51.054       54.131       32.289     2606.513     2930.200     1042.566        2.264        0.329      195.961       24.249        0.015      332.377        0.999      861.147
12/25/2014  18:13:00     -138.227      -65.447      -17.288       54.099       42.773       34.798     2926.722     1829.532     1210.927        1.483        0.298      152.937       25.213        0.027      332.371        0.988      861.164
12/25/2014  18:14:00     -152.071      -20.640      -22.062       46.380       72.958       28.816     2151.085     5322.878      830.340        1.617        0.415      153.465       24.391        0.025      332.369        0.986      861.212
12/25/2014  18:15:00     -134.684      -17.433      -25.601       42.616       43.861       24.023     1816.122     1923.774      577.120        1.171        0.216      135.807        7.707        0.003      332.400        1.038      861.239
12/25/2014  18:16:00     -112.944      -11.125      -22.755       57.681       32.644       30.752     3327.107     1065.612      945.696        0.937        0.267      113.491       24.025        0.045      332.411        1.055      861.258
12/25/2014  18:17:00     -101.055        4.086       10.487       61.706       59.329       43.456     3807.652     3519.913     1888.401        0.978        0.461      101.137       36.686        0.132      332.482        1.172      861.275
12/25/2014  18:18:00      -58.603      -24.559       -4.063       37.614       30.590       27.194     1414.783      935.745      739.495        0.357        0.155       63.541       11.772        0.034      332.530        1.252      861.291
12/25/2014  18:19:00     -113.112      -28.257      -13.500       69.638       36.531       30.056     4849.412     1334.534      903.360        1.043        0.354      116.588       20.551        0.031      332.498        1.200      861.291
12/25/2014  18:20:00     -131.906       -6.059      -13.945       48.157       40.631       26.733     2319.120     1650.866      714.650        1.116        0.234      132.045       22.412        0.029      332.521        1.238      861.296
12/25/2014  18:21:00      -66.214      -11.577       -3.108       40.890       54.806       33.313     1672.011     3003.692     1109.760        0.516        0.289       67.218       27.049        0.162      332.500        1.202      861.292
12/25/2014  18:22:00      -72.601       23.237      -11.357       29.278       61.675       29.625      857.198     3803.829      877.661        0.574        0.277       76.229       27.032        0.126      332.524        1.242      861.290
12/25/2014  18:23:00      -45.526      -22.122      -10.453       60.237       37.744       24.614     3628.458     1424.621      605.839        0.416        0.283       50.617       20.905        0.171      332.479        1.166      861.284
12/25/2014  18:24:00     -104.212      -12.439      -11.919       39.496       37.443       24.595     1559.932     1401.972      604.935        0.736        0.178      104.952       17.802        0.029      332.445        1.114      861.290
12/25/2014  18:25:00     -174.189       51.848      -23.470       69.114       37.625       25.362     4776.755     1415.627      643.235        2.021        0.342      181.742       27.649        0.023      332.457        1.132      861.298
12/25/2014  18:26:00     -132.345       53.134      -21.076       44.619       21.875       18.473     1990.843      478.516      341.256        1.180        0.141      142.613       17.852        0.016      332.472        1.156      861.314
12/25/2014  18:27:00      -38.120       36.686       -1.986       24.507       34.174       20.758      600.594     1167.868      430.879        0.250        0.110       52.906       16.676        0.099      332.483        1.174      861.317
12/25/2014  18:28:00      -90.388        1.614       -5.136       32.387       30.838       22.574     1048.904      951.005      509.586        0.535        0.125       90.402       17.331        0.037      332.481        1.174      861.319
12/25/2014  18:29:00     -130.541       29.837      -25.814       32.424       49.536       25.955     1051.318     2453.831      673.639        1.139        0.209      133.908       27.041        0.041      332.491        1.187      861.327
12/25/2014  18:30:00     -101.185       29.793       -7.891       54.693       32.986       28.529     2991.289     1088.053      813.923        0.804        0.245      105.480       24.881        0.056      332.494        1.191      861.331
12/25/2014  18:31:00      -92.435       -6.021       -8.887       33.105       49.679       23.070     1095.926     2468.048      532.243        0.638        0.205       92.631       16.525        0.032      332.507        1.214      861.314
12/25/2014  18:32:00     -151.821       27.156      -27.192       50.186       35.497       28.016     2518.665     1260.036      784.906        1.454        0.228      154.230       21.646        0.020      332.502        1.203      861.297
12/25/2014  18:33:00     -155.755       47.764      -35.296       34.986       40.264       18.716     1224.008     1621.155      350.272        1.549        0.160      162.914       17.488        0.012      332.498        1.196      861.282
12/25/2014  18:34:00     -150.067       -5.123      -20.938       62.845       46.107       30.895     3949.431     2125.850      954.478        1.501        0.351      150.154       30.323        0.041      332.501        1.204      861.274
12/25/2014  18:35:00     -161.873        7.583      -24.369       38.866       50.805       24.251     1510.556     2581.130      588.092        1.577        0.234      162.050       23.202        0.021      332.517        1.229      861.280
12/25/2014  18:36:00      -91.085       80.255      -20.140       63.901       83.554       33.426     4083.344     6981.195     1117.268        1.366        0.609      121.397       39.587        0.106      332.619        1.399      861.280
12/25/2014  18:37:00      -91.300       52.893       -9.146       59.763       41.759       30.120     3571.610     1743.821      907.199        0.872        0.311      105.515       16.066        0.023      332.564        1.310      861.285
12/25/2014  18:38:00     -149.562       54.389      -20.724       53.692       52.608       23.208     2882.860     2767.567      538.630        1.597        0.309      159.144       17.233        0.012      332.588        1.346      861.301
12/25/2014  18:39:00     -111.591      -11.291      -17.748       36.552       41.146       20.390     1336.051     1692.989      415.741        0.817        0.172      112.161       20.940        0.035      332.603        1.372      861.299
12/25/2014  18:40:00      -94.824      -17.726      -16.627       52.206       61.847       36.534     2725.415     3825.090     1334.715        0.873        0.394       96.467       31.500        0.107      332.599        1.365      861.295
12/25/2014  18:41:00     -123.507       23.267      -17.187       44.251       38.991       32.842     1958.162     1520.336     1078.616        1.032        0.228      125.680       24.904        0.039      332.601        1.368      861.298
12/25/2014  18:42:00     -192.858        5.383      -25.536       60.995       45.901       27.547     3720.402     2106.877      758.848        2.223        0.329      192.933       33.023        0.029      332.574        1.322      861.294
12/25/2014  18:43:00     -119.006       17.810      -10.711       70.825       44.481       39.945     5016.184     1978.550     1595.587        1.159        0.430      120.332       40.800        0.115      332.566        1.312      861.290
12/25/2014  18:44:00     -152.396       35.164      -20.373       61.147       43.611       34.183     3738.928     1901.880     1168.444        1.584        0.340      156.400       25.728        0.027      332.551        1.285      861.280
12/25/2014  18:45:00     -174.338       45.194      -17.217       50.371       45.563       24.577     2537.215     2075.969      604.047        1.897        0.261      180.101       20.905        0.013      332.550        1.282      861.262
12/25/2014  18:46:00      -93.529       16.582      -14.089       34.105       44.812       21.321     1163.182     2008.141      454.593        0.642        0.181       94.988       19.602        0.043      332.560        1.303      861.240
12/25/2014  18:47:00      -71.159      -10.978        3.955       54.675       41.662       34.979     2989.405     1735.689     1223.512        0.557        0.297       72.000       36.366        0.255      332.554        1.291      861.239
12/25/2014  18:48:00      -98.153       13.650       -0.348       66.033       33.933       27.931     4360.310     1151.467      780.132        0.805        0.315       99.098       34.621        0.122      332.542        1.272      861.253
12/25/2014  18:49:00     -122.571       48.959      -14.564       67.660       41.957       38.324     4577.885     1760.404     1468.731        1.272        0.390      131.987       36.825        0.078      332.532        1.253      861.279
12/25/2014  18:50:00     -116.280       38.750      -21.593       52.493       41.192       25.058     2755.562     1696.754      627.918        1.028        0.254      122.567       24.797        0.041      332.529        1.251      861.297
12/25/2014  18:51:00     -121.697       42.730      -14.199       56.454       32.135       26.058     3187.012     1032.664      679.024        1.087        0.245      128.981       15.013        0.014      332.523        1.239      861.308
12/25/2014  18:52:00     -136.969       39.521      -23.731       45.638       38.991       25.453     2082.796     1520.270      647.861        1.257        0.213      142.556       21.466        0.023      332.515        1.227      861.321
12/25/2014  18:53:00      -93.149       46.504       -9.222       51.715       48.365       29.199     2674.416     2339.204      852.561        0.839        0.293      104.112       29.648        0.081      332.517        1.232      861.326
12/25/2014  18:54:00      -90.184       52.257      -11.781       33.219       36.287       24.182     1103.488     1316.729      584.767        0.700        0.150      104.230       21.252        0.042      332.516        1.227      861.331
12/25/2014  18:55:00      -74.801       18.571       -9.875       25.347       48.560       19.510      642.467     2358.071      380.650        0.471        0.169       77.072       15.063        0.038      332.539        1.266      861.330
12/25/2014  18:56:00     -103.871       16.306      -11.492       28.113       26.995       18.872      790.366      728.710      356.152        0.653        0.094      105.143       12.035        0.013      332.513        1.223      861.340
12/25/2014  18:57:00      -82.990       43.925      -20.997       47.343       41.938       18.063     2241.358     1758.830      326.271        0.679        0.216       93.898       20.389        0.047      332.551        1.286      861.343
12/25/2014  18:58:00      -88.906        5.575       -8.142       36.295       28.527       22.969     1317.327      813.794      527.577        0.533        0.133       89.081       20.363        0.052      332.559        1.301      861.345
12/25/2014  18:59:00     -107.460       90.497      -19.220       47.024       56.365       27.947     2211.225     3177.065      781.024        1.314        0.308      140.490       23.883        0.029      332.601        1.370      861.342
12/25/2014  19:00:00     -105.942       53.712      -15.832       40.710       48.262       23.954     1657.278     2329.244      573.780        0.946        0.228      118.780       21.572        0.033      332.592        1.354      861.343
12/25/2014  19:01:00      -94.604       64.707      -17.322       32.126       39.114       20.870     1032.099     1529.886      435.546        0.822        0.150      114.616       11.437        0.010      332.620        1.401      861.352
12/25/2014  19:02:00      -62.202       26.840      -19.023       32.145       41.863       17.381     1033.302     1752.476      302.107        0.402        0.154       67.746       17.202        0.064      332.637        1.431      861.346
12/25/2014  19:03:00      -92.000       59.310      -21.035       31.324       33.419       17.743      981.195     1116.827      314.801        0.742        0.121      109.461       14.126        0.017      332.575        1.327      861.352
12/25/2014  19:04:00      -88.073       59.162      -18.015       20.513       39.123       18.124      420.768     1530.637      328.472        0.693        0.114      106.099       11.157        0.011      332.572        1.324      861.349
12/25/2014  19:05:00      -77.559      103.292      -14.439       36.349       48.525       33.620     1321.241     2354.676     1130.291        1.085        0.240      129.169       23.775        0.034      332.612        1.387      861.339
12/25/2014  19:06:00     -106.568       86.245      -16.478       41.654       43.019       31.064     1735.019     1850.652      964.995        1.181        0.228      137.095       22.091        0.026      332.592        1.355      861.318
12/25/2014  19:07:00      -85.652       73.826      -15.801       39.937       33.235       19.100     1594.946     1104.549      364.809        0.805        0.153      113.078       11.425        0.010      332.613        1.389      861.308
12/25/2014  19:08:00     -112.305      119.792      -24.229       34.157       52.006       26.066     1166.689     2704.629      679.437        1.605        0.228      164.203       21.737        0.018      332.596        1.360      861.298
12/25/2014  19:09:00      -96.599      118.541      -25.787       36.090       56.014       26.276     1302.469     3137.595      690.419        1.459        0.257      152.916       25.580        0.028      332.594        1.357      861.285
12/25/2014  19:10:00     -104.958      101.532      -18.743       32.143       53.886       27.798     1033.185     2903.690      772.726        1.319        0.235      146.030       27.947        0.037      332.613        1.389      861.277
12/25/2014  19:11:00      -94.722       99.581      -21.566       30.658       43.806       26.392      939.938     1918.923      696.546        1.145        0.178      137.436       22.292        0.026      332.638        1.431      861.273
12/25/2014  19:12:00      -78.302       90.241       -8.160       53.593       71.163       34.911     2872.182     5064.139     1218.805        1.175        0.458      119.477       42.915        0.129      332.614        1.391      861.257
12/25/2014  19:13:00      -74.272      113.457      -15.438       34.003       57.951       24.467     1156.209     3358.352      598.637        1.187        0.256      135.606       25.597        0.036      332.611        1.386      861.253
12/25/2014  19:14:00     -131.455      156.511      -41.111       41.650       67.167       35.365     1734.740     4511.455     1250.687        2.548        0.375      204.392       27.634        0.018      332.606        1.376      861.261
12/25/2014  19:15:00     -211.581      148.014      -39.934      107.972       60.932       48.322    11658.050     3712.692     2335.040        4.298        0.885      258.214       36.465        0.020      332.619        1.397      861.269
12/25/2014  19:16:00     -125.408      285.421      -41.635       81.623      107.033       46.344     6662.298    11456.129     2147.807        5.959        1.013      311.757       47.554        0.023      332.664        1.471      861.285
12/25/2014  19:17:00     -142.449      154.780      -34.246       79.653       62.411       39.804     6344.669     3895.159     1584.388        2.862        0.591      210.354       37.574        0.032      332.702        1.534      861.288
12/25/2014  19:18:00     -113.725      157.599      -29.268       50.774       89.339       39.018     2578.036     7981.420     1522.431        2.535        0.604      194.347       38.721        0.040      332.618        1.394      861.298
12/25/2014  19:19:00     -131.701      110.196      -25.927       46.947       57.338       27.090     2204.035     3287.627      733.894        1.819        0.311      171.722       18.545        0.012      332.607        1.380      861.316
12/25/2014  19:20:00     -134.085      146.356      -30.058       48.835       54.482       39.951     2384.858     2968.247     1596.097        2.362        0.347      198.492       32.291        0.026      332.575        1.324      861.331
12/25/2014  19:21:00     -127.909      180.993      -36.732       39.967       76.618       30.499     1597.354     5870.306      930.191        2.943        0.420      221.628       34.366        0.024      332.604        1.372      861.348
12/25/2014  19:22:00      -97.926      119.582      -20.276       38.200       60.701       31.127     1459.257     3684.589      968.905        1.521        0.306      154.562       27.666        0.032      332.593        1.354      861.364
12/25/2014  19:23:00      -92.846       62.943      -10.249       52.814       80.901       31.963     2789.308     6545.006     1021.630        1.152        0.518      112.170       28.724        0.066      332.581        1.336      861.385
12/25/2014  19:24:00     -110.448       89.092      -22.366       85.164       79.579       37.552     7252.944     6332.841     1410.122        1.781        0.750      141.902       53.267        0.141      332.595        1.359      861.405
12/25/2014  19:25:00     -133.816      118.000      -32.515       61.172       62.928       36.637     3742.063     3959.966     1342.257        2.096        0.452      178.411       38.892        0.048      332.543        1.271      861.426
12/25/2014  19:26:00     -108.763      116.143      -26.187       48.294       48.004       29.701     2332.266     2304.377      882.133        1.576        0.276      159.118       24.173        0.023      332.559        1.301      861.449
12/25/2014  19:27:00     -116.030      150.473      -18.155       54.464       83.956       41.036     2966.333     7048.575     1683.980        2.406        0.585      190.013       34.127        0.032      332.520        1.232      861.470
12/25/2014  19:28:00     -177.174      168.649      -41.486       61.649       52.255       42.657     3800.593     2730.554     1819.578        3.495        0.418      244.608       34.489        0.020      332.539        1.261      861.487
12/25/2014  19:29:00     -139.882      118.404      -11.858       92.917       65.325       40.131     8633.525     4267.390     1610.478        2.412        0.726      183.266       38.941        0.045      332.524        1.240      861.498
12/25/2014  19:30:00     -159.072      139.308      -35.905       62.876       60.333       40.038     3953.412     3640.103     1603.020        2.760        0.460      211.449       39.411        0.035      332.511        1.218      861.505
12/25/2014  19:31:00      -88.245       95.491      -16.022       53.718       79.622       38.769     2885.645     6339.593     1503.029        1.394        0.536      130.022       44.608        0.118      332.511        1.219      861.502
12/25/2014  19:32:00      -86.376       71.565      -13.214       60.582       66.079       27.131     3670.141     4366.405      736.088        1.076        0.439      112.171       30.526        0.074      332.521        1.236      861.498
12/25/2014  19:33:00     -105.020      129.006      -28.138       65.884       68.910       35.597     4340.651     4748.551     1267.135        1.941        0.518      166.348       45.414        0.075      332.494        1.191      861.503
12/25/2014  19:34:00     -113.028      148.097      -26.096       56.443       85.757       35.733     3185.846     7354.326     1276.834        2.360        0.591      186.301       42.646        0.052      332.506        1.209      861.487
12/25/2014  19:35:00     -133.566      120.374      -27.024       57.372       72.696       36.435     3291.505     5284.754     1327.494        2.148        0.495      179.805       28.894        0.026      332.491        1.187      861.478
12/25/2014  19:36:00      -79.421       96.245      -12.822       48.174       47.996       24.687     2320.716     2303.587      609.454        1.048        0.262      124.783       21.319        0.029      332.519        1.235      861.471
12/25/2014  19:37:00      -96.930      145.576      -25.748       54.735       49.907       34.649     2995.919     2490.667     1200.523        1.897        0.334      174.894       31.038        0.031      332.478        1.164      861.474
12/25/2014  19:38:00      -71.582      131.360      -12.253       38.403       60.325       28.857     1474.798     3639.062      832.719        1.424        0.297      149.598       26.156        0.031      332.634        1.424      861.474
12/25/2014  19:39:00     -119.809      136.163      -41.213       68.159       53.464       35.548     4645.666     2858.437     1263.642        2.168        0.438      181.369       35.738        0.039      332.516        1.226      861.484
12/25/2014  19:40:00      -64.084       49.388       -7.692       37.039       47.743       25.956     1371.905     2279.376      673.726        0.546        0.216       80.907       20.613        0.065      332.531        1.253      861.473
12/25/2014  19:41:00      -58.711       67.464       -6.459       64.799       55.557       37.942     4198.968     3086.613     1439.575        0.838        0.436       89.433       38.856        0.189      332.512        1.221      861.471
12/25/2014  19:42:00      -70.554       81.110        2.835       48.702       61.283       35.328     2371.840     3755.582     1248.075        0.947        0.369      107.503       34.690        0.104      332.488        1.183      861.475
12/25/2014  19:43:00      -58.008       99.361        3.513       56.671       70.118       43.084     3211.569     4916.472     1856.260        1.162        0.499      115.054       43.226        0.141      332.481        1.171      861.467
12/25/2014  19:44:00     -109.719       97.926      -19.600       45.761       77.895       31.310     2094.040     6067.619      980.296        1.558        0.457      147.063       24.577        0.028      332.503        1.208      861.467
12/25/2014  19:45:00      -63.924       -1.901       -9.753       23.146       33.858       14.758      535.723     1146.356      217.787        0.304        0.095       63.952        5.741        0.008      332.443        1.109      861.472
12/25/2014  19:46:00     -112.035       27.755      -24.227       55.306       34.575       28.499     3058.808     1195.412      812.214        0.949        0.253      115.422       31.760        0.076      332.497        1.198      861.485
12/25/2014  19:47:00      -87.407      106.812      -10.150       63.924       70.670       40.713     4086.263     4994.209     1657.548        1.494        0.537      138.018       44.099        0.102      332.464        1.141      861.495
12/25/2014  19:48:00     -161.350       64.242      -23.143       51.395       59.277       30.250     2641.469     3513.774      915.038        1.888        0.354      173.669       21.509        0.015      332.457        1.131      861.502
12/25/2014  19:49:00      -87.037        6.812        4.613       49.796       42.109       29.305     2479.611     1773.205      858.764        0.638        0.256       87.303       26.532        0.092      332.462        1.141      861.510
12/25/2014  19:50:00      -62.809       -8.756        2.238       67.718       46.545       28.036     4585.794     2166.397      786.032        0.578        0.377       63.416       32.257        0.259      332.463        1.143      861.514
12/25/2014  19:51:00     -102.964       42.362       -7.288       44.356       60.291       28.815     1967.469     3634.983      830.307        0.944        0.322      111.338       31.143        0.078      332.456        1.132      861.545
12/25/2014  19:52:00      -46.296       -3.279       -2.235       35.682       24.790       18.287     1273.239      614.521      334.419        0.219        0.111       46.411       15.759        0.115      332.477        1.165      861.560
12/25/2014  19:53:00      -92.910       25.143      -12.481       63.380       73.377       27.311     4017.041     5384.230      745.880        0.978        0.507       96.252       23.721        0.061      332.528        1.248      861.590
12/25/2014  19:54:00      -28.811       14.728       -0.424       39.434       40.513       25.241     1555.003     1641.282      637.088        0.244        0.192       32.357       10.329        0.102      332.487        1.181      861.605
12/25/2014  19:55:00      -61.223       44.675      -12.947       42.419       53.843       26.360     1799.380     2899.063      694.838        0.565        0.270       75.790       25.308        0.112      332.524        1.242      861.625
12/25/2014  19:56:00      -90.099      101.800      -26.963       42.691       53.299       29.296     1822.483     2840.828      858.272        1.236        0.276      135.945       20.583        0.023      332.508        1.217      861.645
12/25/2014  19:57:00      -90.892       90.838      -21.118       43.605       40.942       33.145     1901.369     1676.274     1098.612        1.082        0.234      128.502       20.979        0.027      332.492        1.189      861.661
12/25/2014  19:58:00      -39.045       52.753        0.828       29.260       41.325       24.274      856.122     1707.741      589.244        0.373        0.158       65.631       25.818        0.155      332.514        1.224      861.665
12/25/2014  19:59:00      -55.681       41.825        5.248       37.178       26.246       28.052     1382.194      688.831      786.904        0.387        0.143       69.640       19.743        0.080      332.500        1.203      861.671
12/25/2014  20:00:00      -62.413       10.444       -0.917       42.017       43.996       25.414     1765.468     1935.610      645.858        0.418        0.217       63.281       23.996        0.144      332.507        1.212      861.685
12/25/2014  20:01:00      -59.518       84.419      -20.027       55.796       45.617       29.841     3113.193     2080.890      890.484        0.858        0.304      103.291       25.451        0.061      332.647        1.445      861.695
12/25/2014  20:02:00     -116.220       -7.870       -4.407       54.497       43.384       23.498     2969.907     1882.144      552.134        0.950        0.270      116.486       24.012        0.042      332.549        1.281      861.701
12/25/2014  20:03:00      -28.997       15.207        0.891       47.547       23.741       29.850     2260.748      563.653      891.043        0.239        0.186       32.743       26.117        0.636      332.565        1.309      861.718
12/25/2014  20:04:00      -71.787       12.120      -15.709       53.777       21.455       25.112     2891.929      460.314      630.606        0.476        0.199       72.803       28.265        0.151      332.516        1.228      861.722
12/25/2014  20:05:00      -89.353      -52.567       -5.874       46.301       44.142       29.815     2143.801     1948.510      888.951        0.788        0.249      103.669       26.335        0.065      332.523        1.240      861.710
12/25/2014  20:06:00     -118.757       36.579      -23.120       57.630       43.260       35.182     3321.213     1871.389     1237.769        1.120        0.322      124.263       32.416        0.068      332.523        1.240      861.719
12/25/2014  20:07:00      -81.457       58.870       -5.140       53.107       40.636       28.117     2820.400     1651.257      790.567        0.769        0.263      100.503       26.792        0.071      332.542        1.272      861.740
12/25/2014  20:08:00      -91.251      168.778      -31.101       51.228       61.087       28.083     2624.343     3731.669      788.636        2.246        0.357      191.867       25.352        0.017      332.514        1.223      861.746
12/25/2014  20:09:00      -58.474       50.738       -5.995       59.946       43.594       27.596     3593.521     1900.438      761.533        0.614        0.313       77.418       25.167        0.106      332.571        1.320      861.745
12/25/2014  20:10:00     -122.591       27.880      -22.488       36.284       46.532       25.906     1316.507     2165.233      671.144        1.023        0.208      125.721       22.135        0.031      332.523        1.240      861.743
12/25/2014  20:11:00     -106.357      101.694      -28.164       59.028       36.707       28.539     3484.330     1347.378      814.456        1.405        0.282      147.151       29.169        0.039      332.513        1.223      861.735
12/25/2014  20:12:00      -68.496       58.239      -10.308       28.180       43.666       20.517      794.096     1906.730      420.958        0.566        0.156       89.908       19.045        0.045      332.499        1.200      861.735
12/25/2014  20:13:00      -46.100       55.936       -6.281       36.005       39.842       29.915     1296.327     1587.422      894.899        0.454        0.189       72.485       33.811        0.218      332.515        1.228      861.735
12/25/2014  20:14:00      -48.427       43.377      -10.632       21.743       43.913       23.430      472.769     1928.353      548.955        0.364        0.148       65.014       14.643        0.051      332.562        1.306      861.737
12/25/2014  20:15:00      -83.631      -20.469       -5.486       55.658       22.667       18.827     3097.820      513.802      354.446        0.570        0.198       86.099       26.332        0.094      332.508        1.216      861.743
12/25/2014  20:16:00      -59.450       -3.281       -8.139       36.321       29.889       18.215     1319.203      893.342      331.785        0.308        0.127       59.540       16.876        0.080      332.542        1.271      861.751
12/25/2014  20:17:00      -55.327      -24.132      -13.921       52.225       27.828       21.195     2727.425      774.421      449.207        0.389        0.198       60.361       19.324        0.102      332.518        1.231      861.757
12/25/2014  20:18:00      -69.732       -5.356       -9.123       23.802       23.631       18.574      566.539      558.442      344.998        0.322        0.073       69.937        9.828        0.020      332.522        1.238      861.760
12/25/2014  20:19:00     -107.101      -11.855      -10.172       26.814       27.818       22.588      719.013      773.838      510.201        0.686        0.100      107.756       14.856        0.019      332.532        1.255      861.760
12/25/2014  20:20:00     -124.402        9.307      -25.033       24.688       76.396       18.343      609.480     5836.306      336.470        1.148        0.339      124.750       21.813        0.031      332.501        1.203      861.768
12/25/2014  20:21:00      -94.008       41.419      -18.996       36.298       49.978       33.716     1317.531     2497.824     1136.778        0.793        0.248      102.728       22.822        0.049      332.481        1.169      861.762
12/25/2014  20:22:00      -67.861      -32.139      -16.468       44.399       32.517       23.414     1971.310     1057.336      548.194        0.474        0.179       75.086       19.899        0.070      332.512        1.221      861.759
12/25/2014  20:23:00      -95.881      -24.562      -13.427       39.116       42.306       32.187     1530.046     1789.773     1035.975        0.717        0.218       98.977       29.515        0.089      332.514        1.225      861.763
12/25/2014  20:24:00      -97.593      -15.757       -9.116       44.397       34.406       21.496     1971.084     1183.803      462.059        0.674        0.181       98.857       12.716        0.017      332.488        1.183      861.774
12/25/2014  20:25:00      -91.862      -57.278      -11.282       45.754       34.189       19.747     2093.468     1168.892      389.961        0.775        0.183      108.256       13.403        0.015      332.495        1.193      861.790
12/25/2014  20:26:00      -73.364        3.086       -1.978       29.994       27.430       21.956      899.646      752.381      482.076        0.376        0.107       73.428       12.157        0.027      332.509        1.216      861.808
12/25/2014  20:27:00     -148.852       49.554      -28.733       53.087       45.582       28.139     2818.254     2077.695      791.791        1.556        0.284      156.883       28.835        0.034      332.461        1.138      861.837
12/25/2014  20:28:00     -167.236       -5.340      -18.858       73.540       50.869       37.946     5408.128     2587.640     1439.923        1.889        0.472      167.321       36.404        0.047      332.471        1.154      861.862
12/25/2014  20:29:00     -120.439       -0.970      -12.254       42.288       54.862       30.125     1788.312     3009.882      907.503        1.018        0.285      120.443       25.632        0.045      332.466        1.147      861.879
12/25/2014  20:30:00     -137.464       16.866      -22.338       35.997       35.235       18.981     1295.786     1241.529      360.263        1.129        0.145      138.495       14.751        0.011      332.462        1.141      861.902
12/25/2014  20:31:00     -138.528       17.606      -24.734       49.590       59.691       26.730     2459.215     3563.031      714.510        1.342        0.337      139.643       14.823        0.011      332.473        1.158      861.906
12/25/2014  20:32:00     -179.534      -16.247      -21.698       55.618       57.354       28.582     3093.332     3289.490      816.958        2.008        0.360      180.267       25.082        0.019      332.471        1.155      861.905
12/25/2014  20:33:00     -156.586      -36.483      -13.037       58.476       66.573       34.721     3419.404     4431.913     1205.548        1.754        0.453      160.780       28.068        0.030      332.472        1.155      861.906
12/25/2014  20:34:00     -111.115        6.794      -10.093       93.457       38.949       36.381     8734.278     1517.011     1323.589        1.203        0.579      111.322       42.933        0.149      332.467        1.146      861.920
12/25/2014  20:35:00     -136.293       -0.469      -14.550       44.819       23.480       18.810     2008.752      551.308      353.798        1.085        0.146      136.294       20.029        0.022      332.460        1.136      861.921
12/25/2014  20:36:00      -89.506       24.027      -19.476       41.943       51.562       25.300     1759.222     2658.598      640.095        0.701        0.253       92.675       28.181        0.092      332.447        1.118      861.927
12/25/2014  20:37:00      -60.222       -7.062      -13.628       22.565       45.574       18.340      509.158     2076.999      336.363        0.339        0.146       60.634        4.967        0.007      332.488        1.184      861.919
12/25/2014  20:38:00      -83.268       -7.214      -19.692       24.621       30.017       17.932      606.207      901.029      321.556        0.460        0.091       83.580       13.974        0.028      332.490        1.186      861.911
12/25/2014  20:39:00      -83.886       57.085      -15.062       32.164       37.926       23.810     1034.539     1438.407      566.903        0.678        0.152      101.467       17.538        0.030      332.456        1.129      861.915
12/25/2014  20:40:00     -136.272       21.641      -25.308       37.934       28.778       19.277     1438.978      828.166      371.605        1.116        0.132      137.979       13.778        0.010      332.422        1.074      861.912
12/25/2014  20:41:00      -90.002       32.899      -14.328       41.254       42.765       21.538     1701.918     1828.845      463.870        0.669        0.200       95.826       26.852        0.079      332.412        1.058      861.915
12/25/2014  20:42:00     -162.542       74.192      -21.232       46.362       52.309       27.305     2149.449     2736.227      745.538        1.900        0.282      178.674       28.453        0.025      332.425        1.076      861.930
12/25/2014  20:43:00     -104.198       30.222      -11.810       55.389       34.742       23.694     3067.893     1206.989      561.417        0.837        0.242      108.493       21.305        0.039      332.456        1.129      861.929
12/25/2014  20:44:00      -94.137       60.723      -34.497       80.286       50.470       30.576     6445.904     2547.224      934.909        1.183        0.496      112.022       30.229        0.073      332.482        1.173      861.927
12/25/2014  20:45:00      -43.639       -0.122      -12.636       25.346       26.201       14.679      642.439      686.505      215.461        0.180        0.077       43.639       10.169        0.054      332.468        1.150      861.903
12/25/2014  20:46:00      -82.648       10.250      -11.657       29.638       35.799       20.048      878.417     1281.596      401.921        0.482        0.128       83.281       15.963        0.037      332.449        1.120      861.887
12/25/2014  20:47:00      -11.368       19.573       12.399       27.550       36.385       22.288      758.983     1323.858      496.735        0.162        0.129       22.634       11.491        0.258      332.431        1.090      861.870
12/25/2014  20:48:00     -158.945       13.114      -25.651       68.528       57.217       33.245     4696.104     3273.807     1105.220        1.758        0.454      159.486       23.824        0.022      332.437        1.098      861.859
12/25/2014  20:49:00      -81.308      181.375      -23.649       47.167       68.768       29.479     2224.755     4729.019      869.001        2.394        0.391      198.766       20.092        0.010      332.483        1.172      861.867
12/25/2014  20:50:00      -85.603       70.177      -20.368       51.373       53.723       36.238     2639.175     2886.123     1313.207        0.975        0.342      110.692       29.333        0.070      332.485        1.178      861.869
12/25/2014  20:51:00      -55.282       60.592      -11.920       41.129       46.911       30.771     1691.618     2200.672      946.826        0.585        0.242       82.021       25.080        0.093      332.462        1.140      861.870
12/25/2014  20:52:00      -77.338      118.725      -13.484       47.122       41.641       29.731     2220.525     1733.937      883.936        1.255        0.242      141.693       18.898        0.018      332.430        1.087      861.882
12/25/2014  20:53:00      -61.028       80.526      -12.859       69.697       74.700       36.578     4857.605     5580.142     1337.934        1.107        0.589      101.039       41.445        0.168      332.446        1.114      861.885
12/25/2014  20:54:00      -67.753       90.796      -12.431       47.069       79.872       34.889     2215.506     6379.608     1217.221        1.140        0.491      113.290       37.177        0.108      332.447        1.117      861.868
12/25/2014  20:55:00      -89.158      155.303      -23.526       41.464       57.078       28.239     1719.228     3257.897      797.464        1.920        0.289      179.076       17.190        0.009      332.447        1.116      861.857
12/25/2014  20:56:00      -84.872        9.070       -4.320       31.672       23.542       16.721     1003.107      554.208      279.598        0.457        0.092       85.355        8.867        0.011      332.459        1.136      861.851
12/25/2014  20:57:00      -74.196       23.079       -4.000       59.657       26.223       28.638     3558.912      687.637      820.110        0.556        0.253       77.702       28.581        0.135      332.436        1.098      861.854
12/25/2014  20:58:00        8.055        9.249       13.417       31.362       47.815       19.248      983.600     2286.229      370.498        0.198        0.182       12.265       20.869        2.895      332.425        1.078      861.855
12/25/2014  20:59:00       33.017       25.756       15.463       35.302       37.106       23.612     1246.214     1376.861      557.529        0.259        0.159       41.875       19.288        0.212      332.409        1.052      861.855
12/25/2014  21:00:00      -31.804       95.520      -11.292       45.523       70.805       25.122     2072.315     5013.292      631.134        0.899        0.386      100.676       26.100        0.067      332.461        1.140      861.864
12/25/2014  21:01:00      -27.087        9.492        2.205       52.320       22.986       22.913     2737.425      528.344      524.988        0.231        0.190       28.702       28.248        0.969      332.424        1.077      861.873
12/25/2014  21:02:00      -15.391       97.347       -7.342       40.173       27.578       21.399     1613.862      760.542      457.916        0.630        0.142       98.556       16.020        0.026      332.468        1.150      861.885
12/25/2014  21:03:00       -3.284       41.718       16.364       29.714       33.226       19.635      882.900     1103.977      385.532        0.220        0.119       41.847       18.771        0.201      332.366        0.981      861.903
12/25/2014  21:04:00       -8.111       26.490       -4.542       31.198       37.187       15.076      973.328     1382.837      227.286        0.169        0.129       27.704       10.472        0.143      332.382        1.007      861.930
12/25/2014  21:05:00      -26.359      126.275      -18.993       35.411       43.765       24.925     1253.920     1915.377      621.270        1.040        0.190      128.997       25.623        0.039      332.407        1.050      861.965
12/25/2014  21:06:00       -1.116      104.395      -11.767       22.708       31.124       19.815      515.633      968.693      392.626        0.646        0.094      104.401       16.021        0.024      332.399        1.037      861.985
12/25/2014  21:07:00       20.788       52.867        3.754       29.536       28.578       18.059      872.376      816.683      326.132        0.263        0.101       56.808       19.949        0.123      332.371        0.990      861.991
12/25/2014  21:08:00       46.164       21.528       12.380       22.138       21.905       11.600      490.086      479.817      134.555        0.193        0.055       50.937        8.800        0.030      332.363        0.977      861.997
12/25/2014  21:09:00       45.180       50.404        5.832       34.985       23.160       20.108     1223.932      536.364      404.337        0.339        0.108       67.689       15.495        0.052      332.327        0.917      862.024
12/25/2014  21:10:00       12.614       22.643       -0.649       22.847       22.907       17.360      522.002      524.746      301.366        0.101        0.067       25.919       13.618        0.276      332.325        0.912      862.044
12/25/2014  21:11:00       26.304       56.957       -3.208       18.566       21.710       15.659      344.680      471.325      245.196        0.250        0.053       62.737       12.467        0.039      332.356        0.965      862.046
12/25/2014  21:12:00       54.577       51.917        2.174       43.531       27.763       20.442     1894.979      770.803      417.878        0.438        0.154       75.326       16.715        0.049      332.350        0.956      862.071
12/25/2014  21:13:00       20.591       78.059       -8.514       25.115       44.384       28.354      630.741     1969.915      803.926        0.500        0.170       80.729       30.069        0.139      332.355        0.964      862.086
12/25/2014  21:14:00      -32.769       57.701      -10.057       63.998       29.696       17.411     4095.764      881.873      303.133        0.489        0.264       66.357       18.563        0.078      332.393        1.026      862.092
12/25/2014  21:15:00     -135.974       38.963      -13.771       48.673       35.617       20.865     2369.040     1268.547      435.343        1.213        0.204      141.446       23.326        0.027      332.354        0.962      862.108
12/25/2014  21:16:00      -94.599       -2.833      -11.856       27.744       28.672       19.605      769.736      822.099      384.340        0.554        0.099       94.641       15.275        0.026      332.405        1.046      862.123
12/25/2014  21:17:00      -94.745      -18.656       -6.956       36.330       46.656       20.150     1319.898     2176.745      406.030        0.664        0.195       96.564       21.309        0.049      332.372        0.992      862.125
12/25/2014  21:18:00      -89.405        5.133      -12.340       26.972       29.261       17.067      727.485      856.192      291.287        0.502        0.094       89.552       13.454        0.023      332.350        0.955      862.123
12/25/2014  21:19:00     -113.106       49.357      -18.273       29.278       37.549       19.921      857.221     1409.912      396.830        0.911        0.133      123.406       19.327        0.025      332.387        1.016      862.115
12/25/2014  21:20:00      -84.320       89.684      -17.101       41.835       45.326       27.348     1750.187     2054.422      747.931        1.000        0.228      123.098       27.913        0.051      332.451        1.123      862.128
12/25/2014  21:21:00     -112.057       82.531      -18.405       57.007       44.638       27.264     3249.759     1992.563      743.341        1.285        0.299      139.170       26.022        0.035      332.418        1.068      862.131
12/25/2014  21:22:00      -85.525       77.102      -19.226       40.906       57.343       27.695     1673.339     3288.261      767.035        0.968        0.286      115.149       25.689        0.050      332.381        1.006      862.141
12/25/2014  21:23:00     -105.246       32.028      -16.502       35.944       22.738       19.640     1291.999      517.027      385.736        0.728        0.110      110.011       16.610        0.023      332.346        0.949      862.143
12/25/2014  21:24:00      -77.280       60.463      -17.820       28.379       28.986       19.988      805.358      840.163      399.533        0.599        0.102       98.122       16.808        0.029      332.367        0.983      862.146
12/25/2014  21:25:00      -67.682       35.259      -13.420       33.319       37.870       25.908     1110.186     1434.102      671.225        0.461        0.161       76.316       22.397        0.086      332.344        0.944      862.145
12/25/2014  21:26:00      -85.157       96.614      -27.324       29.172       39.003       20.490      851.033     1521.259      419.825        1.006        0.140      128.786       21.497        0.028      332.347        0.950      862.140
12/25/2014  21:27:00      -99.109       92.166      -22.858       43.828       32.846       23.992     1920.897     1078.879      575.631        1.121        0.179      135.340       16.451        0.015      332.370        0.988      862.125
12/25/2014  21:28:00     -105.572      103.942      -28.179       28.787       38.695       16.910      828.663     1497.279      285.960        1.268        0.131      148.153       13.843        0.009      332.372        0.993      862.120
12/25/2014  21:29:00      -57.263      107.843      -15.496       44.168       39.331       21.035     1950.770     1546.904      442.487        0.954        0.197      122.104       18.041        0.022      332.456        1.132      862.124
12/25/2014  21:30:00      -37.870       61.518        0.020       46.532       34.964       34.124     2165.215     1222.477     1164.463        0.488        0.228       72.240       22.668        0.098      332.420        1.071      862.134
12/25/2014  21:31:00      -45.396       66.159       -8.562       38.126       46.983       27.513     1453.558     2207.423      756.961        0.546        0.221       80.236       28.189        0.123      332.474        1.160      862.130
12/25/2014  21:32:00      -64.851      108.804      -11.592       36.241       44.576       24.279     1313.418     1987.021      589.457        1.003        0.194      126.665       21.954        0.030      332.432        1.091      862.135
12/25/2014  21:33:00      -87.823       95.357      -26.841       21.840       30.395       20.923      476.997      923.872      437.786        0.968        0.092      129.637       17.286        0.018      332.320        0.906      862.134
12/25/2014  21:34:00      -49.070      181.306      -30.332       45.738       49.799       22.474     2091.923     2479.934      505.089        2.064        0.254      187.829       16.591        0.008      332.384        1.011      862.135
12/25/2014  21:35:00      -21.755      187.495      -24.552       43.593       69.145       31.989     1900.317     4781.042     1023.326        2.197        0.385      188.752       39.300        0.043      332.328        0.917      862.135
12/25/2014  21:36:00      -27.382      191.745      -20.954       38.624       52.991       26.595     1491.784     2808.003      707.311        2.148        0.250      193.690       26.781        0.019      332.264        0.812      862.125
12/25/2014  21:37:00        3.396      222.910      -25.379       39.223       65.579       27.943     1538.411     4300.659      780.814        2.848        0.331      222.936       29.737        0.018      332.225        0.747      862.120
12/25/2014  21:38:00      -21.576      187.427      -23.709       51.811       47.976       25.824     2684.390     2301.673      666.900        2.090        0.283      188.665       25.570        0.018      332.292        0.859      862.119
12/25/2014  21:39:00      -53.847      250.677      -29.579       41.747       47.596       27.648     1742.790     2265.375      764.422        3.569        0.239      256.395       21.008        0.007      332.269        0.819      862.113
12/25/2014  21:40:00      -42.848      226.746      -29.615       37.671       66.055       27.951     1419.098     4363.215      781.241        3.034        0.328      230.759       27.863        0.015      332.219        0.736      862.105
12/25/2014  21:41:00      -31.880      239.918      -28.653       32.341       64.254       26.798     1045.927     4128.603      718.111        3.264        0.295      242.026       29.640        0.015      332.212        0.726      862.090
12/25/2014  21:42:00      -39.190      215.892      -26.724       47.335       48.582       24.209     2240.584     2360.173      586.070        2.702        0.259      219.420       25.027        0.013      332.178        0.670      862.087
12/25/2014  21:43:00      -54.000      265.419      -31.465       36.265       52.616       31.783     1315.127     2768.468     1010.183        3.972        0.255      270.856       29.447        0.012      332.147        0.617      862.096
12/25/2014  21:44:00      -37.196      247.904      -33.511       51.222       44.104       29.659     2623.726     1945.206      879.655        3.470        0.272      250.679       16.694        0.004      332.184        0.676      862.121
12/25/2014  21:45:00      -49.279      269.367      -32.844       49.696       69.862       32.442     2469.679     4880.764     1052.465        4.223        0.420      273.838       32.491        0.014      332.118        0.570      862.139
12/25/2014  21:46:00      -10.938      199.312      -25.551       41.355       40.580       25.668     1710.233     1646.708      658.838        2.226        0.201      199.612       18.838        0.009      332.166        0.652      862.140
12/25/2014  21:47:00      -29.801      254.081      -28.488       42.823       69.771       27.247     1833.829     4868.029      742.418        3.685        0.372      255.823       28.897        0.013      332.159        0.637      862.135
12/25/2014  21:48:00      -39.383      273.364      -28.354       36.360       71.472       29.635     1322.083     5108.187      878.213        4.219        0.365      276.186       33.584        0.015      332.144        0.612      862.146
12/25/2014  21:49:00      -64.656      267.458      -26.615       46.880       70.807       40.239     2197.763     5013.567     1619.157        4.262        0.442      275.163       36.082        0.017      332.115        0.563      862.162
12/25/2014  21:50:00      -38.967      248.731      -28.538       54.449       61.869       23.775     2964.647     3827.830      565.243        3.578        0.368      251.765       22.116        0.008      332.200        0.704      862.158
12/25/2014  21:51:00      -77.759      238.974      -21.767       55.926       68.276       38.968     3127.749     4661.593     1518.533        3.647        0.465      251.306       36.710        0.021      332.141        0.607      862.160
12/25/2014  21:52:00      -56.003      194.282      -18.084       62.005       90.911       37.562     3844.614     8264.844     1410.924        2.736        0.676      202.192       35.392        0.031      332.212        0.725      862.147
12/25/2014  21:53:00      -82.508      178.761      -27.364       50.728       85.301       36.007     2573.341     7276.185     1296.523        2.533        0.557      196.884       41.350        0.044      332.244        0.778      862.139
12/25/2014  21:54:00      -51.417      300.762      -39.511       56.070       87.510       37.156     3143.810     7658.054     1380.593        5.342        0.609      305.126       41.910        0.019      332.212        0.724      862.131
12/25/2014  21:55:00      -47.370      259.140      -20.808       53.379       65.362       38.317     2849.276     4272.216     1468.155        3.921        0.429      263.434       29.361        0.012      332.160        0.639      862.113
12/25/2014  21:56:00      -37.944      234.430      -26.362       49.296       47.773       32.319     2430.097     2282.272     1044.521        3.142        0.288      237.481       23.937        0.010      332.171        0.657      862.113
12/25/2014  21:57:00      -31.796      247.561      -27.490       47.810       71.802       32.438     2285.844     5155.522     1052.235        3.577        0.425      249.595       36.645        0.022      332.145        0.614      862.101
12/25/2014  21:58:00      -83.844      229.311      -26.711       62.399       63.601       37.456     3893.630     4045.126     1402.984        3.483        0.467      244.159       28.734        0.014      332.214        0.729      862.092
12/25/2014  21:59:00      -88.484      236.749      -35.828       65.422       85.038       34.458     4280.039     7231.453     1187.330        3.893        0.635      252.744       29.091        0.013      332.193        0.692      862.097
12/25/2014  22:00:00      -87.892      172.183      -20.943       65.335       80.512       32.203     4268.671     6482.178     1037.030        2.480        0.589      193.318       36.772        0.036      332.199        0.704      862.094
12/25/2014  22:01:00      -65.172      117.365      -14.399       64.920       62.585       31.932     4214.625     3916.856     1019.670        1.369        0.458      134.246       19.497        0.021      332.170        0.658      862.089
12/25/2014  22:02:00      -55.137      150.068      -13.089       48.387       76.975       35.467     2341.296     5925.197     1257.883        1.763        0.476      159.876       30.898        0.037      332.208        0.718      862.082
12/25/2014  22:03:00      -69.662      173.051      -19.647       48.154       81.915       40.926     2318.772     6710.004     1674.932        2.294        0.535      186.546       45.411        0.059      332.153        0.627      862.089
12/25/2014  22:04:00     -104.026      158.364      -35.455       52.880       65.599       38.395     2796.247     4303.250     1474.204        2.286        0.429      189.474       19.446        0.011      332.191        0.692      862.091
12/25/2014  22:05:00      -66.120      130.604      -15.191       62.980       92.454       40.340     3966.487     8547.715     1627.298        1.790        0.707      146.387       37.725        0.066      332.184        0.680      862.088
12/25/2014  22:06:00      -51.874      113.002      -14.827       60.160       74.738       34.559     3619.273     5585.810     1194.320        1.304        0.520      124.340       31.274        0.063      332.212        0.727      862.083
12/25/2014  22:07:00      -24.040      170.159      -14.706       41.872      128.193       31.068     1753.224    16433.431      965.246        2.445        0.958      171.849       44.319        0.067      332.184        0.679      862.091
12/25/2014  22:08:00      -51.256      162.465      -23.425       47.747       92.490       33.152     2279.744     8554.319     1099.028        2.075        0.597      170.359       38.856        0.052      332.280        0.839      862.113
12/25/2014  22:09:00     -120.606       53.800      -33.078       54.171       57.201       27.465     2934.544     3271.939      754.326        1.275        0.348      132.062       26.885        0.041      332.194        0.697      862.136
12/25/2014  22:10:00     -122.269       94.383      -25.125       46.963       65.719       34.754     2205.497     4319.025     1207.852        1.611        0.387      154.460       32.889        0.045      332.177        0.670      862.129
12/25/2014  22:11:00     -124.603       90.313      -31.540       51.343       72.859       37.048     2636.082     5308.449     1372.569        1.700        0.466      153.890       25.318        0.027      332.202        0.711      862.128
12/25/2014  22:12:00      -57.871       35.625       -8.282       29.281       43.662       30.518      857.355     1906.395      931.341        0.419        0.185       67.957       16.783        0.061      332.164        0.648      862.148
12/25/2014  22:13:00      -52.628       -7.834       -9.252       29.288       35.915       29.282      857.772     1289.897      857.428        0.296        0.150       53.208       14.668        0.076      332.157        0.638      862.171
12/25/2014  22:14:00      -84.683      -28.139      -13.371       42.829       24.233       18.990     1834.285      587.237      360.622        0.546        0.139       89.235       16.749        0.035      332.101        0.545      862.197
12/25/2014  22:15:00      -31.039        8.723       -2.757       27.952       28.474       18.381      781.342      810.765      337.875        0.149        0.096       32.241       17.191        0.284      332.055        0.470      862.226
12/25/2014  22:16:00      -15.524      -36.548        1.552       35.959       23.293       16.664     1293.050      542.571      277.684        0.185        0.106       39.709       18.634        0.220      332.093        0.533      862.241
12/25/2014  22:17:00      -53.794      -54.063        1.600       34.732       21.387       23.378     1206.288      457.391      546.509        0.401        0.111       76.267       19.466        0.065      332.076        0.503      862.251
12/25/2014  22:18:00      -53.527      -72.980       -5.778       47.427       36.144       23.070     2249.329     1306.398      532.207        0.616        0.204       90.505       22.644        0.063      331.981        0.347      862.260
12/25/2014  22:19:00      -89.140     -114.791       -3.161       38.359       40.751       24.804     1471.397     1660.661      615.226        1.244        0.187      145.337       25.077        0.030      331.946        0.288      862.273
12/25/2014  22:20:00      -95.571      -96.817       -5.109       55.690       48.042       29.738     3101.418     2308.035      884.354        1.241        0.315      136.042       31.601        0.054      331.873        0.169      862.279
12/25/2014  22:21:00     -102.692      -71.271       -4.492       47.078       53.500       26.345     2216.299     2862.270      694.070        1.071        0.289      125.001       25.734        0.042      331.876        0.174      862.290
12/25/2014  22:22:00      -73.968      -37.058        0.103       33.492       62.749       22.617     1121.708     3937.488      511.525        0.621        0.279       82.732       20.596        0.062      331.883        0.185      862.283
12/25/2014  22:23:00      -58.486     -106.673        2.861       66.503       41.100       37.182     4422.682     1689.198     1382.522        1.115        0.375      121.654       36.473        0.090      331.985        0.354      862.266
12/25/2014  22:24:00        0.189       -3.641        1.393       17.751       16.390       16.480      315.112      268.634      271.600        0.044        0.043        3.646       12.961       12.636      331.945        0.288      862.260
12/25/2014  22:25:00       -0.398       11.917       -5.737       19.975       31.359       17.170      399.008      983.400      294.793        0.093        0.084       11.924       18.491        2.405      332.007        0.392      862.263
12/25/2014  22:26:00      -59.286       -3.030        2.559       52.163       21.035       24.050     2720.960      442.480      578.380        0.364        0.187       59.364       30.927        0.271      331.953        0.299      862.266
12/25/2014  22:27:00      -61.744      -17.186       -5.487       29.997       22.450       17.758      899.832      503.993      315.363        0.293        0.086       64.091       19.282        0.091      331.895        0.205      862.267
12/25/2014  22:28:00      -61.870      -33.373       -4.169       29.965       32.628       18.778      897.875     1064.590      352.617        0.364        0.116       70.297       13.211        0.035      331.885        0.189      862.267
12/25/2014  22:29:00      -77.695      -36.624        1.439       30.695       23.545       16.492      942.174      554.366      271.990        0.457        0.088       85.894       16.011        0.035      331.860        0.147      862.262
12/25/2014  22:30:00      -43.631      -42.847        0.990       23.760       23.585       14.118      564.535      556.274      199.307        0.253        0.066       61.152       14.215        0.054      331.902        0.215      862.260
12/25/2014  22:31:00      -35.680      -36.026        0.657       29.976       23.910       20.044      898.571      571.665      401.769        0.222        0.094       50.704       20.221        0.159      331.992        0.365      862.244
12/25/2014  22:32:00      -98.160      -98.420        0.051       52.484       53.719       26.105     2754.544     2885.716      681.481        1.282        0.316      139.003       28.600        0.042      331.960        0.312      862.245
12/25/2014  22:33:00     -133.636      -71.016       -4.822       55.717       42.275       28.319     3104.365     1787.144      801.981        1.431        0.285      151.333       23.510        0.024      331.954        0.303      862.271
12/25/2014  22:34:00     -138.312      -98.433      -13.274       40.006       34.402       27.406     1600.516     1183.526      751.102        1.626        0.177      169.762       17.865        0.011      331.989        0.360      862.288
12/25/2014  22:35:00     -146.147      -75.736        0.275       55.387       48.573       28.545     3067.667     2359.347      814.841        1.667        0.312      164.605       27.984        0.029      331.913        0.232      862.295
12/25/2014  22:36:00     -177.957      -63.372       -2.019       49.017       46.174       31.388     2402.701     2132.054      985.218        2.060        0.276      188.904       30.428        0.026      331.919        0.244      862.307
12/25/2014  22:37:00     -157.713      -77.983        3.138       49.870       50.951       28.784     2487.060     2596.042      828.495        1.844        0.296      175.939       22.005        0.016      331.946        0.287      862.314
12/25/2014  22:38:00      -72.744      -56.203        0.091       52.130       45.401       23.907     2717.504     2061.226      571.546        0.690        0.268       91.926       25.604        0.078      331.962        0.317      862.326
12/25/2014  22:39:00     -146.292     -110.624       -0.179       60.163       52.799       34.935     3619.539     2787.765     1220.474        2.063        0.381      183.409       28.777        0.025      331.992        0.364      862.341
12/25/2014  22:40:00     -121.438     -131.927       -7.445       56.958       46.708       23.885     3244.266     2181.605      570.471        1.910        0.300      179.309       22.149        0.015      331.967        0.321      862.357
12/25/2014  22:41:00     -131.589      -87.365        0.172       75.345       63.210       35.259     5676.826     3995.494     1243.181        1.793        0.546      157.951       44.762        0.080      331.956        0.305      862.355
12/25/2014  22:42:00     -176.580     -141.648       -7.667       89.284       65.280       46.734     7971.637     4261.500     2184.096        3.286        0.721      226.373       47.612        0.044      331.949        0.290      862.352
12/25/2014  22:43:00     -160.072     -121.580       -2.376       61.166       50.502       34.461     3741.297     2550.428     1187.537        2.394        0.374      201.009       34.346        0.029      332.054        0.465      862.350
12/25/2014  22:44:00      -76.706      -94.976        3.614       70.689       55.731       36.530     4996.989     3105.916     1334.427        1.218        0.472      122.083       35.692        0.085      332.077        0.505      862.354
12/25/2014  22:45:00      -38.061      -95.915        7.210       57.417       48.357       30.697     3296.737     2338.405      942.329        0.864        0.329      103.191       29.352        0.081      332.091        0.529      862.351
12/25/2014  22:46:00      -94.228     -112.880      -10.739       58.359       70.840       35.623     3405.819     5018.342     1269.021        1.571        0.485      147.040       32.562        0.049      332.080        0.509      862.346
12/25/2014  22:47:00      -94.932      -46.728       -8.085       37.246       47.992       22.585     1387.253     2303.213      510.098        0.773        0.210      105.810       18.659        0.031      332.081        0.512      862.331
12/25/2014  22:48:00      -49.703        6.674        1.665       39.662       30.007       17.892     1573.083      900.435      320.108        0.266        0.140       50.149       18.927        0.142      332.015        0.404      862.336
12/25/2014  22:49:00     -128.558      -26.558       -9.003       50.288       45.127       24.936     2528.873     2036.435      621.802        1.125        0.259      131.273       18.248        0.019      332.022        0.414      862.341
12/25/2014  22:50:00     -162.302     -154.434       -8.347       92.715       66.249       37.819     8596.059     4388.971     1430.243        3.234        0.721      224.035       40.670        0.033      332.085        0.516      862.336
12/25/2014  22:51:00     -191.741     -107.085       -3.528       73.270       78.154       39.744     5368.522     6108.036     1579.586        3.065        0.653      219.617       35.557        0.026      332.012        0.394      862.319
12/25/2014  22:52:00      -87.022      -34.458       -3.165       40.712       43.085       22.803     1657.436     1856.336      519.980        0.640        0.202       93.595       12.851        0.019      332.017        0.406      862.320
12/25/2014  22:53:00      -38.187       -8.632       -1.574       35.165       23.839       16.133     1236.606      568.276      260.263        0.180        0.103       39.150       11.023        0.079      332.049        0.460      862.333
12/25/2014  22:54:00     -131.430       -6.373      -10.669       63.327       35.703       24.272     4010.281     1274.700      589.135        1.165        0.294      131.585       29.012        0.049      332.084        0.518      862.361
12/25/2014  22:55:00     -177.599       -9.669      -16.363       72.606       67.014       41.581     5271.616     4490.877     1728.978        2.169        0.575      177.862       42.658        0.058      332.098        0.539      862.388
12/25/2014  22:56:00     -140.995       25.411      -18.166       68.041       34.081       32.797     4629.554     1161.484     1075.625        1.386        0.343      143.267       22.267        0.024      332.062        0.479      862.401
12/25/2014  22:57:00     -215.549      -70.486      -12.842       58.123       45.958       33.230     3378.280     2112.142     1104.235        2.909        0.330      226.781       31.176        0.019      332.043        0.444      862.416
12/25/2014  22:58:00     -151.232      -32.730       -2.757       78.569       70.238       40.943     6173.155     4933.381     1676.324        1.836        0.639      154.733       33.217        0.046      332.000        0.377      862.410
12/25/2014  22:59:00     -132.875      -91.645       -3.251       96.033       85.849       52.312     9222.361     7370.078     2736.530        2.269        0.966      161.414       49.549        0.094      332.023        0.415      862.398
12/25/2014  23:00:00     -113.820     -121.800        1.118       84.152       78.083       45.773     7081.631     6096.906     2095.149        2.153        0.764      166.704       51.388        0.095      332.020        0.410      862.379
12/25/2014  23:01:00     -107.815      -39.549       -2.070       64.912       51.185       34.923     4213.619     2619.869     1219.598        1.062        0.403      114.840       37.227        0.105      332.031        0.428      862.382
12/25/2014  23:02:00        6.408        5.605        8.274       15.863       19.658       25.588      251.648      386.418      654.724        0.072        0.065        8.514       15.744        3.420      332.036        0.438      862.371
12/25/2014  23:03:00       11.513        9.979       -3.015       39.586       32.648       25.672     1567.083     1065.883      659.072        0.177        0.165       15.236        6.238        0.168      331.984        0.351      862.386
12/25/2014  23:04:00      -24.709       61.516       -9.750       40.937       50.278       18.074     1675.840     2527.892      326.655        0.451        0.227       66.293       19.986        0.091      331.951        0.297      862.405
12/25/2014  23:05:00     -135.665       35.733      -18.300       48.703       37.474       22.736     2371.969     1404.336      516.933        1.215        0.215      140.292       19.435        0.019      332.087        0.522      862.396
12/25/2014  23:06:00     -160.984       28.932      -28.041       44.127       30.844       22.175     1947.220      951.333      491.744        1.546        0.170      163.563       25.629        0.025      332.075        0.500      862.367
12/25/2014  23:07:00     -164.962       -4.488      -17.424       43.989       51.054       24.808     1935.057     2606.546      615.412        1.635        0.258      165.023       22.724        0.019      332.100        0.542      862.345
12/25/2014  23:08:00     -146.956       25.939      -34.459       57.193       50.278       22.611     3270.982     2527.875      511.258        1.488        0.316      149.228       18.599        0.016      332.150        0.625      862.336
12/25/2014  23:09:00     -122.831       28.079      -15.803       35.688       37.611       28.923     1273.647     1414.568      836.537        0.982        0.176      125.999       20.094        0.025      332.121        0.577      862.322
12/25/2014  23:10:00      -96.337       87.574      -20.174       40.274       55.875       22.523     1622.028     3122.030      507.287        1.130        0.263      130.192       18.050        0.019      332.157        0.637      862.299
12/25/2014  23:11:00      -35.406       74.756       -6.885       72.885       76.928       33.027     5312.211     5917.950     1090.808        0.960        0.616       82.716       33.211        0.161      332.224        0.746      862.271
12/25/2014  23:12:00     -120.241       41.175      -14.140       37.799       30.884       23.833     1428.738      953.840      567.990        0.965        0.148      127.096        9.543        0.006      332.109        0.557      862.253
12/25/2014  23:13:00      -63.809      126.543      -15.968       52.547       43.823       33.948     2761.192     1920.431     1152.449        1.309        0.292      141.720       28.782        0.041      332.127        0.587      862.237
12/25/2014  23:14:00     -127.886       66.153      -18.817       42.954       49.646       29.765     1845.049     2464.700      885.939        1.314        0.260      143.983       12.608        0.008      332.095        0.534      862.224
12/25/2014  23:15:00      -81.426       75.804      -18.227       37.778       67.969       30.733     1427.162     4619.740      944.518        0.985        0.350      111.249       35.139        0.100      332.123        0.580      862.222
12/25/2014  23:16:00     -132.069      146.394      -38.222       47.360       46.013       29.716     2242.939     2117.188      883.060        2.279        0.262      197.163       24.262        0.015      332.121        0.576      862.218
12/25/2014  23:17:00      -28.321       79.754      -15.522       35.103       29.084       19.566     1232.244      845.895      382.823        0.493        0.123       84.633       16.787        0.039      332.171        0.661      862.216
12/25/2014  23:18:00      -12.391      110.000      -13.641       27.013       48.150       19.655      729.694     2318.453      386.337        0.794        0.172      110.695       20.947        0.036      332.135        0.600      862.206
12/25/2014  23:19:00      -27.736      142.840       -7.152       45.044       56.240       32.886     2028.961     3162.913     1081.468        1.375        0.314      145.508       34.783        0.057      332.089        0.524      862.206
12/25/2014  23:20:00       10.762       95.491       -7.737       31.193       39.458       25.908      973.026     1556.963      671.241        0.625        0.160       96.095       21.048        0.048      331.879        0.179      862.212
12/25/2014  23:21:00      -17.749      122.271       -8.429       49.260       62.304       25.929     2426.556     3881.808      672.312        1.116        0.349      123.552       32.503        0.069      331.995        0.370      862.200
12/25/2014  23:22:00      -30.634      183.582      -26.817       35.973       52.960       29.246     1294.022     2804.722      855.355        2.016        0.248      186.120       31.433        0.029      331.934        0.267      862.206
12/25/2014  23:23:00       16.441      108.132       -5.632       33.937       42.264       25.414     1151.747     1786.220      645.872        0.779        0.179      109.375       21.501        0.039      332.061        0.479      862.202
12/25/2014  23:24:00       14.947       68.584      -14.143       31.486       35.159       20.417      991.366     1236.136      416.835        0.389        0.132       70.194       17.792        0.064      331.931        0.264      862.199
12/25/2014  23:25:00      -13.244       69.954       -8.364       47.199       43.965       25.147     2227.756     1932.964      632.389        0.497        0.240       71.197       14.019        0.039      332.121        0.577      862.199
12/25/2014  23:26:00       35.015       77.210        1.886       51.224       77.119       27.371     2623.851     5947.360      749.180        0.825        0.466       84.779       35.933        0.180      332.039        0.444      862.205
12/25/2014  23:27:00       15.274       70.309      -11.509       28.516       47.447       17.168      813.190     2251.253      294.739        0.433        0.168       71.949       19.213        0.071      332.049        0.458      862.205
12/25/2014  23:28:00       17.288       46.810        1.262       52.500       47.076       20.946     2756.270     2216.119      438.750        0.395        0.271       49.901       25.413        0.259      332.058        0.474      862.225
12/25/2014  23:29:00       14.070       85.994       -8.666       31.107       51.475       23.092      967.670     2649.698      533.239        0.591        0.208       87.137       24.098        0.076      332.136        0.602      862.235
12/25/2014  23:30:00      -66.195       92.138      -12.702       64.486       63.304       29.475     4158.400     4007.385      868.751        1.103        0.452      113.452       30.381        0.072      332.154        0.633      862.255
12/25/2014  23:31:00      -92.156       58.407      -19.999       44.995       51.935       28.304     2024.537     2697.261      801.129        0.891        0.276      109.106       32.505        0.089      332.183        0.681      862.243
12/25/2014  23:32:00      -50.164       -4.514       -0.902       44.885       28.977       17.061     2014.670      839.676      291.062        0.284        0.157       50.367       23.554        0.219      332.105        0.552      862.248
12/25/2014  23:33:00      -62.468       29.626       -5.062       64.270       60.939       32.800     4130.656     3713.525     1075.810        0.686        0.446       69.137       32.715        0.224      332.085        0.519      862.256
12/25/2014  23:34:00       33.899       53.110        1.393       29.989       28.078       24.005      899.318      788.387      576.223        0.312        0.113       63.007       14.998        0.057      332.047        0.457      862.268
12/25/2014  23:35:00       10.919       33.372        3.851       31.521       45.732       24.656      993.602     2091.386      607.937        0.247        0.185       35.113       12.892        0.135      332.097        0.538      862.262
12/25/2014  23:36:00      -46.299       18.753        1.651       21.529       22.335       14.348      463.516      498.872      205.878        0.183        0.058       49.952       11.788        0.056      332.105        0.551      862.241
12/25/2014  23:37:00      -42.604      -15.678       -1.158       26.313       19.298       14.410      692.390      372.427      207.661        0.167        0.064       45.397       12.987        0.082      332.051        0.463      862.227
12/25/2014  23:38:00      -56.714      -68.563       -4.654       24.458       22.788       12.041      598.212      519.279      144.995        0.460        0.063       88.979       10.362        0.014      332.045        0.452      862.226
12/25/2014  23:39:00      -49.435      -79.211       -7.972       27.892       24.749       17.529      777.943      612.497      307.263        0.524        0.085       93.371       13.896        0.022      332.068        0.491      862.233
12/25/2014  23:40:00      -43.959      -68.644       -1.205       42.769       17.561       14.090     1829.151      308.405      198.542        0.449        0.117       81.513       14.286        0.031      332.026        0.423      862.249
12/25/2014  23:41:00      -19.959      -35.835        3.724       32.502       32.482       16.928     1056.383     1055.113      286.554        0.205        0.120       41.018       14.683        0.128      332.000        0.379      862.255
12/25/2014  23:42:00      -51.381       22.622       -5.703       22.295       16.368       13.973      497.065      267.908      195.232        0.207        0.048       56.140       11.045        0.039      332.057        0.471      862.258
12/25/2014  23:43:00      -28.331       -9.506       -0.104       31.558       17.517       10.708      995.903      306.859      114.655        0.115        0.071       29.883       12.258        0.168      332.072        0.499      862.270
12/25/2014  23:44:00      -58.749      -38.060       -4.835       15.140       16.147        9.765      229.229      260.741       95.351        0.275        0.029       69.999        6.887        0.010      332.012        0.397      862.271
12/25/2014  23:45:00      -28.290      -11.877        5.719       54.785       19.249       16.688     3001.355      370.536      278.484        0.231        0.183       30.682       24.201        0.622      332.007        0.391      862.268
12/25/2014  23:46:00      -96.607      -63.755      -13.374       19.401       24.727       12.237      376.406      611.432      149.740        0.736        0.057      115.748        6.040        0.003      331.909        0.227      862.270
12/25/2014  23:47:00     -110.280      -43.923       -2.466       32.902       25.972       17.089     1082.530      674.569      292.049        0.807        0.102      118.705       13.511        0.013      331.886        0.191      862.269
12/25/2014  23:48:00     -126.050      -27.140       -6.994       37.703       35.876       23.461     1421.508     1287.088      550.438        0.997        0.163      128.939       23.496        0.033      331.745       -0.041      862.275
12/25/2014  23:49:00      -84.886      -46.228        2.174       47.785       35.088       25.319     2283.427     1231.202      641.035        0.675        0.208       96.658       24.869        0.066      331.722       -0.080      862.283
12/25/2014  23:50:00      -67.143      -39.743        0.980       42.796       32.963       24.681     1831.466     1086.545      609.141        0.481        0.176       78.024       25.469        0.107      331.736       -0.057      862.298
12/25/2014  23:51:00     -120.877      -92.344       -5.659       60.174       37.634       27.856     3620.904     1416.305      775.931        1.449        0.291      152.114       28.129        0.034      331.755       -0.026      862.313
12/25/2014  23:52:00      -74.133      -16.677        3.156       47.944       26.148       21.678     2298.585      683.694      469.921        0.462        0.173       75.985       24.267        0.102      331.729       -0.067      862.334
12/25/2014  23:53:00      -34.022      -30.002        0.009       50.439       21.588       19.344     2544.047      466.027      374.175        0.272        0.169       45.361       16.890        0.139      331.777        0.011      862.352
12/25/2014  23:54:00      -76.591      -40.438        2.942       48.440       41.254       23.129     2346.387     1701.869      534.928        0.605        0.229       86.611       19.366        0.050      331.785        0.025      862.371
12/25/2014  23:55:00      -46.682      -41.899        7.220       51.365       28.194       29.315     2638.409      794.878      859.344        0.414        0.215       62.727       35.394        0.318      331.830        0.098      862.383
12/25/2014  23:56:00      -58.580      -11.321      -10.685       35.839       18.152       18.278     1284.437      329.504      334.070        0.281        0.097       59.664       18.378        0.095      331.828        0.093      862.410
12/25/2014  23:57:00      -70.097        3.285       -4.651       20.559       17.160       11.864      422.663      294.481      140.756        0.290        0.043       70.174       11.393        0.026      331.796        0.040      862.426
12/25/2014  23:58:00      -86.475      -33.013       -3.116       22.989       24.251       14.726      528.483      588.118      216.855        0.496        0.067       92.562       15.057        0.026      331.792        0.036      862.432
12/25/2014  23:59:00     -113.095      -49.450       -9.579       16.178       17.503       13.696      261.738      306.354      187.580        0.804        0.038      123.434        7.365        0.004      331.811        0.067      862.433
